[[{"header":{"parameterUnit":"m.s-1","parameterCategory":1,"la1":30.6,"la2":29.2853,"lo1":-89.7004,"lo2":-87.6739,"dy":0.0162,"dx":0.0183,"nx":112,"ny":82,"refTime":"2026-03-09T00:00:00:Z","depth":0,"parameterNumber":2,"parameterNumberName":"U-component_of_WINDS"},"data":[0.0,0.0,0.0,0.0,0.0,0.0,0.0,0.0,0.0,0.0,0.0,0.0,0.0,0.0,0.0,0.0,0.0,0.0,0.0,0.0,0.0,0.0,0.0,0.0,0.0,0.0,0.0,0.0,0.0,0.0,0.0,0.0,0.0,0.0,0.0,0.0,0.0,0.0,0.0,0.0,0.0,0.0,0.0,0.0,0.0,0.0,0.0,0.0,0.0,0.0,0.0,0.0,0.0,0.0,0.0,0.0,0.0,0.0,0.0,0.0,0.0,0.0,0.0,0.0,0.0,0.0,0.0,0.0,0.0,0.0,0.0,0.0,0.0,0.0,0.0,0.0,0.0,0.0,0.0,0.0,0.0,0.0,0.0,0.0,0.0,0.0,0.0,0.0,0.0,0.0,0.0,7.9172,8.4266,8.75,8.75,8.6484,8.375,7.8984,0.0,0.0,0.0,0.0,0.0,0.0,0.0,0.0,0.0,0.0,0.0,0.0,0.0,0.0,0.0,0.0,0.0,0.0,0.0,0.0,0.0,0.0,0.0,0.0,0.0,0.0,0.0,0.0,0.0,0.0,0.0,0.0,0.0,0.0,0.0,0.0,0.0,0.0,0.0,0.0,0.0,0.0,0.0,0.0,0.0,0.0,0.0,0.0,0.0,0.0,0.0,0.0,0.0,0.0,0.0,0.0,0.0,0.0,0.0,0.0,0.0,0.0,0.0,0.0,0.0,0.0,0.0,0.0,0.0,0.0,0.0,0.0,0.0,0.0,0.0,0.0,0.0,0.0,0.0,0.0,0.0,0.0,0.0,0.0,0.0,0.0,0.0,0.0,0.0,0.0,0.0,0.0,0.0,0.0,0.0,0.0,0.0,0.0,0.0,0.0,0.0,0.0,0.0,0.0,7.6762,8.308,8.5988,8.75,8.75,8.5312,8.2734,7.9687,0.0,0.0,0.0,0.0,0.0,0.0,0.0,0.0,0.0,0.0,0.0,0.0,0.0,0.0,0.0,0.0,0.0,0.0,0.0,0.0,0.0,0.0,0.0,0.0,0.0,0.0,0.0,0.0,0.0,0.0,0.0,0.0,0.0,0.0,0.0,0.0,0.0,0.0,0.0,0.0,0.0,0.0,0.0,0.0,0.0,0.0,0.0,0.0,0.0,0.0,0.0,0.0,0.0,0.0,0.0,0.0,0.0,0.0,0.0,0.0,0.0,0.0,0.0,0.0,0.0,0.0,0.0,0.0,0.0,0.0,0.0,0.0,0.0,0.0,0.0,0.0,0.0,0.0,0.0,0.0,0.0,0.0,0.0,0.0,0.0,0.0,0.0,0.0,0.0,0.0,0.0,0.0,0.0,0.0,0.0,0.0,0.0,0.0,0.0,0.0,0.0,0.0,0.0,7.5714,7.8772,8.486,8.6696,8.75,8.75,8.5547,8.2969,7.9922,7.7265,0.0,0.0,0.0,0.0,0.0,0.0,0.0,0.0,0.0,0.0,0.0,0.0,0.0,0.0,0.0,0.0,0.0,0.0,0.0,0.0,0.0,0.0,0.0,0.0,0.0,0.0,0.0,0.0,0.0,0.0,0.0,0.0,0.0,0.0,0.0,0.0,0.0,0.0,0.0,0.0,0.0,0.0,0.0,0.0,0.0,0.0,0.0,0.0,0.0,0.0,0.0,0.0,0.0,0.0,0.0,0.0,0.0,0.0,0.0,0.0,0.0,0.0,0.0,0.0,0.0,0.0,0.0,0.0,0.0,0.0,0.0,0.0,0.0,0.0,0.0,0.0,0.0,0.0,0.0,0.0,0.0,0.0,0.0,0.0,0.0,0.0,0.0,0.0,0.0,0.0,0.0,0.0,0.0,0.0,0.0,0.0,0.0,0.0,0.0,0.0,0.0,0.0,7.8839,8.1315,8.5925,8.6941,8.741,8.741,8.5232,8.2734,7.9844,7.5859,0.0,0.0,0.0,0.0,0.0,0.0,0.0,0.0,0.0,0.0,0.0,0.0,0.0,0.0,0.0,0.0,0.0,0.0,0.0,0.0,0.0,0.0,0.0,0.0,0.0,0.0,0.0,0.0,0.0,0.0,0.0,0.0,0.0,0.0,0.0,0.0,0.0,0.0,0.0,0.0,0.0,0.0,0.0,0.0,0.0,0.0,0.0,0.0,0.0,0.0,0.0,0.0,0.0,0.0,0.0,0.0,0.0,0.0,0.0,0.0,0.0,0.0,0.0,0.0,0.0,0.0,0.0,0.0,0.0,0.0,0.0,0.0,0.0,0.0,0.0,0.0,0.0,0.0,0.0,0.0,0.0,0.0,0.0,0.0,0.0,0.0,0.0,0.0,0.0,0.0,0.0,0.0,0.0,0.0,0.0,0.0,0.0,0.0,0.0,0.0,0.0,0.0,8.0304,8.395,8.6611,8.7002,8.7002,8.7002,8.3409,8.0625,7.9609,7.414,0.0,0.0,0.0,0.0,0.0,0.0,0.0,0.0,0.0,0.0,0.0,0.0,0.0,0.0,0.0,0.0,0.0,0.0,0.0,0.0,0.0,0.0,0.0,0.0,0.0,0.0,0.0,0.0,0.0,0.0,0.0,0.0,0.0,0.0,0.0,0.0,0.0,0.0,0.0,0.0,0.0,0.0,0.0,0.0,0.0,0.0,0.0,0.0,0.0,0.0,0.0,0.0,0.0,0.0,0.0,0.0,0.0,0.0,0.0,0.0,0.0,0.0,0.0,0.0,0.0,0.0,0.0,0.0,0.0,0.0,0.0,0.0,0.0,0.0,0.0,0.0,0.0,0.0,0.0,0.0,0.0,0.0,0.0,0.0,0.0,0.0,0.0,0.0,0.0,0.0,0.0,0.0,0.0,0.0,0.0,0.0,0.0,0.0,0.0,0.0,0.0,0.0,7.9481,8.3003,0.0,8.7015,8.7015,8.7015,8.4591,8.1863,7.8905,0.0,0.0,0.0,0.0,0.0,0.0,0.0,0.0,0.0,0.0,0.0,0.0,0.0,0.0,0.0,0.0,0.0,0.0,0.0,0.0,0.0,0.0,0.0,0.0,0.0,0.0,0.0,0.0,0.0,0.0,0.0,0.0,0.0,0.0,0.0,0.0,0.0,0.0,0.0,0.0,0.0,0.0,0.0,0.0,0.0,0.0,0.0,0.0,0.0,0.0,0.0,0.0,0.0,0.0,0.0,0.0,0.0,0.0,0.0,0.0,0.0,0.0,0.0,0.0,0.0,0.0,0.0,0.0,0.0,0.0,0.0,0.0,0.0,0.0,0.0,0.0,0.0,0.0,0.0,0.0,0.0,0.0,0.0,0.0,0.0,0.0,0.0,0.0,0.0,0.0,0.0,0.0,0.0,0.0,0.0,0.0,0.0,0.0,0.0,0.0,0.0,0.0,7.6106,7.9781,8.3724,0.0,8.8737,8.9127,8.9669,8.7654,8.444,7.966,0.0,0.0,0.0,0.0,0.0,0.0,0.0,0.0,0.0,0.0,0.0,0.0,0.0,0.0,0.0,0.0,0.0,0.0,0.0,0.0,0.0,0.0,0.0,0.0,0.0,0.0,0.0,0.0,0.0,0.0,0.0,0.0,0.0,0.0,0.0,0.0,0.0,0.0,0.0,0.0,0.0,0.0,0.0,0.0,0.0,0.0,0.0,0.0,0.0,0.0,0.0,0.0,0.0,0.0,0.0,0.0,0.0,0.0,0.0,0.0,0.0,0.0,0.0,0.0,0.0,0.0,0.0,0.0,0.0,0.0,0.0,0.0,0.0,0.0,0.0,0.0,0.0,0.0,0.0,0.0,0.0,0.0,0.0,0.0,0.0,0.0,0.0,0.0,0.0,0.0,0.0,0.0,0.0,0.0,0.0,0.0,0.0,0.0,0.0,0.0,0.0,0.0,7.6287,8.17,8.7032,9.1364,9.2524,9.3762,9.5394,9.2514,8.8088,0.0,0.0,0.0,0.0,0.0,0.0,0.0,0.0,0.0,0.0,0.0,0.0,0.0,0.0,0.0,0.0,0.0,0.0,0.0,0.0,0.0,0.0,0.0,0.0,0.0,0.0,0.0,0.0,0.0,0.0,0.0,0.0,0.0,0.0,0.0,0.0,0.0,0.0,0.0,0.0,0.0,0.0,0.0,0.0,0.0,0.0,0.0,0.0,0.0,0.0,0.0,0.0,0.0,0.0,0.0,0.0,0.0,0.0,0.0,0.0,0.0,0.0,0.0,0.0,0.0,0.0,0.0,0.0,0.0,0.0,0.0,0.0,0.0,0.0,0.0,0.0,0.0,0.0,0.0,0.0,0.0,0.0,0.0,0.0,0.0,0.0,0.0,0.0,0.0,0.0,0.0,0.0,0.0,0.0,0.0,0.0,0.0,0.0,0.0,0.0,0.0,0.0,0.0,8.0543,8.7657,9.3688,9.6702,9.6779,9.6779,9.7325,9.4223,8.9255,8.2187,0.0,0.0,0.0,0.0,0.0,0.0,0.0,0.0,0.0,0.0,0.0,0.0,0.0,0.0,0.0,0.0,0.0,0.0,0.0,0.0,0.0,0.0,0.0,0.0,0.0,0.0,0.0,0.0,0.0,0.0,0.0,0.0,0.0,0.0,0.0,0.0,0.0,0.0,0.0,0.0,0.0,0.0,0.0,0.0,0.0,0.0,0.0,0.0,0.0,0.0,0.0,0.0,0.0,0.0,0.0,0.0,0.0,0.0,0.0,0.0,0.0,0.0,0.0,0.0,0.0,0.0,0.0,0.0,0.0,0.0,0.0,0.0,0.0,0.0,0.0,0.0,0.0,0.0,0.0,0.0,0.0,0.0,0.0,0.0,0.0,0.0,0.0,0.0,0.0,0.0,0.0,0.0,0.0,0.0,0.0,0.0,0.0,0.0,0.0,0.0,0.0,0.0,8.24,9.052,9.7557,10.1417,10.1421,10.1498,10.2585,9.9796,9.4367,8.5821,0.0,0.0,0.0,0.0,0.0,0.0,0.0,0.0,0.0,0.0,0.0,0.0,0.0,0.0,0.0,0.0,0.0,0.0,0.0,0.0,0.0,0.0,0.0,0.0,0.0,0.0,0.0,0.0,0.0,0.0,0.0,0.0,0.0,0.0,0.0,0.0,0.0,0.0,0.0,0.0,0.0,0.0,0.0,0.0,0.0,0.0,0.0,0.0,0.0,0.0,0.0,0.0,0.0,0.0,0.0,0.0,0.0,0.0,0.0,0.0,0.0,0.0,0.0,0.0,0.0,0.0,0.0,0.0,0.0,0.0,0.0,0.0,0.0,0.0,0.0,0.0,0.0,0.0,0.0,0.0,0.0,0.0,0.0,0.0,0.0,0.0,0.0,0.0,0.0,0.0,0.0,0.0,0.0,0.0,0.0,0.0,0.0,0.0,0.0,0.0,0.0,0.0,8.3093,9.199,10.011,10.5831,10.6372,10.73,10.9703,10.7378,10.1719,9.1789,0.0,0.0,0.0,0.0,0.0,0.0,0.0,0.0,0.0,0.0,0.0,0.0,0.0,0.0,0.0,0.0,0.0,0.0,0.0,0.0,0.0,0.0,0.0,0.0,0.0,0.0,0.0,0.0,0.0,0.0,0.0,0.0,0.0,0.0,0.0,0.0,0.0,0.0,0.0,0.0,0.0,0.0,0.0,0.0,0.0,0.0,0.0,0.0,0.0,0.0,0.0,0.0,0.0,0.0,0.0,0.0,0.0,0.0,0.0,0.0,8.1016,0.0,0.0,0.0,0.0,0.0,0.0,0.0,0.0,0.0,0.0,0.0,0.0,0.0,0.0,0.0,0.0,0.0,0.0,0.0,0.0,0.0,0.0,0.0,0.0,0.0,0.0,0.0,0.0,0.0,0.0,0.0,0.0,0.0,0.0,0.0,0.0,0.0,0.0,0.0,0.0,0.0,8.8276,9.9336,10.8078,11.1409,11.1714,11.1869,11.2411,10.9626,10.4206,9.5998,9.0204,0.0,0.0,0.0,0.0,0.0,0.0,0.0,0.0,0.0,0.0,0.0,0.0,0.0,0.0,0.0,0.0,0.0,0.0,0.0,0.0,0.0,0.0,0.0,0.0,0.0,0.0,0.0,0.0,0.0,0.0,0.0,0.0,0.0,0.0,0.0,0.0,0.0,0.0,0.0,0.0,0.0,0.0,0.0,0.0,0.0,0.0,0.0,0.0,0.0,0.0,0.0,0.0,0.0,0.0,0.0,0.0,0.0,0.0,0.0,0.0,8.2712,0.0,0.0,0.0,0.0,0.0,0.0,0.0,0.0,0.0,0.0,0.0,0.0,0.0,0.0,0.0,0.0,0.0,0.0,0.0,0.0,0.0,0.0,0.0,0.0,0.0,0.0,0.0,0.0,0.0,0.0,0.0,0.0,0.0,0.0,0.0,0.0,0.0,0.0,0.0,0.0,8.982,10.158,11.0631,11.373,11.3881,11.4113,11.4499,11.1792,10.7533,10.1498,9.4753,0.0,0.0,0.0,0.0,0.0,0.0,0.0,0.0,0.0,0.0,0.0,0.0,0.0,0.0,0.0,0.0,0.0,0.0,0.0,0.0,0.0,0.0,0.0,0.0,0.0,0.0,0.0,0.0,0.0,0.0,0.0,0.0,0.0,0.0,0.0,0.0,0.0,0.0,0.0,0.0,0.0,0.0,0.0,0.0,0.0,0.0,0.0,0.0,0.0,0.0,0.0,0.0,0.0,9.3706,9.5249,9.6716,9.9635,10.0327,9.8937,9.4869,9.0329,8.579,0.0,0.0,0.0,0.0,0.0,0.0,0.0,0.0,0.0,0.0,0.0,0.0,0.0,0.0,0.0,0.0,0.0,0.0,0.0,0.0,0.0,0.0,0.0,0.0,0.0,9.3164,9.2981,0.0,0.0,0.0,0.0,0.0,0.0,0.0,0.0,0.0,0.0,0.0,0.0,9.0749,10.2199,11.1091,11.4267,11.4886,11.5273,11.6124,11.3876,11.0782,10.6832,9.9619,9.2981,0.0,0.0,0.0,0.0,0.0,0.0,0.0,0.0,0.0,0.0,0.0,0.0,0.0,0.0,0.0,0.0,0.0,0.0,0.0,0.0,0.0,0.0,0.0,0.0,0.0,0.0,0.0,0.0,0.0,0.0,0.0,0.0,7.9477,7.7249,0.0,0.0,0.0,0.0,0.0,0.0,0.0,0.0,0.0,0.0,0.0,0.0,0.0,0.0,9.2638,9.7091,9.9471,9.9861,10.5174,10.7795,10.8103,10.9329,11.0093,11.0478,11.0637,0.0,9.4629,9.4475,0.0,0.0,0.0,0.0,0.0,0.0,0.0,0.0,0.0,0.0,0.0,0.0,0.0,0.0,0.0,0.0,0.0,0.0,0.0,0.0,0.0,0.0,9.9545,9.9823,10.0277,10.023,0.0,9.1395,8.3508,7.8873,7.7623,0.0,0.0,0.0,0.0,0.0,0.0,0.0,9.4156,10.467,11.2484,11.4422,11.5969,11.6893,11.6971,11.5273,11.3107,11.0318,10.3587,9.7777,9.3427,8.5841,0.0,0.0,0.0,0.0,0.0,0.0,0.0,0.0,0.0,0.0,0.0,0.0,0.0,0.0,0.0,0.0,0.0,0.0,0.0,0.0,0.0,0.0,0.0,0.0,0.0,0.0,0.0,0.0,0.0,7.9788,8.1173,7.7711,8.1093,8.155,0.0,0.0,0.0,0.0,0.0,0.0,0.0,0.0,0.0,9.4951,9.5485,9.8019,10.2871,10.5174,10.7328,10.9175,11.1791,11.3797,11.5176,11.5099,11.5709,11.7023,11.6869,11.3632,10.8016,10.2712,9.7254,9.195,0.0,0.0,0.0,0.0,8.694,8.7555,9.2095,9.3403,0.0,9.5018,0.0,0.0,0.0,0.0,0.0,0.0,0.0,0.0,0.0,0.0,10.3207,10.6916,10.783,10.7763,10.7894,10.2968,9.643,0.0,8.5697,8.2164,7.5975,0.0,0.0,0.0,0.0,9.276,9.6474,10.6221,11.3184,11.4499,11.6201,11.7203,11.7203,11.6506,11.4964,11.2411,10.7614,10.351,10.0168,9.2665,8.6661,0.0,0.0,0.0,0.0,0.0,0.0,0.0,0.0,0.0,0.0,0.0,0.0,0.0,0.0,0.0,0.0,0.0,0.0,0.0,0.0,0.0,0.0,0.0,0.0,0.0,0.0,0.0,0.0,8.2408,8.4251,7.9788,8.4093,8.4939,0.0,0.0,0.0,0.0,0.0,0.0,9.056,9.2253,9.6254,10.2794,10.341,10.641,11.2104,11.2412,11.3797,11.6336,11.649,11.7567,11.9408,11.9023,11.9485,12.0562,12.0023,11.91,11.7479,10.9713,10.3179,9.8024,9.5634,9.448,9.4172,9.4864,9.5249,9.6249,10.1866,10.3323,10.2707,10.3179,0.0,9.6249,9.0941,0.0,0.0,0.0,0.0,9.1557,9.9351,10.2992,10.6014,11.1725,11.3016,11.3027,11.3137,11.0793,10.6399,0.0,9.4201,8.9901,8.2857,0.0,0.0,0.0,0.0,9.6241,9.9027,10.7537,11.3571,11.4499,11.6201,11.7203,11.7203,11.6971,11.5965,11.4113,11.1018,10.831,10.6063,9.9719,9.4226,8.9894,0.0,0.0,0.0,0.0,0.0,0.0,0.0,0.0,0.0,0.0,0.0,0.0,0.0,0.0,0.0,0.0,0.0,0.0,0.0,0.0,0.0,0.0,0.0,0.0,0.0,0.0,0.0,0.0,0.0,8.5089,9.0406,0.0,0.0,0.0,0.0,8.9086,9.3321,9.6788,9.9336,10.3328,10.7169,11.0785,11.2483,11.4638,11.7402,11.8171,11.8715,11.8869,11.9715,12.01,12.0337,12.1106,12.1491,12.1491,12.1491,12.0491,11.8715,11.5022,11.1021,10.6867,10.5102,10.3405,10.2015,10.2097,10.2635,10.3717,10.6482,10.6862,10.6785,11.0785,10.6564,9.9721,9.8485,9.4634,0.0,0.0,9.5566,10.0183,10.3871,10.7339,11.0493,11.3335,11.3868,11.3978,11.4008,11.0788,10.6965,0.0,10.1695,9.8334,9.3143,0.0,9.0826,8.982,9.4385,9.9104,10.2508,10.9011,11.3571,11.4499,11.6201,11.7203,11.7203,11.6429,11.5892,11.5815,11.3335,11.1478,11.0472,10.6991,10.1885,9.5239,9.1772,0.0,0.0,0.0,0.0,0.0,0.0,0.0,0.0,0.0,0.0,0.0,0.0,0.0,0.0,0.0,0.0,0.0,0.0,0.0,0.0,0.0,0.0,0.0,0.0,0.0,0.0,0.0,0.0,8.8624,9.6019,0.0,0.0,9.4552,9.5706,9.6403,10.0866,10.4707,10.7328,10.94,11.2016,11.5401,11.6094,11.7407,11.9408,11.9715,12.0183,12.0721,12.1029,12.1106,12.1183,12.2024,12.1793,12.0875,12.2485,12.1639,11.91,11.8869,11.6105,11.1714,11.1098,11.0098,10.9175,10.9708,11.0098,11.056,11.2104,11.2022,11.1329,11.1098,10.8329,10.4405,10.1322,9.9168,9.8014,9.9404,10.1866,10.5097,10.9021,11.1714,11.3797,11.5335,11.5566,11.5808,11.638,11.452,11.2426,11.1537,10.6326,10.0925,9.7446,9.8039,9.7929,9.4841,9.9298,10.3819,10.6226,11.0012,11.2793,11.373,11.5273,11.6434,11.6434,11.6124,11.5428,11.4426,11.287,11.171,11.0782,10.908,10.5989,10.127,9.903,9.1765,0.0,0.0,0.0,0.0,0.0,0.0,0.0,0.0,0.0,0.0,0.0,0.0,0.0,0.0,0.0,0.0,0.0,0.0,0.0,0.0,0.0,0.0,0.0,0.0,0.0,0.0,9.7023,9.4475,10.1712,10.5333,10.1404,10.2476,10.3784,10.4718,10.818,11.1175,11.3478,11.4401,11.6017,11.8638,11.8633,11.9331,12.0716,12.0716,12.1029,12.1568,12.1876,12.2024,12.2106,12.2864,12.2716,12.1716,12.3101,12.2402,12.0485,12.1562,11.9485,11.5715,11.5715,11.5022,11.4099,11.533,11.5484,11.5407,11.5869,11.5561,11.4484,11.2566,11.056,10.8482,10.5631,10.4477,10.4631,10.6097,10.7713,10.9708,11.2791,11.4561,11.5797,11.6413,11.649,11.672,11.7176,11.6468,11.5681,11.5373,11.0184,10.52,10.3271,10.3975,10.3266,9.9019,10.3091,10.6686,10.6918,11.0167,11.2793,11.373,11.5273,11.6274,11.6274,11.4959,11.3881,11.3421,11.0863,10.9467,10.9471,10.7923,10.5603,10.2736,9.8794,9.16,8.1078,0.0,0.0,0.0,0.0,0.0,0.0,0.0,0.0,0.0,0.0,0.0,0.0,0.0,0.0,0.0,0.0,0.0,0.0,0.0,0.0,0.0,0.0,0.0,9.0936,9.8634,10.3717,10.2866,10.741,11.0488,11.0488,10.9021,10.979,11.3868,11.4868,11.6099,11.7786,11.8715,11.9485,12.0331,12.0331,12.0716,12.1568,12.1568,12.1568,12.1722,12.2485,12.2864,12.3018,12.3787,12.4095,12.4024,12.3326,12.2864,12.2787,12.2864,12.1402,11.91,11.9177,11.81,11.672,11.8407,11.8484,11.7786,11.7786,11.7176,11.6413,11.5566,11.3637,11.1632,11.1632,11.1021,11.0488,11.1324,11.2709,11.4176,11.5105,11.5874,11.649,11.649,11.649,11.649,11.649,11.649,11.6336,11.5489,11.3509,11.1709,11.0782,10.9403,10.6914,10.2736,10.5684,0.0,10.498,10.9703,11.3575,11.4422,11.5969,11.6971,11.6971,11.3103,11.1405,11.3107,10.7691,10.5212,10.6922,10.3827,10.1193,9.9483,9.1132,8.5565,8.3093,0.0,0.0,0.0,0.0,0.0,0.0,0.0,0.0,0.0,0.0,0.0,0.0,0.0,0.0,0.0,0.0,0.0,0.0,0.0,0.0,0.0,0.0,9.4326,9.3172,10.0322,10.6323,10.7872,11.3181,11.6869,11.749,11.6561,11.6407,11.7638,11.7869,11.8484,11.9562,11.9792,12.0414,12.1183,12.1183,12.1414,12.1568,12.2177,12.2479,12.2562,12.3408,12.3787,12.3787,12.4716,12.4024,12.2414,12.4024,12.3024,12.0331,12.2095,12.171,12.0023,12.0721,11.9485,11.7484,11.8023,11.7638,11.6874,11.6874,11.672,11.6413,11.5566,11.4791,11.4022,11.2791,11.2637,11.2868,11.2478,11.3637,11.5028,11.5182,11.5874,11.649,11.649,11.649,11.649,11.649,11.649,11.6413,11.6182,11.5168,11.3586,11.0883,11.0187,10.9222,10.6826,10.7963,0.0,10.9931,11.1401,11.2101,11.1018,11.1865,11.2561,11.2561,11.0399,10.9703,11.1405,10.8233,10.6535,10.6999,10.5525,10.4129,10.2968,9.5232,9.09,0.0,0.0,0.0,0.0,0.0,0.0,0.0,0.0,0.0,0.0,0.0,0.0,0.0,0.0,0.0,0.0,0.0,0.0,0.0,0.0,0.0,0.0,9.7278,10.218,10.3072,10.779,11.2093,11.472,11.8721,12.1485,12.2414,12.1716,12.1177,12.1177,12.1177,12.1408,12.187,12.187,12.21,12.2562,12.2562,12.2562,12.2562,12.3095,12.3402,12.3402,12.4172,12.4639,12.4716,12.5486,12.5107,0.0,12.4486,12.3485,12.1331,12.2402,12.187,0.0,0.0,0.0,0.0,0.0,11.6869,11.649,11.649,11.649,11.6413,11.6028,11.5566,11.5105,11.4099,11.3868,11.4022,11.3791,11.4484,11.5412,11.572,11.6105,11.6567,11.7028,11.6797,11.6567,11.7028,11.6797,11.649,11.649,11.589,0.0,11.2334,11.1481,11.0305,10.7994,10.902,11.0124,11.0468,11.2101,11.287,11.2333,11.3025,11.3567,11.4035,11.0786,0.0,0.0,0.0,10.3827,10.2821,10.2195,0.0,0.0,0.0,0.0,0.0,0.0,0.0,0.0,8.9201,8.8118,0.0,0.0,0.0,0.0,0.0,0.0,0.0,0.0,0.0,0.0,0.0,0.0,0.0,0.0,0.0,0.0,10.3479,11.0436,11.6188,11.7783,11.9267,12.1639,12.3332,12.4562,12.5332,12.4639,12.4095,12.4095,12.4095,12.4095,12.4095,0.0,0.0,0.0,0.0,12.4095,12.4095,12.4178,12.4172,12.4332,12.5101,12.5486,12.5563,12.6338,12.6569,12.6492,12.487,12.4095,12.3864,12.3172,12.187,12.0408,12.01,11.9562,11.8792,11.7105,11.649,11.649,11.649,0.0,0.0,11.649,11.6028,11.5412,11.5335,11.4791,11.4407,11.5105,11.5412,11.5566,11.6336,11.6567,11.6792,11.7632,11.7176,11.6874,11.7632,11.71,11.649,11.649,11.6034,11.5333,11.4409,11.2965,11.0863,10.8024,10.9527,11.0514,10.9213,11.232,11.5032,11.5501,0.0,0.0,11.7908,11.2879,11.0399,11.2097,10.5525,10.05,9.8021,9.8098,9.7402,9.5704,9.7174,9.8717,10.0334,10.2585,10.421,10.467,9.3917,9.129,0.0,0.0,0.0,0.0,0.0,0.0,0.0,0.0,0.0,0.0,0.0,0.0,0.0,0.0,0.0,9.8703,10.6096,11.3202,11.8988,12.1135,12.2375,12.3514,12.4486,12.5178,12.5409,12.4639,12.4095,12.4095,12.4095,12.4095,12.4095,12.4095,0.0,12.4095,12.4095,12.4095,12.4095,12.4793,12.5101,12.5178,0.0,0.0,12.6492,12.6569,12.6338,12.5563,12.5332,12.4409,12.3095,12.3018,12.2331,12.1106,11.91,11.8171,11.7863,11.6874,11.649,11.649,11.649,11.649,11.649,11.649,11.6413,11.6105,11.5489,11.5566,0.0,11.5412,11.5797,11.6336,11.6495,11.7023,11.7638,11.7786,11.7715,11.7638,11.7786,11.71,11.649,11.649,11.6435,11.6012,11.5333,11.3813,11.2272,11.108,11.1838,11.2716,11.3209,11.4614,11.511,11.3872,11.404,11.4504,11.5273,11.2411,11.1328,11.303,10.9703,10.6999,10.5065,10.6299,10.6221,10.4601,10.491,10.5529,10.6608,10.7077,10.7691,10.8384,10.4833,10.3204,0.0,0.0,0.0,0.0,0.0,0.0,0.0,0.0,0.0,0.0,0.0,8.4334,0.0,0.0,9.8341,10.4202,11.0808,11.6918,12.1809,12.3888,12.5414,12.6464,12.6717,12.7178,12.8409,12.7409,12.6788,12.7332,12.648,12.6018,12.6018,12.5563,12.5409,12.5409,12.5409,12.5409,12.5409,12.5794,12.6107,12.6107,12.6492,12.6723,12.6723,12.6723,12.6492,12.6024,12.5563,12.487,12.4101,12.3172,12.2633,12.21,12.0408,11.9408,11.8869,11.81,11.7798,11.7715,11.733,11.7176,11.7105,11.6567,11.649,11.6413,11.6028,11.6182,11.6413,11.6028,11.6182,11.6567,11.7023,11.7484,11.8017,11.8869,11.871,11.8638,11.9023,11.8407,11.7798,11.7798,11.7798,11.7738,11.7331,11.6616,11.5375,11.3405,11.338,11.4022,11.5031,11.6209,11.671,11.5883,11.6283,11.6902,11.7671,11.5815,11.4577,11.4577,11.2565,11.11,11.0171,11.0631,11.0631,11.0171,11.0635,11.1022,11.1487,11.1869,11.2101,11.2024,11.1637,11.0477,0.0,0.0,0.0,0.0,0.0,0.0,0.0,0.0,8.278,8.4218,8.6065,8.8712,9.3016,9.7831,10.3405,11.0034,11.5506,12.0336,12.4165,12.6075,12.768,12.9124,12.8795,12.929,13.1481,13.0333,12.9717,13.041,12.9019,12.8172,12.8172,12.7486,12.7184,12.7184,12.7031,12.6871,12.6871,12.68,12.68,12.6871,12.6871,12.6871,12.6871,12.6871,12.68,12.6723,12.6101,12.5717,12.5332,12.3864,12.3326,12.3018,12.2029,12.1337,12.0716,11.9715,11.9177,11.9023,11.8325,11.81,11.7863,11.7176,11.6874,11.6797,11.6797,11.6797,11.6797,11.6797,11.6874,11.7182,11.7869,11.8171,11.8633,12.0023,11.9869,11.9715,12.0177,11.9792,11.9331,11.91,11.91,11.91,11.91,11.91,11.8162,11.5576,11.5221,11.5478,11.6306,11.7566,11.8619,11.89,11.9533,12.0224,12.0921,11.9687,11.8295,11.6666,11.5432,11.4504,11.4272,11.3726,11.3726,11.4431,11.4968,11.5428,11.5583,11.6279,11.6279,11.5583,11.6279,11.5273,7.3944,7.4253,0.0,7.7304,7.9666,8.2634,0.0,0.0,9.0305,9.1108,9.4992,9.8799,10.0813,10.4201,10.8634,11.4187,11.8328,12.1968,12.5303,12.7066,12.8371,12.9395,13.0038,13.0692,13.1596,13.0871,13.041,13.0487,12.9563,12.9102,12.9102,12.9025,12.8871,12.8871,12.8172,12.7788,12.7788,12.7108,12.7108,12.7788,12.7788,12.7788,12.7788,12.7788,12.7409,12.6723,12.7409,12.6788,12.5409,12.5178,12.4716,12.3787,12.2177,12.2024,12.2402,12.0793,11.9715,11.91,11.9023,11.9023,11.8869,11.8792,11.8331,11.7715,11.7715,11.7715,11.7715,11.7715,11.8177,11.8792,11.8869,11.9485,12.01,12.0337,12.0798,12.1106,12.0408,12.0177,12.0029,11.9177,11.91,11.91,11.91,11.91,11.9034,11.8595,11.859,11.8668,11.8898,11.9237,11.9622,12.0593,12.0766,12.0921,12.0998,12.0766,12.0306,11.9296,11.9069,11.8604,11.7908,11.7676,11.7676,11.7831,11.7908,11.8372,11.9069,11.9219,11.9219,11.9069,11.9219,11.7904,7.7576,0.0,0.0,0.0,8.6241,8.8787,9.322,9.5316,9.6678,9.813,10.0475,10.2888,10.4986,10.7414,11.0722,0.0,11.8793,12.1707,12.5367,12.647,12.7637,12.9322,12.9766,13.0679,13.2439,13.2228,13.2186,13.2718,13.1025,13.0025,13.0025,12.9487,12.9173,12.9173,12.8788,12.8711,12.8711,12.8332,12.8332,12.8711,12.8711,12.8711,12.8711,12.8711,12.8486,12.8179,12.848,12.8332,12.7563,12.7101,12.6101,12.4793,12.4107,12.3101,12.2106,12.1337,12.0798,12.0491,12.0029,11.9792,11.9715,11.9331,11.8869,11.8638,11.8638,11.8638,11.8638,11.8638,11.8792,11.9177,11.9715,12.0023,12.0408,12.0875,12.1337,12.1491,12.1106,12.1106,12.1029,12.0568,12.0568,12.0568,12.0568,12.1023,12.11,12.0562,11.9784,11.9218,11.9525,11.9936,12.0763,12.2294,12.2932,12.301,12.2463,12.2468,12.2309,12.1922,12.1922,12.2004,12.2086,12.1617,12.1385,12.1385,12.0379,12.0074,12.0534,11.9915,11.9687,11.9687,11.9687,11.9069,7.9838,0.0,0.0,8.9795,9.2749,9.5273,9.9734,10.102,10.1806,10.3667,10.4616,10.5795,10.847,11.0105,0.0,11.7311,11.9933,12.2396,12.5591,12.6407,12.702,12.7795,12.848,12.9492,13.1286,13.2231,13.3016,13.3859,13.2025,13.0794,13.0794,13.0179,12.9871,12.9871,12.9717,12.9563,12.9563,12.9326,12.9326,12.9563,12.9563,12.9563,12.9563,12.9326,12.9173,12.9173,12.9173,12.9173,12.9102,12.7788,12.664,12.5723,12.5024,12.3562,12.2029,12.2183,12.2029,12.1491,12.0875,12.0721,12.0568,12.0029,11.9562,11.9408,11.9408,11.9408,11.9408,11.9408,11.9562,11.9869,12.0491,12.0793,12.1177,12.1793,12.2337,12.2568,12.2331,12.2491,12.2491,12.2024,12.2106,12.2177,12.2029,12.2716,12.303,12.2378,12.1386,12.0511,12.0322,12.1014,12.2078,12.3696,12.4402,12.4484,12.3938,12.3938,12.3938,12.3938,12.4088,12.4402,12.4794,12.4402,12.4088,12.3938,12.27,12.1926,12.1694,12.1075,12.0611,12.0379,12.0379,12.0379,0.0,0.0,9.0953,9.4379,9.8252,10.1885,10.4393,10.4997,10.5526,10.7133,10.7504,10.847,11.1813,11.3076,11.5018,11.92,12.2533,12.4986,12.5877,12.7318,12.7108,12.4013,12.5565,12.6971,0.0,13.0127,13.2187,13.2994,13.2186,13.1724,13.1724,13.1564,13.1564,13.1564,13.0878,13.0493,13.0493,12.9563,12.964,13.0493,13.0493,13.0493,13.041,12.9563,12.9173,12.9173,12.9173,12.9173,12.9025,12.6486,12.587,12.6415,12.387,12.2864,12.3018,12.371,12.3024,12.1568,12.1568,12.1574,12.1574,12.1491,12.1029,12.0337,12.0337,12.0337,12.0337,12.0337,12.0875,12.1491,12.1574,12.2177,12.2787,12.2864,12.4101,12.5107,12.4178,12.4716,12.4793,12.3178,12.3479,12.3793,12.3018,12.3479,12.4065,12.4187,12.421,12.3561,12.1984,12.2802,12.3778,12.4716,12.4794,12.4794,12.4794,12.4794,12.4794,12.4794,12.5567,12.5722,12.4794,12.5567,12.5567,12.4794,12.4716,12.433,12.3392,12.3392,12.3005,12.2236,12.2236,12.2236,0.0,0.0,9.414,9.9035,10.2898,10.6093,10.8024,10.9287,10.9882,10.9362,10.7133,10.5498,10.6696,10.7133,10.8767,11.3373,11.7396,12.1111,12.4688,12.5717,12.542,12.3681,12.4678,0.0,0.0,0.0,0.0,13.2865,13.2186,13.1724,13.1724,13.1724,13.1724,13.1724,13.141,13.1339,13.1339,13.1025,13.1025,13.1339,13.1339,13.1339,13.1339,13.1025,13.0871,13.0871,13.0871,13.0871,13.0794,12.9871,12.9102,12.8332,12.7409,12.6018,12.4562,12.487,12.4178,12.3178,12.2639,12.2485,12.2408,12.1799,12.1793,12.187,12.1337,12.1562,12.2018,12.2018,12.2639,12.3332,12.3332,12.3485,12.371,12.371,12.4095,12.4486,12.4178,12.4326,12.4409,12.3787,12.3864,12.4018,12.371,12.4409,12.4965,12.5007,12.4684,12.4288,12.3792,12.4487,12.5175,12.5635,12.6723,12.6878,12.58,12.6186,12.6491,12.6491,12.6264,12.6496,12.7265,12.6491,12.6032,12.5722,12.5103,12.4716,12.4402,12.4402,12.417,12.3861,12.3396,12.3082,0.0,9.4511,9.8152,10.3864,10.691,10.8916,11.0625,11.1506,11.1813,11.0699,10.6622,10.3279,10.3873,10.261,10.3195,10.899,11.3363,11.798,12.3574,12.4317,12.3871,12.2831,12.2802,12.2781,0.0,0.0,0.0,13.113,13.0809,13.0665,13.1332,13.1262,13.1433,13.1718,13.2032,13.2186,13.2186,13.2186,13.2032,13.1724,13.1724,13.1724,13.1724,13.1724,13.1724,13.1724,13.1416,13.141,13.1564,13.0718,13.0102,12.9563,12.8717,12.7486,12.6332,12.6024,12.5332,12.4409,12.3633,12.3326,12.3172,12.2716,12.287,12.3172,12.2716,12.287,12.3326,12.3326,12.371,12.4095,12.4095,12.4326,12.4562,12.4562,12.4793,12.5024,12.5024,12.5024,12.487,12.4639,12.4793,12.487,12.4639,12.5794,12.6794,12.6794,12.6695,12.6222,12.5113,12.5512,12.613,12.6509,12.7782,12.8193,12.711,12.7806,12.827,12.827,12.7806,12.7884,12.8962,12.827,12.7574,12.7033,12.6723,12.6182,12.5335,12.5335,12.5103,12.4794,12.417,12.3778,9.4437,9.882,10.3195,10.8693,11.0105,11.0625,11.2026,11.1813,11.1219,11.107,10.5805,10.1635,0.0,0.0,9.896,10.6315,11.107,11.6122,12.2608,12.3488,12.2979,0.0,0.0,0.0,0.0,0.0,0.0,12.7829,0.0,12.8989,13.0613,13.0719,13.0998,13.1705,13.2493,13.3032,13.2878,13.2878,13.2493,13.1801,13.1724,13.1724,13.1724,13.1724,13.1724,13.1724,13.0871,13.1032,13.1487,12.9096,12.9102,13.0333,12.7877,12.7332,12.7865,12.7108,12.6184,12.5332,12.4486,12.4172,12.4178,12.4095,12.4095,12.4178,12.4095,12.4095,12.4178,12.4178,12.4172,12.4172,12.4172,12.4793,12.5492,12.5492,12.6107,12.6723,12.6723,12.6723,12.6492,12.5717,12.6338,12.6569,12.5876,12.7717,12.9326,12.9326,13.0025,12.9382,12.6196,12.6029,12.6398,12.7181,12.8123,12.8725,12.873,12.9426,12.989,12.989,12.9813,12.9813,12.9813,13.0591,13.0287,12.8575,12.9426,12.8575,12.6182,12.6186,12.5722,12.4871,12.4871,12.4402,9.948,10.431,10.8099,10.9,11.0634,11.1665,11.0922,11.0634,10.9882,10.8024,10.1495,9.6591,0.0,0.0,0.0,10.4681,11.1813,0.0,12.282,12.4094,0.0,0.0,0.0,12.212,12.1183,12.2468,0.0,0.0,12.7671,12.966,13.1266,13.1433,13.1499,13.1718,13.2493,13.2724,13.2032,13.2032,13.2186,13.2724,13.2032,13.1724,13.1724,13.1724,13.1724,13.1724,13.1493,13.1487,13.1564,13.1025,13.1025,13.1339,13.0025,12.9333,12.8788,12.7865,12.7101,12.6338,12.6107,12.5563,12.5024,12.4332,12.4486,12.487,12.4332,12.4562,12.5101,12.5101,12.5486,12.6024,12.6024,12.6184,12.6415,12.6415,12.6492,12.6723,12.6723,12.6723,12.68,12.7172,12.8486,12.9724,13.0025,13.0564,13.1102,13.1102,13.1339,13.0691,12.8739,12.85,12.8686,12.9014,12.9293,12.9495,12.9576,12.9194,12.9194,12.989,12.873,12.8265,12.8884,12.9116,12.9121,12.8575,12.8807,12.8575,12.8038,12.7419,12.7037,12.6723,12.6109,12.5563,10.3195,10.6613,10.9213,11.0179,11.0996,11.0773,10.848,10.7737,10.6167,10.1932,9.5626,0.0,0.0,0.0,0.0,0.0,0.0,0.0,12.2077,12.402,12.4614,0.0,12.3722,0.0,12.2236,12.3323,12.4524,0.0,12.7318,12.8963,13.0626,13.0971,13.1463,13.2173,13.3109,13.3333,13.2795,13.2795,13.2718,13.2417,13.1872,13.1724,13.1724,13.1724,13.1724,13.1724,0.0,13.1724,13.1724,13.1724,13.1724,13.1564,13.0794,13.041,13.0102,12.8865,12.8409,12.8339,12.7486,12.6871,12.6409,12.5486,12.5563,12.5876,12.5409,12.5563,12.603,12.603,12.6563,12.7178,12.7178,12.7486,12.7794,12.7794,12.7794,12.7794,12.7794,12.7794,12.7871,12.8403,12.9871,13.1339,13.2109,13.2878,13.318,13.2872,13.3103,13.2673,13.0663,13.0101,12.9805,12.9634,12.9976,13.0138,12.9814,13.0097,13.0204,12.989,12.8962,12.873,12.9194,12.9503,12.9431,12.8575,12.9431,12.9199,12.8116,12.8038,12.7884,12.7884,12.7419,12.7033,10.6315,10.8024,10.9278,11.1888,11.1516,10.9436,10.5573,10.4012,10.1495,9.5031,0.0,8.7378,9.0276,8.8493,9.0276,10.1709,0.0,11.3596,12.1419,12.3797,12.4911,12.506,12.4391,12.3871,12.402,12.4618,12.5581,12.7206,12.7392,12.8115,12.9581,13.0295,13.1374,13.3133,13.3838,13.4332,13.4635,13.4334,13.341,13.2025,13.1872,13.1878,13.1878,13.2032,13.2025,13.2025,13.1872,13.1878,13.1878,13.1718,13.1724,13.1564,13.0794,13.0871,13.1416,12.9794,12.9717,13.0102,12.848,12.8095,12.8095,12.7025,12.68,12.6877,12.6877,12.6877,12.7031,12.7031,12.7486,12.8095,12.8095,12.8711,12.941,12.941,12.9487,12.9487,12.9487,12.9711,12.9865,13.0179,13.1487,13.2801,13.3725,13.5026,13.5795,13.5103,13.5488,13.5026,13.2724,13.1587,13.0813,12.9977,13.0714,13.1007,13.0421,13.1675,13.1891,13.0509,13.0277,13.0199,13.0122,13.0901,13.0591,12.8967,13.0359,13.0132,12.7884,12.858,12.8884,12.8807,12.8884,12.8502,11.0689,11.2992,11.4414,11.2928,11.2333,11.0318,10.3715,10.0975,0.0,0.0,0.0,8.642,9.1621,9.2067,0.0,10.6102,0.0,0.0,0.0,0.0,12.5283,0.0,0.0,0.0,0.0,0.0,0.0,0.0,0.0,12.9612,13.0397,13.0632,13.1811,13.4106,13.3578,13.4295,13.6334,13.4263,13.341,13.3795,13.3109,13.2801,13.2801,13.3487,13.3795,13.3795,13.3109,0.0,13.2724,13.2032,13.1724,13.1564,13.0794,13.0564,13.0564,12.9563,12.9333,12.9333,12.8326,12.8788,12.9717,12.7415,12.7101,12.7711,12.7711,12.8172,12.8794,12.8794,12.8871,12.9019,12.9019,12.9563,13.0333,13.0333,13.0794,13.1339,13.1339,13.241,13.3795,13.518,13.6264,13.7187,13.8104,13.8405,13.8635,13.8482,13.8027,13.7187,13.611,13.4584,13.341,13.2597,13.2722,13.3066,13.3881,13.291,13.2504,13.2979,13.2371,13.1674,13.0983,13.1834,13.1834,13.0828,13.0983,13.0983,13.0519,13.0674,13.0437,12.9735,13.0437,13.0282,11.2482,11.3968,11.4785,11.3968,11.2482,10.9064,10.0818,0.0,0.0,0.0,0.0,8.3076,8.7163,0.0,0.0,0.0,0.0,0.0,0.0,0.0,0.0,0.0,0.0,0.0,0.0,0.0,0.0,0.0,0.0,12.9536,13.0681,13.189,13.3321,13.489,13.4988,13.5359,13.6103,13.4872,13.4334,13.4327,13.3872,13.3718,13.3718,13.4103,13.4327,13.4334,13.3872,13.3718,13.3564,13.318,13.2795,13.234,13.2032,13.1487,13.1102,13.0718,13.0794,13.1109,13.0179,13.0718,13.1493,12.9416,12.8871,12.9173,12.8711,12.8865,12.9173,12.9173,13.0179,13.1102,13.0564,13.2102,13.3725,13.318,13.3718,13.4417,13.4417,13.5026,13.5795,13.6565,13.8181,13.9488,13.9866,14.0412,14.0489,14.002,13.9335,13.8334,13.7033,13.6873,13.6123,13.4038,13.3799,13.389,13.4009,13.3671,13.3379,13.2974,13.2727,13.2066,13.1215,13.1602,13.1365,13.0514,13.0983,13.0983,13.0514,13.0983,13.1215,13.1288,13.1679,13.1906,11.3894,11.4711,11.4711,11.5082,11.2928,10.8099,9.8515,9.5105,0.0,0.0,7.8766,8.0104,8.2927,0.0,0.0,0.0,0.0,0.0,0.0,0.0,0.0,0.0,0.0,0.0,0.0,0.0,0.0,0.0,0.0,0.0,13.0778,13.3099,13.4677,13.5281,13.6329,13.6537,13.5832,13.5807,13.5411,13.4564,13.4564,13.4564,13.4564,13.4795,13.4718,13.4481,13.4411,0.0,13.4026,13.3795,13.3333,13.2724,13.2724,13.2263,13.1724,13.1878,13.2417,13.2878,13.2186,13.2724,13.3263,13.157,13.0871,13.0564,12.9871,12.9871,13.0102,13.0173,13.1872,13.3417,13.2718,13.4802,13.6873,13.6411,13.6796,13.7411,13.7572,13.7488,13.7411,13.7796,13.9488,14.0873,14.0873,14.172,14.2104,14.1335,14.0412,13.9405,13.8334,13.8796,13.8405,13.5872,13.543,13.489,13.4073,13.4561,13.4383,13.2893,13.3061,13.2814,13.1834,13.1912,13.1597,13.0664,13.1365,13.1597,13.1283,13.2061,13.2917,13.3614,13.3768,13.3995,11.6271,11.7598,11.6929,11.6271,11.4191,10.9287,9.8069,0.0,0.0,8.0334,7.8327,7.9591,8.3596,0.0,0.0,0.0,0.0,0.0,0.0,0.0,0.0,0.0,0.0,0.0,0.0,0.0,0.0,0.0,0.0,0.0,13.0983,13.31,13.4509,13.4572,13.6073,13.6805,13.6706,13.6678,13.618,13.5411,13.5411,13.5411,13.5411,13.618,13.6103,13.5334,13.4564,0.0,0.0,13.234,13.1872,13.1801,13.1801,13.1801,13.1801,13.257,13.2878,13.3032,13.2878,13.3878,13.5026,13.3263,13.2186,13.157,13.1487,13.2032,13.2801,13.3564,13.4487,13.5334,13.518,13.6571,13.811,13.8789,13.902,13.9328,14.0104,13.9636,13.9482,14.1104,14.1566,14.1803,14.1803,14.3105,14.3874,14.3034,14.2188,14.188,14.2412,14.0566,13.9482,14.0027,13.8732,13.749,13.6686,13.6024,13.5291,13.4593,13.531,13.5127,13.3526,13.4222,13.4222,13.3376,13.3376,13.4222,13.5692,13.6471,13.7018,13.7095,13.7869,13.7394,11.5305,11.7598,11.7895,11.7078,11.5082,11.0402,9.9415,0.0,9.0953,8.107,7.8989,7.9516,8.1144,8.1961,0.0,0.0,0.0,0.0,0.0,0.0,0.0,0.0,0.0,0.0,0.0,0.0,0.0,0.0,0.0,0.0,13.2365,13.4117,13.5386,13.5932,13.6121,13.6366,13.6872,13.63,13.6098,13.6321,13.6321,13.6334,13.6334,13.6565,13.6565,13.6334,13.5872,13.5565,0.0,13.4879,13.418,13.3333,13.3333,13.2564,13.1801,13.2724,13.334,13.3878,13.4334,13.5334,13.6103,13.4872,13.434,13.3872,13.341,13.3487,13.4026,13.4795,13.5565,13.6334,13.6334,13.7488,13.9027,13.9873,14.0104,14.0181,14.0489,14.0719,14.1104,14.1803,14.3105,14.4182,14.4182,14.472,14.5105,14.472,14.3874,14.3489,14.3797,14.3021,14.2328,14.2104,14.0104,13.8662,13.8407,13.8106,13.7923,13.7807,13.7727,13.743,13.6775,13.6079,13.5615,13.5305,13.5305,13.5615,13.6311,13.709,13.7791,13.8328,13.8637,13.8405,11.4414,11.7608,11.8564,11.85,11.5379,10.9882,0.0,9.5551,9.0276,8.1664,7.9881,7.9955,8.0178,8.0401,8.1218,0.0,0.0,8.8723,0.0,0.0,0.0,0.0,0.0,0.0,0.0,0.0,0.0,0.0,0.0,0.0,13.4,13.5286,13.6089,13.619,13.642,13.6667,13.7329,13.6864,13.6928,13.7227,13.6908,13.6802,13.6802,13.6802,13.6725,13.6411,13.6411,13.6334,0.0,13.5802,13.5033,13.3872,13.3872,13.318,13.2186,13.334,13.434,13.518,13.6026,13.6796,13.7411,13.6488,13.6411,13.6488,13.5719,13.5103,13.4789,13.5719,13.6488,13.7418,13.811,13.9027,13.9866,14.0796,14.1027,14.1027,14.1027,14.1496,14.2034,14.2188,14.3874,14.5336,14.5336,14.572,14.6028,14.572,14.5182,14.4874,14.5098,14.4713,14.4336,14.3874,14.2021,14.0405,13.9405,13.9575,13.946,13.8601,13.8798,13.8611,13.7965,13.7378,13.693,13.6703,13.693,13.7162,13.7394,13.8328,13.9101,13.9875,13.9875,13.9798,11.4265,11.798,11.902,12.0591,11.5028,10.743,0.0,9.4585,8.7683,8.1887,8.0698,8.0921,8.182,8.263,8.3448,8.4265,0.0,0.0,0.0,0.0,0.0,0.0,0.0,0.0,0.0,0.0,0.0,0.0,0.0,0.0,13.5674,13.6503,13.6218,13.4595,13.6931,13.8207,13.8191,13.8935,13.8866,13.8104,13.718,13.6802,13.6802,13.6802,13.6334,13.5488,13.5488,13.5103,0.0,13.3417,13.3032,13.3032,13.3032,13.3032,13.3186,13.4872,13.6026,13.6873,13.7802,13.8565,13.9097,13.8264,13.8565,13.9097,13.8264,13.6879,13.5719,13.6488,13.7418,13.8726,14.1188,14.1181,14.0796,14.172,14.188,14.188,14.188,14.188,14.2104,14.2881,14.3797,14.4406,14.4406,14.5797,14.6567,14.5797,14.572,14.6028,14.6798,14.5406,14.4713,14.5567,14.4874,14.3021,13.9636,14.0104,13.9164,13.5916,13.821,13.8567,13.6221,13.7805,13.841,13.7482,13.8328,13.9179,14.0107,14.0875,14.1809,14.2588,14.2588,14.2119,10.2981,10.6315,10.7578,10.6994,10.4904,10.1421,9.5031,9.1762,8.85,8.2779,8.1597,8.1664,8.1969,8.2192,8.3893,8.8641,9.0499,0.0,0.0,0.0,0.0,0.0,0.0,0.0,0.0,0.0,0.0,0.0,0.0,0.0,13.3965,13.3816,13.4368,13.6169,13.64,13.6968,13.8182,13.7186,13.6867,13.7173,13.6908,13.6802,13.6802,13.6802,13.6565,13.6411,13.6411,13.618,13.6026,13.5725,13.5186,13.4718,13.4718,13.4411,13.4026,13.5103,13.5719,13.6026,13.6873,13.7802,13.8334,13.7495,13.8181,13.9328,13.9027,13.8482,13.8174,13.8405,13.8719,13.9104,13.9866,14.0796,14.1412,14.1104,14.188,14.2573,14.2027,14.2797,14.372,14.3867,14.5105,14.6105,14.6105,14.649,14.6798,14.6567,14.7028,14.7259,14.6875,14.7028,14.6721,14.5797,14.5874,14.5182,14.3021,14.2489,14.2172,14.1772,14.1971,14.2174,14.2236,14.1587,14.1185,14.0964,14.0726,14.0726,14.103,14.1262,14.1494,14.1809,14.1809,14.1577,9.7483,10.1124,10.2601,10.2229,10.0521,9.7706,9.2951,9.0202,8.7452,8.3306,8.2489,8.2489,8.2489,8.2712,8.4265,8.827,0.0,0.0,0.0,0.0,0.0,0.0,0.0,0.0,0.0,0.0,0.0,0.0,0.0,0.0,13.3308,13.3073,13.391,13.6003,13.5488,13.59,13.7275,13.653,13.6329,13.6788,13.6825,13.6802,13.6802,13.6802,13.6802,13.6802,13.6802,13.6802,0.0,13.6411,13.6026,13.5488,13.5488,13.5411,13.5334,13.5795,13.6411,13.7026,13.7187,13.811,13.888,13.8027,13.8873,14.0328,14.0566,14.0489,14.0181,13.9866,14.002,14.0412,14.0719,14.1489,14.2265,14.2104,14.2797,14.3489,14.3028,14.3874,14.4867,14.4867,14.6028,14.7028,14.7336,14.7413,14.7413,14.7413,14.7882,14.7882,14.7028,14.7413,14.7259,14.6336,14.6567,14.649,14.5406,14.4797,14.4377,14.4087,14.4218,14.4322,14.4409,14.374,14.3287,14.298,14.2638,14.2273,14.2273,14.2273,14.2196,14.1809,14.1494,14.1577,0.0,10.0223,10.1709,10.3195,9.9703,9.5403,9.3842,8.9466,0.0,8.3596,8.3299,8.3299,8.3225,8.3819,8.4414,8.4785,0.0,0.0,0.0,0.0,0.0,0.0,0.0,0.0,0.0,0.0,0.0,0.0,0.0,0.0,13.3222,13.3891,13.4323,13.4267,13.4298,13.4812,13.5829,13.6372,13.6732,13.6663,13.6691,13.6666,13.6666,13.6782,13.6802,0.0,13.6802,13.6802,13.6719,13.5872,13.5565,13.5565,13.5719,13.618,13.6879,13.6879,13.7873,13.9097,13.8418,13.9187,14.0412,13.9713,14.0566,14.2104,14.2881,14.2573,14.1797,14.1104,14.1412,14.2188,14.3034,14.3181,14.3496,14.4175,14.4482,14.4636,14.4482,14.5182,14.5797,14.5797,14.6413,14.7182,14.8113,14.8267,14.8267,14.8267,14.8267,14.8036,14.7105,14.7028,14.7028,14.6875,14.6875,14.6875,14.6875,14.6875,14.5874,14.3573,14.5005,14.5316,14.3698,14.4564,14.4697,14.3865,14.3991,14.3904,14.3821,14.3904,14.3439,14.2511,14.1809,14.1887,8.7163,0.0,8.7906,8.8278,8.8278,8.7898,0.0,8.6635,8.6041,0.0,0.0,0.0,0.0,0.0,0.0,0.0,0.0,0.0,0.0,0.0,0.0,0.0,0.0,0.0,0.0,0.0,0.0,0.0,0.0,13.2416,13.2416,13.2565,13.267,13.2689,13.27,13.3624,13.573,13.5183,13.4983,13.4992,13.5638,13.588,13.5895,13.6524,13.6802,13.6802,13.6802,13.6802,13.6802,13.6565,13.6488,13.6571,13.7187,13.7572,13.7802,13.7802,13.8033,13.8418,13.8187,13.8803,13.9789,14.0873,14.2027,14.2881,14.3034,14.3034,14.2874,14.3412,14.3181,14.3028,14.3874,14.4566,14.5028,14.4482,14.5406,14.6105,14.5483,14.6028,14.6567,14.6567,14.7259,14.8036,14.819,14.8798,14.9175,14.9175,14.9175,14.8875,14.8029,14.7882,14.7567,14.7028,14.6875,14.6875,14.6875,14.6875,14.6875,14.7035,14.6833,14.6825,14.7172,14.6236,14.5671,14.5719,14.5229,14.4207,14.2898,14.3594,14.3124,14.1732,14.2119,14.2434,8.315,8.4042,8.4934,8.538,8.6346,8.7007,8.5743,0.0,0.0,0.0,0.0,0.0,0.0,0.0,0.0,0.0,0.0,0.0,0.0,0.0,0.0,0.0,0.0,0.0,0.0,0.0,0.0,0.0,0.0,13.2119,13.2119,13.2119,13.2119,13.2119,13.2119,13.271,13.4025,13.3884,13.3929,13.3864,13.5084,13.5573,13.5588,13.6378,13.6802,13.6802,13.6802,13.6802,13.6802,13.6802,13.7026,13.7418,13.7495,13.8187,13.9187,13.8418,13.8572,13.9187,13.8796,13.9181,14.0097,14.1496,14.272,14.372,14.372,14.4182,14.4797,14.4482,14.4566,14.4874,14.5028,14.5567,14.6105,14.572,14.6028,14.6413,14.6798,14.6875,14.7105,14.7868,14.849,14.8798,14.8798,14.949,14.9868,14.956,14.9483,14.9175,14.8259,14.7882,14.7413,14.7028,14.6875,14.6875,14.6875,14.7259,14.749,14.7567,14.749,14.7609,14.7686,14.6907,14.6379,14.6331,14.6331,14.5389,14.3826,14.4672,14.4207,14.2583,14.2975,14.2975,8.2489,8.4711,8.7081,8.7312,8.8278,8.8649,8.6858,0.0,0.0,0.0,0.0,0.0,0.0,0.0,0.0,0.0,0.0,0.0,0.0,0.0,0.0,0.0,0.0,0.0,0.0,0.0,0.0,0.0,0.0,13.2119,13.2119,13.2119,13.2119,13.2119,13.2119,13.2119,13.2119,13.2786,13.3174,13.332,13.4697,13.547,13.5588,13.6378,13.6802,13.6802,0.0,0.0,13.6802,13.6802,13.7264,13.8033,13.7411,13.8565,14.0412,13.9034,13.9418,14.0489,13.9796,14.0104,14.0873,14.1797,14.3105,14.4406,14.4559,14.5797,14.6798,14.5175,14.5797,14.6721,14.6105,14.649,14.7105,14.6875,14.649,14.6413,14.7728,14.7413,14.7336,14.8791,14.9175,14.9329,14.9329,15.0029,15.0329,14.9791,14.956,14.9175,14.849,14.7567,14.7028,14.6875,14.6875,14.6875,14.6875,14.7798,14.8029,14.7028,14.7721,14.7805,14.6875,14.702,14.6899,14.6431,14.7098,14.6789,14.5417,14.613,14.5677,14.4136,14.4136,14.3594,8.4711,8.642,8.7237,8.4636,8.6123,8.7683,0.0,0.0,0.0,0.0,0.0,0.0,0.0,0.0,0.0,0.0,0.0,0.0,0.0,0.0,0.0,0.0,0.0,0.0,0.0,0.0,0.0,0.0,0.0,13.2119,13.2119,13.2119,13.2119,13.2119,13.2119,13.2119,13.2119,13.2184,13.2598,13.332,13.4226,13.4914,13.5588,13.6378,13.6802,13.6802,0.0,13.6802,13.6802,13.6802,13.7264,13.8194,13.8719,13.9636,14.0566,14.0335,14.0412,14.0566,14.0405,14.1027,14.1797,14.2727,14.3566,14.4482,14.5336,14.6721,14.7805,14.6798,14.6721,14.6875,14.6721,14.7413,14.7805,14.7105,14.7413,14.7728,14.7182,14.7028,14.7028,14.7182,14.7875,14.8413,14.8413,14.9106,14.9868,15.0406,14.9868,14.9483,14.9329,14.849,14.7721,14.7028,14.6875,14.6875,14.6875,14.8413,14.8567,14.7028,14.7721,14.7805,14.6875,14.702,14.7122,14.7007,14.7315,14.6973,14.6135,14.64,14.5987,14.4981,14.4981,14.4517,8.4116,8.5825,8.746,8.7757,8.8946,8.9533,0.0,0.0,0.0,0.0,0.0,0.0,0.0,0.0,0.0,0.0,0.0,0.0,0.0,0.0,0.0,0.0,0.0,0.0,0.0,0.0,0.0,0.0,0.0,0.0,13.2119,13.2119,13.2119,13.2119,13.2119,13.2119,13.2119,13.2119,13.2277,13.2728,13.341,13.4179,13.5024,13.6263,13.681,13.6802,0.0,13.7187,13.6796,13.7264,13.8033,13.8796,13.9181,13.9789,14.0566,14.0566,14.0873,14.1335,14.1335,14.1797,14.2573,14.3034,14.4028,14.5182,14.5567,14.649,14.7413,14.7028,14.7182,14.749,14.7028,14.7182,14.749,14.7567,14.7182,14.7105,14.8106,14.7567,14.7182,14.8098,14.8567,14.8875,14.8875,14.956,15.0329,15.056,15.0406,15.0099,15.0099,14.9413,14.8721,14.8329,14.7875,14.7567,14.7567,14.8336,14.8721,14.8336,14.7798,14.7259,14.6875,14.7022,14.7014,14.7095,14.7227,14.7207,14.6884,14.7021,14.6621,14.5909,14.5909,14.5368,8.3968,8.538,8.7675,0.0,0.0,0.0,0.0,0.0,0.0,0.0,0.0,0.0,0.0,0.0,0.0,0.0,0.0,0.0,0.0,0.0,0.0,0.0,0.0,0.0,0.0,0.0,0.0,0.0,0.0,0.0,13.2119,13.2119,13.2119,13.2119,13.2119,13.2119,13.2119,13.2119,13.2236,13.2391,13.3197,13.3909,13.4504,13.6326,13.6921,13.6607,13.7589,13.7572,13.6879,13.7495,13.8411,13.9328,13.9328,14.0027,14.0873,14.1104,14.1566,14.2188,14.2412,14.2874,14.3412,14.3566,14.4566,14.572,14.5874,14.6567,14.7182,14.7028,14.749,14.8036,14.7105,14.7105,14.7259,14.7805,14.7105,14.6798,14.8483,14.7798,14.7413,14.8875,14.9175,14.9337,14.9483,15.0022,15.0483,15.0714,15.0714,15.0714,15.0714,15.0176,14.9714,14.9483,14.8875,14.8574,14.8805,14.8567,14.8875,14.9714,14.8413,14.7413,14.7182,14.7028,14.6931,14.7125,14.7081,14.7285,14.7726,14.7632,14.7324,14.7024,14.6898,14.6296,8.6115,8.6635,8.7973,9.2802,0.0,0.0,0.0,0.0,0.0,0.0,0.0,0.0,0.0,0.0,0.0,0.0,0.0,0.0,0.0,0.0,0.0,0.0,0.0,0.0,0.0,0.0,0.0,0.0,0.0,0.0,13.2119,13.2119,13.2119,13.2119,13.2119,13.2119,13.2119,13.2119,13.2504,13.3205,13.4019,13.4427,13.4504,13.6928,13.7193,13.5827,13.7418,13.7572,13.6802,13.6879,13.7796,13.9328,13.9328,14.0328,14.188,14.2566,14.3034,14.3111,14.3867,14.4329,14.4406,14.5182,14.5567,14.5797,14.6567,14.7413,14.7875,14.7105,14.749,14.8036,14.7105,14.749,14.7875,14.7182,14.749,14.7798,14.7182,14.7028,14.7182,14.8113,14.8267,14.8574,14.9406,14.9483,14.9791,15.056,15.0714,15.0714,15.0714,15.056,15.0329,14.956,14.9406,14.9714,15.0491,14.9791,14.9791,15.056,14.9791,14.9029,14.8113,14.7336,14.6882,14.6889,14.7027,14.7494,14.8284,14.7778,14.7894,14.859,14.7935,14.7219,8.5157,8.5677,0.0,0.0,0.0,0.0,0.0,0.0,0.0,0.0,0.0,0.0,0.0,0.0,0.0,0.0,0.0,0.0,0.0,0.0,0.0,0.0,0.0,0.0,0.0,0.0,0.0,0.0,0.0,0.0,13.2119,13.2119,13.2119,13.2119,13.2119,13.2119,13.2119,13.2627,13.2665,13.2595,13.2893,13.3827,13.5211,13.5727,13.602,13.6405,13.7066,13.7473,13.7572,13.7572,13.8565,14.0104,14.0104,14.0796,14.1874,14.2181,14.2727,14.3181,14.4098,14.4797,14.5336,14.5567,14.6028,14.649,14.6798,14.7105,14.7336,14.7028,14.7105,14.7259,14.7028,14.749,14.8113,14.7805,14.8036,14.8267,14.849,14.8106,14.8029,14.8798,14.9029,14.9337,15.0099,15.0176,15.0483,15.1414,15.1491,15.1491,15.1491,15.1491,15.1414,15.1106,15.0568,15.0414,15.0714,15.0406,15.056,15.1491,15.0176,14.9406,14.9029,14.8182,14.8029,14.8483,14.8008,14.8316,14.9175,14.8974,14.8802,14.881,14.8471,14.7995,8.4859,8.5157,0.0,0.0,0.0,0.0,0.0,0.0,0.0,0.0,0.0,0.0,0.0,0.0,0.0,0.0,0.0,0.0,0.0,0.0,0.0,0.0,0.0,0.0,0.0,0.0,0.0,0.0,0.0,0.0,0.0,13.2119,13.2119,13.2119,13.2119,13.2119,13.2119,13.2627,13.2788,13.2491,13.2182,13.2987,13.4597,13.4771,13.5174,13.5732,13.6294,13.6671,13.7025,13.7221,13.8402,14.0181,14.0489,14.1104,14.2034,14.2489,14.3028,14.372,14.4797,14.5567,14.6105,14.6413,14.6721,14.7028,14.7182,14.7105,14.6875,14.6875,14.6875,14.6875,14.6875,14.7336,14.7805,14.7805,14.7805,14.8029,14.8875,14.8567,14.849,14.9714,14.9868,15.0099,15.1029,15.1106,15.1337,15.1875,15.2029,15.2029,15.2029,15.2029,15.2029,15.2029,15.1491,15.1106,15.1106,15.1106,15.1414,15.2029,15.0868,15.0176,14.9868,14.9106,14.8875,14.9483,14.8875,14.9079,15.0024,14.9764,14.9578,14.9529,14.9032,14.8507,8.5818,0.0,0.0,0.0,0.0,0.0,0.0,0.0,0.0,0.0,0.0,0.0,0.0,0.0,0.0,0.0,0.0,0.0,0.0,0.0,0.0,0.0,0.0,0.0,0.0,0.0,0.0,0.0,0.0,0.0,0.0,13.2119,13.2119,13.2119,13.2119,13.2119,13.2119,13.2119,13.2479,13.3308,13.2491,13.2107,13.2228,13.4715,13.4908,13.3437,13.4992,13.5186,13.4474,13.5292,13.7109,13.9405,14.0335,14.1104,14.2104,14.379,14.4406,14.4636,14.6336,14.6875,14.7105,14.7875,14.7567,14.7105,14.7875,14.7567,14.6875,14.6875,14.6875,14.6875,14.6875,14.6875,14.6875,14.6875,14.6875,14.7182,14.8036,14.819,14.8721,15.0414,15.0714,15.1029,15.1875,15.2029,15.2029,15.2029,15.2029,15.2029,15.2029,15.2029,15.2029,15.2029,15.2029,15.2029,15.2029,15.2029,15.2029,15.2029,15.2029,15.1568,15.0714,14.9868,14.9483,14.9483,14.9483,14.9868,15.0714,15.0017,15.0093,15.0871,14.9309,14.868,8.5008,0.0,0.0,0.0,0.0,0.0,0.0,0.0,0.0,0.0,0.0,0.0,0.0,0.0,0.0,0.0,0.0,0.0,0.0,0.0,0.0,0.0,0.0,0.0,0.0,0.0,0.0,0.0,0.0,0.0,0.0,13.2405,13.2119,13.2119,13.2119,13.2119,13.2119,13.2714,13.2776,13.2491,13.2776,13.3222,13.3778,13.4019,13.4136,13.4209,13.5175,13.5809,13.6324,13.8289,13.9178,13.9405,14.0873,14.1726,14.2104,14.379,14.4406,14.4636,14.6336,14.7259,14.7882,14.8113,14.8036,14.7882,14.8113,14.7567,14.7028,14.7567,14.7805,14.8036,14.8567,14.8714,14.8406,14.7182,14.7798,14.8791,14.9106,14.9567,15.0337,15.1414,15.1568,15.1722,15.2029,15.2491,15.2722,15.2106,15.2491,15.2722,15.2106,15.2491,15.2729,15.2106,15.2029,15.2029,15.2029,15.2029,15.2029,15.2029,15.2029,15.1875,15.1568,15.0798,15.056,15.1183,15.0721,15.0798,15.1568,15.0765,15.0297,15.0016,14.8985,14.8288,0.0,0.0,0.0,0.0,0.0,0.0,0.0,0.0,0.0,0.0,0.0,0.0,0.0,0.0,0.0,0.0,0.0,0.0,0.0,0.0,0.0,0.0,0.0,0.0,0.0,0.0,0.0,0.0,0.0,0.0,0.0,13.3296,13.2925,13.2639,13.2639,13.2405,13.2119,13.2639,13.2639,13.2119,13.2639,13.3073,13.3468,13.3397,13.3578,13.4007,13.4491,13.522,13.5963,13.7921,13.8914,13.9482,14.1181,14.2111,14.2573,14.4336,14.4867,14.5098,14.6413,14.7182,14.7721,14.8113,14.8036,14.7721,14.8113,14.7567,14.7105,14.8036,14.819,14.8413,14.9329,14.9483,14.9175,14.8182,14.8714,14.956,14.9868,15.0414,15.1029,15.1799,15.2029,15.2029,15.2029,15.2722,15.3037,15.2106,15.2722,15.3037,15.2106,15.2806,15.3037,15.2106,15.2029,15.2029,15.2029,15.2029,15.2029,15.2029,15.2029,15.2029,15.2029,15.1491,15.1337,15.1491,15.1337,15.1337,15.1491,15.1029,15.0303,14.9618,14.8701,14.8221,0.0,0.0,0.0,0.0,0.0,0.0,0.0,0.0,0.0,0.0,0.0,0.0,0.0,0.0,0.0,0.0,0.0,0.0,0.0,0.0,0.0,0.0,0.0,0.0,0.0,0.0,0.0,0.0,0.0,0.0,0.0,13.4485,13.4114,13.3296,13.3296,13.2925,13.2119,13.2119,13.2119,13.2119,13.2119,13.2107,13.2193,13.303,13.341,13.3491,13.3398,13.3796,13.4628,13.549,13.7122,13.9324,14.1099,14.2287,14.3182,14.4867,14.5594,14.5797,14.6567,14.7028,14.7105,14.7875,14.7728,14.7182,14.8036,14.7567,14.7105,14.8113,14.8259,14.849,14.949,14.9714,14.9714,14.9714,14.9714,14.9791,15.0483,15.0798,15.1106,15.1799,15.2029,15.2029,15.2029,15.2806,15.3106,15.2337,15.2876,15.3114,15.2106,15.2806,15.3037,15.2106,15.2029,15.2029,15.2029,15.2029,15.2029,15.2029,15.2029,15.2029,15.1875,15.2029,15.1568,15.0791,15.1491,15.1491,15.0714,15.0483,15.0099,14.9406,14.849,14.8197,0.0,0.0,0.0,0.0,0.0,0.0,0.0,0.0,0.0,0.0,0.0,0.0,0.0,0.0,0.0,0.0,0.0,0.0,0.0,0.0,0.0,0.0,0.0,0.0,0.0,0.0,0.0,0.0,0.0,0.0,13.5537,13.4868,13.4114,13.3296,13.3296,13.2925,13.2119,13.2119,13.2119,13.2119,13.2119,13.2405,13.3023,13.3202,13.3994,13.5118,13.4512,13.4672,13.5529,13.6305,13.6886,13.7627,13.9968,14.1401,14.2371,14.4124,14.5066,14.5797,14.6567,14.7336,14.8036,14.8113,14.8113,14.8036,14.8113,14.7567,14.7182,14.8798,14.9175,14.9567,15.1106,15.1491,15.1491,15.1491,15.0868,15.0483,15.0721,15.1183,15.1799,15.2029,15.2029,15.2029,15.2029,15.3183,15.4191,15.4037,15.4114,15.3729,15.2183,15.2806,15.3037,15.2106,15.2029,15.2029,15.2029,15.2029,15.2029,15.2029,15.2029,15.1722,15.1022,15.1568,15.1875,15.1722,15.1183,15.0868,15.0714,14.9413,14.8567,14.8497,14.7567,14.7266,0.0,0.0,0.0,0.0,0.0,0.0,0.0,0.0,0.0,0.0,0.0,0.0,0.0,0.0,0.0,0.0,0.0,0.0,0.0,0.0,0.0,0.0,0.0,0.0,0.0,0.0,0.0,0.0,0.0,13.5897,13.6429,13.56,13.4708,13.3891,13.3519,13.2925,13.2119,13.2119,13.2119,13.2119,13.2119,13.2479,13.332,13.368,13.4629,13.5713,13.4863,13.5028,13.5767,13.6985,13.7675,13.8324,14.0815,14.2067,14.2595,14.389,14.4681,14.5083,14.5626,14.6307,14.7037,14.7037,14.7327,14.7574,14.7574,14.7574,14.7798,14.9099,14.9791,15.0414,15.1722,15.2029,15.2029,15.2029,15.1722,15.133,15.133,15.1722,15.2106,15.2491,15.226,15.2106,15.2575,15.326,15.4191,15.503,15.4807,15.4037,15.2806,15.303,15.3037,15.2106,15.2029,15.2029,15.2029,15.2029,15.2029,15.2029,15.2029,15.1799,15.133,15.1799,15.1568,15.0798,15.0714,15.0337,14.949,14.8567,14.8036,14.7574,14.7105,14.6917,0.0,0.0,0.0,0.0,0.0,0.0,0.0,0.0,0.0,0.0,0.0,0.0,0.0,0.0,0.0,0.0,0.0,0.0,0.0,0.0,0.0,0.0,0.0,0.0,0.0,0.0,0.0,0.0,0.0,13.6863,13.6788,13.6206,13.5302,13.4336,13.3593,13.2925,13.2119,13.2119,13.2119,13.2119,13.2182,13.2702,13.3519,13.4188,13.4931,13.5525,13.5005,13.5028,13.5595,13.7266,13.8384,13.9174,14.1667,14.2816,14.3033,14.3876,14.4377,14.462,14.462,14.5216,14.5903,14.5903,14.637,14.6875,14.6875,14.749,14.842,14.9337,15.0099,15.0868,15.1799,15.2029,15.2029,15.2029,15.2029,15.2029,15.2029,15.2029,15.2183,15.2876,15.2568,15.2491,15.3575,15.3722,15.4184,15.5415,15.503,15.4191,15.3191,15.3114,15.2806,15.2106,15.2029,15.2029,15.2029,15.2029,15.2029,15.2029,15.2029,15.2029,15.2029,15.2029,15.1183,14.9483,15.0176,14.9721,14.819,14.8029,14.7567,14.6875,14.6875,14.6875,0.0,0.0,0.0,0.0,0.0,0.0,0.0,0.0,0.0,0.0,0.0,0.0,0.0,0.0,0.0,0.0,0.0,0.0,0.0,0.0,0.0,0.0,0.0,0.0,0.0,0.0,0.0,0.0,13.7011,13.6714,13.5971,13.5909,13.5091,13.3519,13.3382,13.2925,13.2119,13.2119,13.2119,13.2119,13.2776,13.3593,13.4336,13.4497,13.4559,13.4708,13.5302,13.5312,13.4835,13.6484,13.7225,13.7567,14.0101,14.1379,14.2198,14.3014,14.4228,14.5498,14.5498,14.6126,14.6676,14.6676,14.681,14.6875,14.6875,14.749,14.842,14.9337,15.0099,15.0868,15.1799,15.2029,15.2029,15.2029,15.2029,15.2029,15.2029,15.2029,15.2029,15.2183,15.2722,15.3568,15.5184,15.5492,15.5338,15.4807,15.4576,15.3883,15.2414,15.2183,15.2106,15.2029,15.2029,15.2029,15.2029,15.2029,15.2029,15.2029,15.2029,15.2029,15.2029,15.2029,15.1183,14.9483,14.9637,14.9183,14.819,14.7413,14.7028,14.6875,14.6875,14.6875,0.0,0.0,0.0,0.0,0.0,0.0,0.0,0.0,0.0,0.0,0.0,0.0,0.0,0.0,0.0,0.0,0.0,0.0,0.0,0.0,0.0,0.0,0.0,0.0,0.0,0.0,0.0,13.6863,13.7011,13.6565,13.5822,13.5834,13.5005,13.3382,13.3296,13.2925,13.2119,13.2119,13.2119,13.2119,13.2491,13.3296,13.4485,13.5005,13.5525,13.5897,13.5822,13.5822,13.5971,13.768,13.8126,13.7903,13.9909,14.0861,14.133,14.2109,14.32,14.4308,14.4782,14.5515,14.6184,14.6184,14.6514,14.6875,14.6875,14.7798,14.9029,14.9406,15.0406,15.1491,15.1875,15.2029,15.2029,15.2029,15.2029,15.2106,15.2568,15.2337,15.2029,15.2029,15.3114,15.4191,15.4876,15.5492,15.5722,15.5261,15.4807,15.4114,15.2876,15.2337,15.2029,15.2029,15.2029,15.2029,15.2029,15.2029,15.2029,15.2029,15.2029,15.2029,15.2029,15.2029,15.1183,14.9483,14.9483,14.8791,14.749,14.7105,14.6875,14.6875,14.6875,14.6875,0.0,0.0,0.0,0.0,0.0,0.0,0.0,0.0,0.0,0.0,0.0,0.0,0.0,0.0,0.0,0.0,0.0,0.0,0.0,0.0,0.0,0.0,0.0,0.0,13.5612,13.5377,13.5686,13.6863,13.716,13.6788,13.5525,13.5537,13.4708,13.2999,13.2999,13.2702,13.2119,13.1896,13.1822,13.1822,13.1822,13.2702,13.4485,13.5228,13.5971,13.7023,13.6578,13.6491,13.6788,13.872,13.8869,13.8274,13.9835,14.0503,14.0826,14.1373,14.2162,14.3227,14.3765,14.463,14.5403,14.5584,14.6082,14.6588,14.6825,14.8106,14.9483,14.9483,15.0721,15.2029,15.2029,15.2029,15.2029,15.2029,15.2183,15.2491,15.3191,15.2876,15.2722,15.2876,15.403,15.4883,15.5114,15.5722,15.603,15.5492,15.4876,15.4114,15.3114,15.2414,15.2029,15.2029,15.2029,15.2029,15.2029,15.2029,15.2029,15.2029,15.2029,15.2029,15.2029,15.2029,15.1183,14.9483,14.9483,14.8637,14.6875,14.6875,14.6875,14.6875,14.6875,14.6875,0.0,0.0,0.0,0.0,0.0,0.0,0.0,0.0,0.0,0.0,0.0,0.0,0.0,0.0,0.0,0.0,0.0,0.0,0.0,0.0,0.0,0.0,13.3668,13.3891,13.56,13.6417,13.6863,13.7011,13.768,13.7086,13.4708,13.4559,13.3816,13.2182,13.2193,13.2107,13.2119,13.129,13.1004,13.1004,13.1004,13.2193,13.4485,13.4485,13.5525,13.7011,13.7841,13.7234,13.5971,13.8423,13.8869,13.8274,13.9092,13.9983,14.0664,14.0714,14.1805,14.3126,14.3182,14.3736,14.4601,14.542,14.5669,14.5903,14.6695,14.8106,14.9483,14.9483,15.0721,15.2029,15.2029,15.2029,15.2029,15.2029,15.2568,15.3191,15.3268,15.3883,15.4568,15.5407,15.5722,15.603,15.6799,15.703,15.6492,15.4807,15.4499,15.3883,15.226,15.2029,15.2029,15.2029,15.2029,15.2029,15.2029,15.2029,15.2029,15.2029,15.2029,15.2029,15.2029,15.2029,15.1183,14.9483,14.9483,14.8637,14.6875,14.6875,14.6875,14.6875,14.6875,14.6875,0.0,0.0,0.0,0.0,0.0,0.0,0.0,0.0,0.0,0.0,0.0,0.0,0.0,0.0,0.0,0.0,0.0,0.0,0.0,13.472,13.472,13.5314,13.4559,13.4931,13.7086,13.7086,13.7234,13.768,13.7977,13.7086,13.4634,13.5525,13.5079,13.2925,13.3891,13.3977,13.2936,13.1599,13.1227,13.1673,13.1673,13.2714,13.4485,13.5079,13.5897,13.7011,13.7915,13.7606,13.6726,13.8138,13.82,13.7606,13.8869,13.9612,13.9996,14.1106,14.2232,14.3205,14.3736,14.4516,14.5195,14.5494,14.6005,14.6594,14.7472,14.8618,14.9637,15.0099,15.1106,15.2029,15.2029,15.2029,15.2029,15.2029,15.2729,15.3422,15.4037,15.4268,15.4576,15.4883,15.5415,15.5869,15.6184,15.6723,15.5568,15.1113,15.2806,15.2883,14.849,15.0337,15.2029,15.2029,15.2029,15.2029,15.2029,15.2029,15.2029,15.2029,15.2029,15.2029,15.2029,15.2029,15.1491,15.0329,14.9791,14.8637,14.6875,14.6875,14.6875,14.6875,14.6875,14.6875,8.7906,0.0,0.0,0.0,0.0,0.0,0.0,0.0,0.0,0.0,0.0,0.0,0.0,0.0,0.0,0.0,13.5389,13.5537,13.5834,13.5525,13.5612,13.612,13.5674,13.612,13.7977,13.82,13.82,13.82,13.82,0.0,13.5091,13.5674,13.5302,13.3382,13.4411,13.42,13.2479,13.1364,13.1302,13.2119,13.2119,13.2925,13.4485,13.5377,13.6132,13.6565,13.7383,13.7606,13.7383,13.7977,13.7903,13.7531,13.8274,13.8869,13.9475,14.0681,14.1823,14.2803,14.3682,14.4469,14.5301,14.5899,14.6614,14.7512,14.8375,14.9217,15.0022,15.0483,15.133,15.2106,15.2414,15.2414,15.2414,15.2414,15.2876,15.3499,15.4268,15.473,15.4876,15.4876,15.5415,15.5792,15.5792,15.603,15.4883,15.0883,15.2498,15.2575,14.8413,15.0337,15.2029,15.2029,15.2029,15.2029,15.2029,15.2029,15.2029,15.2029,15.2029,15.2029,15.2029,15.2029,15.1568,15.0714,15.0176,14.9106,14.7336,14.7028,14.6875,14.6875,14.6875,14.6875,0.0,0.0,0.0,0.0,0.0,0.0,11.1888,0.0,12.143,12.8032,13.1376,13.3371,13.4336,13.5897,13.6503,13.4931,13.4634,13.4931,13.5834,13.5079,13.5228,13.6788,13.7011,13.7395,13.82,13.9686,13.9983,13.8423,13.82,13.7531,13.5822,13.4931,13.4114,13.3382,13.3296,13.2639,13.1004,13.1004,13.1376,13.2193,13.2193,13.2999,13.4559,13.5377,13.5822,13.5909,13.6726,13.7469,13.82,13.82,13.82,13.8126,13.7308,13.7977,13.9389,13.9389,14.0503,14.1989,14.2807,14.3711,14.4699,14.626,14.7404,14.8336,14.9217,14.9964,15.0692,15.0692,15.1399,15.2183,15.3114,15.3268,15.3268,15.3268,15.3268,15.3499,15.4268,15.5107,15.5715,15.5799,15.5799,15.5799,15.5799,15.5107,15.4422,15.4268,15.3575,15.2806,15.1875,15.1799,15.1875,15.2029,15.2029,15.2029,15.2029,15.2029,15.2029,15.2029,15.2029,15.2029,15.2029,15.2029,15.1568,15.0798,15.0714,14.9875,14.819,14.7413,14.6875,14.6875,14.6875,14.6875,8.0475,0.0,0.0,0.0,0.0,0.0,0.0,0.0,0.0,12.0835,12.5506,12.9284,13.3668,13.5897,13.7011,13.716,13.7234,13.7321,13.7531,13.6788,13.6503,13.6863,13.7531,13.82,13.9017,14.007,14.0206,0.0,13.8497,13.7234,13.5005,13.4114,13.3816,13.4188,13.4188,13.3965,13.3519,13.3519,13.3593,13.3816,13.4497,13.5005,13.5537,13.6268,13.6726,13.6726,13.6863,13.7469,13.8212,13.7606,13.7308,13.7395,13.768,13.8497,13.9463,14.0132,14.1395,14.2807,14.303,14.4124,14.5305,14.5824,14.6517,14.7324,14.8182,14.9115,14.9999,15.1309,15.2287,15.3037,15.3191,15.2799,15.2414,15.2414,15.2414,15.2568,15.3414,15.3799,15.4184,15.4722,15.4883,15.4883,15.4883,15.473,15.3191,14.9575,14.8798,14.8413,14.749,14.7413,14.8567,15.1722,15.2029,15.2029,15.2029,15.2029,15.2029,15.2029,15.2029,15.2029,15.2029,15.2029,15.1875,15.1568,15.1022,15.0176,14.9099,14.8259,14.749,14.6875,14.6875,14.6875,8.0252,0.0,0.0,0.0,0.0,0.0,9.7855,10.2898,0.0,0.0,12.3128,12.7066,13.2479,13.3965,13.5314,13.7829,13.82,13.82,13.82,13.7531,13.7086,13.7469,13.82,13.8869,13.9389,14.0206,14.0206,13.9017,13.8212,13.6863,13.5079,13.4931,13.5091,13.5525,13.5228,13.5005,13.5005,13.4708,13.4708,13.5005,13.5612,13.5834,13.5822,13.6565,13.6788,13.6491,13.6875,13.7321,13.768,13.7606,13.7531,13.7531,13.7977,13.872,13.9525,14.0801,14.1989,14.3178,14.3921,14.5031,14.6237,14.6523,14.7221,14.8014,14.8466,14.898,14.9674,15.0979,15.2303,15.3237,15.2769,15.2596,15.2491,15.2106,15.2029,15.2106,15.2568,15.2806,15.303,15.3806,15.4037,15.4037,15.4037,15.3729,15.2575,15.0029,14.926,14.8875,14.8413,14.8336,14.9337,15.1722,15.2029,15.2029,15.2029,15.2029,15.2029,15.2029,15.2029,15.2029,15.2029,15.2029,15.2029,15.2029,15.1491,15.0791,15.0022,14.8798,14.7805,14.6875,14.6875,14.6875,8.0178,8.1523,0.0,0.0,0.0,0.0,9.8217,10.2824,10.7439,0.0,12.0824,12.4094,12.9061,12.9741,13.077,13.5079,13.6565,13.7531,13.8423,13.7606,13.7308,13.8126,13.8794,13.9315,13.9315,13.9983,13.9909,13.8274,13.7308,13.6429,13.5612,13.6194,13.6565,13.6714,13.612,13.5834,13.5834,13.5079,13.5228,13.5897,13.5897,13.5897,13.5983,13.68,13.6714,13.6132,13.6863,13.7321,13.7308,13.7977,13.8274,13.82,13.8274,13.8794,13.9686,14.1321,14.251,14.3475,14.5036,14.6187,14.7031,14.7694,14.8526,14.9121,14.9121,14.9194,14.9363,15.0365,15.1778,15.2872,15.2112,15.247,15.2794,15.2169,15.2029,15.2029,15.2029,15.2029,15.2183,15.3037,15.3191,15.3191,15.3191,15.2491,15.226,15.303,15.2106,15.1491,15.1875,15.1568,15.1491,15.1875,15.2029,15.2029,15.2029,15.2029,15.2029,15.2029,15.2029,15.2029,15.2029,15.2029,15.2029,15.2029,15.1875,15.1491,15.0714,14.9029,14.7805,14.7028,14.6875,14.6875,8.1597,8.2779,8.4116,0.0,0.0,0.0,0.0,9.139,9.622,0.0,10.6399,11.0699,11.6271,11.8797,12.0134,12.0431,12.6609,13.3382,13.9401,13.8435,13.7308,13.8126,13.8274,13.8423,13.8423,13.9166,13.9228,13.8274,13.6194,13.4634,13.3816,13.3891,13.4262,13.5005,13.5525,13.5834,13.5834,13.628,13.6565,13.68,13.68,13.68,13.6788,13.7606,13.7903,13.7829,13.8572,13.8869,13.8869,13.9092,13.8794,13.8274,13.8869,13.9686,14.059,14.1469,14.2807,14.4218,14.5184,14.6069,14.683,14.6992,14.7206,14.7307,14.7307,14.7817,14.8699,15.0199,15.1438,15.2088,15.1996,15.1581,15.1291,15.1911,15.2029,15.2029,15.2029,15.2029,15.2106,15.2183,15.226,15.226,15.226,15.2106,15.2106,15.2183,14.9183,14.8182,15.1568,14.9029,14.8182,15.1568,15.2029,15.2029,15.2029,15.2029,15.2029,15.2029,15.2029,15.2029,15.2029,15.2029,15.2029,15.2029,15.1337,15.0868,15.0714,14.9029,14.8113,14.7875,14.7182,14.6875,8.2311,8.286,8.3893,8.4265,0.0,0.0,0.0,0.0,9.3619,9.8152,10.0678,10.3864,10.9668,11.0699,11.1813,11.5082,12.2236,12.8775,13.3296,13.6132,13.7903,13.872,13.8423,13.7977,13.7606,13.8274,13.8274,13.7086,13.5909,13.5017,13.4571,13.4485,13.5079,13.6268,13.6417,13.6788,13.7606,13.7234,13.7383,13.82,13.7829,13.7829,13.82,13.8572,13.8794,13.8794,13.9166,13.9389,13.9389,13.9909,13.9835,13.9463,13.9909,14.0281,14.0875,14.251,14.3401,14.3909,14.563,14.6225,14.6299,14.667,14.6819,14.6819,14.6819,14.7428,14.8176,14.9091,15.03,15.1321,15.1302,15.1307,15.1473,15.1879,15.2029,15.2029,15.2029,15.2029,15.2029,15.2029,15.2029,15.2029,15.2029,15.2029,15.2029,15.2029,15.0183,14.9567,15.1722,15.0183,14.9721,15.1799,15.2029,15.2029,15.2029,15.2029,15.2029,15.2029,15.2029,15.2029,15.2029,15.2029,15.2029,15.2029,15.1568,15.133,15.133,15.0106,14.9183,14.8798,14.8029,14.749,0.0,0.0,0.0,0.0,0.0,8.538,0.0,0.0,0.0,0.0,0.0,0.0,0.0,0.0,0.0,10.951,11.6589,12.179,12.3191,12.9804,13.5302,13.768,13.768,13.7234,13.6565,13.6788,13.6565,13.56,13.5017,13.4782,13.5314,13.5537,13.6194,13.768,13.7321,13.7606,13.8869,13.7829,13.7903,13.9166,13.872,13.8794,13.9389,13.9612,13.9686,13.9686,13.9835,13.9909,13.9909,14.0578,14.0875,14.0875,14.0875,14.1024,14.1395,14.3475,14.3996,14.3921,14.6076,14.6373,14.5927,14.6596,14.6819,14.6819,14.6819,14.7413,14.8008,14.7785,14.8877,15.0097,15.0293,15.0922,15.1574,15.1894,15.2029,15.2029,15.2183,15.2106,15.2029,15.2183,15.2106,15.2029,15.2029,15.2029,15.2029,15.2029,15.2029,15.2029,15.2029,15.2029,15.2029,15.2029,15.2029,15.2029,15.2029,15.2029,15.2029,15.2029,15.2029,15.2029,15.2029,15.2029,15.2029,15.2029,15.2029,15.2029,15.2029,15.1337,15.0483,14.9714,14.8875,14.842,0.0,0.0,0.0,0.0,8.8195,0.0,0.0,0.0,0.0,0.0,0.0,0.0,0.0,0.0,0.0,0.0,0.0,10.8767,10.9733,11.6197,12.3775,13.1959,13.4114,13.4931,13.4782,13.3593,13.3296,13.4571,13.197,13.1302,13.3531,13.4262,13.5079,13.5971,13.6726,13.7086,13.7321,13.7829,13.82,13.8274,13.9017,13.9315,13.9389,14.0206,14.059,14.0578,14.1321,14.1618,14.1618,14.1692,14.1779,14.1779,14.1779,14.2212,14.2881,14.3909,14.4739,14.5482,14.6522,14.667,14.667,14.6819,14.6819,14.6819,14.6819,14.7413,14.7934,14.7116,14.7595,14.8526,14.9308,14.9561,15.0075,15.1605,15.2029,15.2183,15.3037,15.2491,15.2183,15.3037,15.2491,15.2029,15.2029,15.2029,15.2029,15.2029,15.2029,15.2029,15.2029,15.2029,15.2029,15.2029,15.2029,15.2029,15.2029,15.2029,15.2029,15.2029,15.2029,15.2029,15.2029,15.2029,15.2029,15.2029,15.2029,15.2029,15.2029,15.1875,15.1414,15.0483,14.9714,14.8875,0.0,0.0,0.0,0.0,0.0,0.0,0.0,0.0,8.6123,0.0,0.0,0.0,0.0,0.0,0.0,0.0,9.8069,0.0,10.4012,11.0773,11.7905,12.3626,12.3998,12.422,12.5208,12.6769,12.8318,12.9518,12.9221,13.0027,13.2491,13.3382,13.4411,13.5834,13.6578,13.7234,13.768,13.7977,13.872,13.9698,13.9983,14.0578,14.1618,14.1915,14.2287,14.2807,14.2658,14.2881,14.3327,14.2807,14.2584,14.2584,14.3104,14.3178,14.3178,14.3996,14.4516,14.5036,14.6299,14.6522,14.6225,14.6596,14.6819,14.6819,14.6819,14.6968,14.7191,14.6893,14.7429,14.8095,14.8493,14.9027,14.9729,15.0995,15.1611,15.2192,15.3109,15.3422,15.3414,15.3268,15.3422,15.326,15.2799,15.2337,15.2029,15.2029,15.2029,15.2029,15.2029,15.2029,15.2029,15.2029,15.2029,15.2029,15.2029,15.2029,15.2029,15.2029,15.2491,15.2806,15.2806,15.2806,15.2491,15.2029,15.2029,15.2029,15.2029,15.2029,15.1799,15.1414,15.056,15.0029,9.253,0.0,0.0,0.0,0.0,0.0,0.0,0.0,0.0,0.0,0.0,0.0,0.0,0.0,0.0,0.0,0.0,9.9563,9.9786,10.4839,0.0,0.0,11.5899,11.6568,11.8436,12.0294,12.2533,12.5134,12.5208,12.6906,13.1216,13.2405,13.3668,13.5389,13.6503,13.7321,13.7903,13.8274,13.9092,14.0367,14.1024,14.1928,14.2807,14.303,14.3401,14.3909,14.3401,14.3401,14.3909,14.3624,14.3327,14.3178,14.3996,14.407,14.3921,14.4441,14.4813,14.5184,14.6373,14.6373,14.6002,14.6596,14.6819,14.6819,14.6819,14.6819,14.6819,14.6819,14.7319,14.7817,14.8013,14.8615,14.9277,15.0122,15.1002,15.1906,15.3007,15.3687,15.4125,15.4,15.4268,15.4268,15.3729,15.2876,15.2421,15.2421,15.2183,15.2029,15.2029,15.2029,15.2029,15.2029,15.2029,15.2029,15.2029,15.2029,15.2106,15.2337,15.3037,15.3268,15.3268,15.3114,15.2568,15.2029,15.2029,15.2029,15.2029,15.2029,15.2029,15.2029,15.1414,15.0868,0.0,0.0,0.0,9.4253,0.0,0.0,0.0,0.0,9.1242,0.0,0.0,0.0,0.0,0.0,0.0,0.0,0.0,0.0,0.0,0.0,0.0,0.0,0.0,0.0,11.8425,11.5072,11.591,12.2968,11.9168,12.0516,12.9295,13.1302,13.2936,13.4485,13.612,13.7011,13.7011,13.8572,13.9389,13.9463,14.1915,14.2584,14.1989,14.2732,14.3104,14.3104,14.3104,14.3104,14.3178,14.3996,14.3773,14.3178,14.3996,14.4813,14.5482,14.5482,14.6076,14.667,14.6819,14.6819,14.6819,14.6819,14.6819,14.6819,14.6819,14.6819,14.6819,14.6819,14.6771,14.7041,14.7912,14.8106,14.8391,14.917,15.0057,15.1123,15.2795,15.3176,15.3691,15.5363,15.5107,15.4499,15.4499,15.3806,15.3268,15.3268,15.2491,15.2029,15.2029,15.2029,15.2029,15.2029,15.2029,15.2029,15.2029,15.2029,15.2414,15.3191,15.3268,15.3268,15.3268,15.2491,15.2029,15.2029,15.2029,15.2029,15.2029,15.2029,15.2029,15.2029,15.2029,15.1491,0.0,0.0,10.4976,9.9408,0.0,0.0,0.0,0.0,0.0,0.0,0.0,0.0,0.0,0.0,0.0,0.0,0.0,0.0,0.0,0.0,0.0,0.0,0.0,0.0,0.0,10.8396,11.1229,11.3681,11.3819,11.7024,12.4391,12.6397,12.9221,13.3593,13.5302,13.6503,13.7011,13.8572,13.9389,13.9389,14.1915,14.303,14.2732,14.407,14.4813,14.4813,14.4813,14.511,14.5482,14.5333,14.4664,14.3996,14.5407,14.5482,14.4813,14.5407,14.6076,14.6819,14.6819,14.6819,14.6819,14.6819,14.6819,14.6819,14.6819,14.6819,14.6819,14.6819,14.6819,14.691,14.7206,14.7219,14.7492,14.8282,14.9196,15.0215,15.2014,15.2811,15.3511,15.4584,15.5121,15.5271,15.5416,15.5107,15.4568,15.3499,15.303,15.2729,15.2106,15.2029,15.2029,15.2029,15.2029,15.2029,15.2029,15.2491,15.3037,15.3268,15.3806,15.3883,15.3268,15.303,15.2568,15.2029,15.2029,15.2029,15.2029,15.2029,15.2029,15.2029,15.2029,15.1799,11.4411,11.329,0.0,10.7381,10.3796,0.0,9.6356,0.0,0.0,0.0,0.0,0.0,0.0,0.0,0.0,0.0,0.0,0.0,0.0,9.0796,0.0,0.0,0.0,0.0,0.0,0.0,10.5573,10.8173,10.8767,11.1962,11.8882,12.2831,12.6695,13.1004,13.4411,13.6503,13.7011,13.8572,13.9389,13.9389,14.2212,14.3401,14.3178,14.4813,14.563,14.563,14.563,14.5927,14.6373,14.6076,14.5482,14.4887,14.6299,14.6076,14.5333,14.5779,14.6373,14.6819,14.6819,14.6819,14.6819,14.6819,14.6819,14.6819,14.6819,14.6819,14.6819,14.6819,14.6819,14.6819,14.6819,14.6819,14.6926,14.7466,14.831,14.9198,15.071,15.19,15.2925,15.3787,15.4936,15.5661,15.5822,15.6024,15.5722,15.4037,15.3499,15.3037,15.2106,15.2029,15.2029,15.2029,15.2029,15.2029,15.2029,15.2806,15.3268,15.3268,15.3806,15.3806,15.3268,15.3037,15.2568,15.2029,15.2029,15.2029,15.2029,15.2029,15.2029,15.2029,15.2029,15.2029]},{"header":{"parameterUnit":"m.s-1","parameterCategory":1,"la1":30.6,"la2":29.2853,"lo1":-89.7004,"lo2":-87.6739,"dy":0.0162,"dx":0.0183,"nx":112,"ny":82,"refTime":"2026-03-09T00:00:00:Z","depth":0,"parameterNumber":3,"parameterNumberName":"V-component_of_WINDS"},"data":[0.0,0.0,0.0,0.0,0.0,0.0,0.0,0.0,0.0,0.0,0.0,0.0,0.0,0.0,0.0,0.0,0.0,0.0,0.0,0.0,0.0,0.0,0.0,0.0,0.0,0.0,0.0,0.0,0.0,0.0,0.0,0.0,0.0,0.0,0.0,0.0,0.0,0.0,0.0,0.0,0.0,0.0,0.0,0.0,0.0,0.0,0.0,0.0,0.0,0.0,0.0,0.0,0.0,0.0,0.0,0.0,0.0,0.0,0.0,0.0,0.0,0.0,0.0,0.0,0.0,0.0,0.0,0.0,0.0,0.0,0.0,0.0,0.0,0.0,0.0,0.0,0.0,0.0,0.0,0.0,0.0,0.0,0.0,0.0,0.0,0.0,0.0,0.0,0.0,0.0,0.0,1.0335,0.4278,0.0,0.0,0.0,0.0,0.0,0.0,0.0,0.0,0.0,0.0,0.0,0.0,0.0,0.0,0.0,0.0,0.0,0.0,0.0,0.0,0.0,0.0,0.0,0.0,0.0,0.0,0.0,0.0,0.0,0.0,0.0,0.0,0.0,0.0,0.0,0.0,0.0,0.0,0.0,0.0,0.0,0.0,0.0,0.0,0.0,0.0,0.0,0.0,0.0,0.0,0.0,0.0,0.0,0.0,0.0,0.0,0.0,0.0,0.0,0.0,0.0,0.0,0.0,0.0,0.0,0.0,0.0,0.0,0.0,0.0,0.0,0.0,0.0,0.0,0.0,0.0,0.0,0.0,0.0,0.0,0.0,0.0,0.0,0.0,0.0,0.0,0.0,0.0,0.0,0.0,0.0,0.0,0.0,0.0,0.0,0.0,0.0,0.0,0.0,0.0,0.0,0.0,0.0,0.0,0.0,0.0,0.0,0.0,0.0,0.9468,1.0569,0.4271,0.0,0.0,0.0,0.0,0.0,0.0,0.0,0.0,0.0,0.0,0.0,0.0,0.0,0.0,0.0,0.0,0.0,0.0,0.0,0.0,0.0,0.0,0.0,0.0,0.0,0.0,0.0,0.0,0.0,0.0,0.0,0.0,0.0,0.0,0.0,0.0,0.0,0.0,0.0,0.0,0.0,0.0,0.0,0.0,0.0,0.0,0.0,0.0,0.0,0.0,0.0,0.0,0.0,0.0,0.0,0.0,0.0,0.0,0.0,0.0,0.0,0.0,0.0,0.0,0.0,0.0,0.0,0.0,0.0,0.0,0.0,0.0,0.0,0.0,0.0,0.0,0.0,0.0,0.0,0.0,0.0,0.0,0.0,0.0,0.0,0.0,0.0,0.0,0.0,0.0,0.0,0.0,0.0,0.0,0.0,0.0,0.0,0.0,0.0,0.0,0.0,0.0,0.0,0.0,0.0,0.0,0.0,0.0,0.5813,0.4602,0.4865,0.1963,0.0,0.0,0.0,0.0,0.0,0.0,0.0,0.0,0.0,0.0,0.0,0.0,0.0,0.0,0.0,0.0,0.0,0.0,0.0,0.0,0.0,0.0,0.0,0.0,0.0,0.0,0.0,0.0,0.0,0.0,0.0,0.0,0.0,0.0,0.0,0.0,0.0,0.0,0.0,0.0,0.0,0.0,0.0,0.0,0.0,0.0,0.0,0.0,0.0,0.0,0.0,0.0,0.0,0.0,0.0,0.0,0.0,0.0,0.0,0.0,0.0,0.0,0.0,0.0,0.0,0.0,0.0,0.0,0.0,0.0,0.0,0.0,0.0,0.0,0.0,0.0,0.0,0.0,0.0,0.0,0.0,0.0,0.0,0.0,0.0,0.0,0.0,0.0,0.0,0.0,0.0,0.0,0.0,0.0,0.0,0.0,0.0,0.0,0.0,0.0,0.0,0.0,0.0,0.0,0.0,0.0,0.0,0.0,0.3248,0.1442,0.143,0.1446,0.143,0.143,0.0558,0.0,0.0,0.0,0.0,0.0,0.0,0.0,0.0,0.0,0.0,0.0,0.0,0.0,0.0,0.0,0.0,0.0,0.0,0.0,0.0,0.0,0.0,0.0,0.0,0.0,0.0,0.0,0.0,0.0,0.0,0.0,0.0,0.0,0.0,0.0,0.0,0.0,0.0,0.0,0.0,0.0,0.0,0.0,0.0,0.0,0.0,0.0,0.0,0.0,0.0,0.0,0.0,0.0,0.0,0.0,0.0,0.0,0.0,0.0,0.0,0.0,0.0,0.0,0.0,0.0,0.0,0.0,0.0,0.0,0.0,0.0,0.0,0.0,0.0,0.0,0.0,0.0,0.0,0.0,0.0,0.0,0.0,0.0,0.0,0.0,0.0,0.0,0.0,0.0,0.0,0.0,0.0,0.0,0.0,0.0,0.0,0.0,0.0,0.0,0.0,0.0,0.0,0.0,0.0,0.0,0.6254,0.5663,0.5677,0.5679,0.5679,0.5679,0.2184,0.0,0.0,0.0,0.0,0.0,0.0,0.0,0.0,0.0,0.0,0.0,0.0,0.0,0.0,0.0,0.0,0.0,0.0,0.0,0.0,0.0,0.0,0.0,0.0,0.0,0.0,0.0,0.0,0.0,0.0,0.0,0.0,0.0,0.0,0.0,0.0,0.0,0.0,0.0,0.0,0.0,0.0,0.0,0.0,0.0,0.0,0.0,0.0,0.0,0.0,0.0,0.0,0.0,0.0,0.0,0.0,0.0,0.0,0.0,0.0,0.0,0.0,0.0,0.0,0.0,0.0,0.0,0.0,0.0,0.0,0.0,0.0,0.0,0.0,0.0,0.0,0.0,0.0,0.0,0.0,0.0,0.0,0.0,0.0,0.0,0.0,0.0,0.0,0.0,0.0,0.0,0.0,0.0,0.0,0.0,0.0,0.0,0.0,0.0,0.0,0.0,0.0,0.0,0.0,0.0,0.9759,0.9916,0.0,0.9914,0.9914,0.9914,0.8331,0.5253,0.0301,0.0,0.0,0.0,0.0,0.0,0.0,0.0,0.0,0.0,0.0,0.0,0.0,0.0,0.0,0.0,0.0,0.0,0.0,0.0,0.0,0.0,0.0,0.0,0.0,0.0,0.0,0.0,0.0,0.0,0.0,0.0,0.0,0.0,0.0,0.0,0.0,0.0,0.0,0.0,0.0,0.0,0.0,0.0,0.0,0.0,0.0,0.0,0.0,0.0,0.0,0.0,0.0,0.0,0.0,0.0,0.0,0.0,0.0,0.0,0.0,0.0,0.0,0.0,0.0,0.0,0.0,0.0,0.0,0.0,0.0,0.0,0.0,0.0,0.0,0.0,0.0,0.0,0.0,0.0,0.0,0.0,0.0,0.0,0.0,0.0,0.0,0.0,0.0,0.0,0.0,0.0,0.0,0.0,0.0,0.0,0.0,0.0,0.0,0.0,0.0,0.0,0.0,1.0844,1.1634,1.2209,0.0,1.2471,1.2501,1.2577,1.2319,0.9737,0.4109,0.0,0.0,0.0,0.0,0.0,0.0,0.0,0.0,0.0,0.0,0.0,0.0,0.0,0.0,0.0,0.0,0.0,0.0,0.0,0.0,0.0,0.0,0.0,0.0,0.0,0.0,0.0,0.0,0.0,0.0,0.0,0.0,0.0,0.0,0.0,0.0,0.0,0.0,0.0,0.0,0.0,0.0,0.0,0.0,0.0,0.0,0.0,0.0,0.0,0.0,0.0,0.0,0.0,0.0,0.0,0.0,0.0,0.0,0.0,0.0,0.0,0.0,0.0,0.0,0.0,0.0,0.0,0.0,0.0,0.0,0.0,0.0,0.0,0.0,0.0,0.0,0.0,0.0,0.0,0.0,0.0,0.0,0.0,0.0,0.0,0.0,0.0,0.0,0.0,0.0,0.0,0.0,0.0,0.0,0.0,0.0,0.0,0.0,0.0,0.0,0.0,0.0,1.0679,1.1459,1.2256,1.2866,1.3029,1.3203,1.338,1.3105,1.26,0.0,0.0,0.0,0.0,0.0,0.0,0.0,0.0,0.0,0.0,0.0,0.0,0.0,0.0,0.0,0.0,0.0,0.0,0.0,0.0,0.0,0.0,0.0,0.0,0.0,0.0,0.0,0.0,0.0,0.0,0.0,0.0,0.0,0.0,0.0,0.0,0.0,0.0,0.0,0.0,0.0,0.0,0.0,0.0,0.0,0.0,0.0,0.0,0.0,0.0,0.0,0.0,0.0,0.0,0.0,0.0,0.0,0.0,0.0,0.0,0.0,0.0,0.0,0.0,0.0,0.0,0.0,0.0,0.0,0.0,0.0,0.0,0.0,0.0,0.0,0.0,0.0,0.0,0.0,0.0,0.0,0.0,0.0,0.0,0.0,0.0,0.0,0.0,0.0,0.0,0.0,0.0,0.0,0.0,0.0,0.0,0.0,0.0,0.0,0.0,0.0,0.0,0.0,1.1275,1.2295,1.3167,1.3617,1.3628,1.3628,1.3678,1.3295,1.2718,1.1917,0.0,0.0,0.0,0.0,0.0,0.0,0.0,0.0,0.0,0.0,0.0,0.0,0.0,0.0,0.0,0.0,0.0,0.0,0.0,0.0,0.0,0.0,0.0,0.0,0.0,0.0,0.0,0.0,0.0,0.0,0.0,0.0,0.0,0.0,0.0,0.0,0.0,0.0,0.0,0.0,0.0,0.0,0.0,0.0,0.0,0.0,0.0,0.0,0.0,0.0,0.0,0.0,0.0,0.0,0.0,0.0,0.0,0.0,0.0,0.0,0.0,0.0,0.0,0.0,0.0,0.0,0.0,0.0,0.0,0.0,0.0,0.0,0.0,0.0,0.0,0.0,0.0,0.0,0.0,0.0,0.0,0.0,0.0,0.0,0.0,0.0,0.0,0.0,0.0,0.0,0.0,0.0,0.0,0.0,0.0,0.0,0.0,0.0,0.0,0.0,0.0,0.0,1.1535,1.2697,1.3711,1.431,1.4282,1.4293,1.4417,1.4053,1.3394,1.2443,0.0,0.0,0.0,0.0,0.0,0.0,0.0,0.0,0.0,0.0,0.0,0.0,0.0,0.0,0.0,0.0,0.0,0.0,0.0,0.0,0.0,0.0,0.0,0.0,0.0,0.0,0.0,0.0,0.0,0.0,0.0,0.0,0.0,0.0,0.0,0.0,0.0,0.0,0.0,0.0,0.0,0.0,0.0,0.0,0.0,0.0,0.0,0.0,0.0,0.0,0.0,0.0,0.0,0.0,0.0,0.0,0.0,0.0,0.0,0.0,0.0,0.0,0.0,0.0,0.0,0.0,0.0,0.0,0.0,0.0,0.0,0.0,0.0,0.0,0.0,0.0,0.0,0.0,0.0,0.0,0.0,0.0,0.0,0.0,0.0,0.0,0.0,0.0,0.0,0.0,0.0,0.0,0.0,0.0,0.0,0.0,0.0,0.0,0.0,0.0,0.0,0.0,1.1655,1.2903,1.4069,1.4903,1.4979,1.511,1.5418,1.5121,1.4409,1.3207,0.0,0.0,0.0,0.0,0.0,0.0,0.0,0.0,0.0,0.0,0.0,0.0,0.0,0.0,0.0,0.0,0.0,0.0,0.0,0.0,0.0,0.0,0.0,0.0,0.0,0.0,0.0,0.0,0.0,0.0,0.0,0.0,0.0,0.0,0.0,0.0,0.0,0.0,0.0,0.0,0.0,0.0,0.0,0.0,0.0,0.0,0.0,0.0,0.0,0.0,0.0,0.0,0.0,0.0,0.0,0.0,0.0,0.0,0.0,0.0,1.4285,0.0,0.0,0.0,0.0,0.0,0.0,0.0,0.0,0.0,0.0,0.0,0.0,0.0,0.0,0.0,0.0,0.0,0.0,0.0,0.0,0.0,0.0,0.0,0.0,0.0,0.0,0.0,0.0,0.0,0.0,0.0,0.0,0.0,0.0,0.0,0.0,0.0,0.0,0.0,0.0,0.0,1.2382,1.3961,1.5189,1.5627,1.57,1.5722,1.5798,1.5407,1.4674,1.3572,1.2702,0.0,0.0,0.0,0.0,0.0,0.0,0.0,0.0,0.0,0.0,0.0,0.0,0.0,0.0,0.0,0.0,0.0,0.0,0.0,0.0,0.0,0.0,0.0,0.0,0.0,0.0,0.0,0.0,0.0,0.0,0.0,0.0,0.0,0.0,0.0,0.0,0.0,0.0,0.0,0.0,0.0,0.0,0.0,0.0,0.0,0.0,0.0,0.0,0.0,0.0,0.0,0.0,0.0,0.0,0.0,0.0,0.0,0.0,0.0,0.0,1.4561,0.0,0.0,0.0,0.0,0.0,0.0,0.0,0.0,0.0,0.0,0.0,0.0,0.0,0.0,0.0,0.0,0.0,0.0,0.0,0.0,0.0,0.0,0.0,0.0,0.0,0.0,0.0,0.0,0.0,0.0,0.0,0.0,0.0,0.0,0.0,0.0,0.0,0.0,0.0,0.0,1.2623,1.4276,1.5548,1.5952,1.6005,1.6037,1.6092,1.5711,1.5143,1.4293,1.3448,0.0,0.0,0.0,0.0,0.0,0.0,0.0,0.0,0.0,0.0,0.0,0.0,0.0,0.0,0.0,0.0,0.0,0.0,0.0,0.0,0.0,0.0,0.0,0.0,0.0,0.0,0.0,0.0,0.0,0.0,0.0,0.0,0.0,0.0,0.0,0.0,0.0,0.0,0.0,0.0,0.0,0.0,0.0,0.0,0.0,0.0,0.0,0.0,0.0,0.0,0.0,0.0,0.0,1.6549,1.6795,1.7026,1.7568,1.769,1.7473,1.6701,1.5902,1.5103,0.0,0.0,0.0,0.0,0.0,0.0,0.0,0.0,0.0,0.0,0.0,0.0,0.0,0.0,0.0,0.0,0.0,0.0,0.0,0.0,0.0,0.0,0.0,0.0,0.0,1.5068,1.4727,0.0,0.0,0.0,0.0,0.0,0.0,0.0,0.0,0.0,0.0,0.0,0.0,1.2754,1.4363,1.5644,1.6059,1.6146,1.6201,1.632,1.6036,1.56,1.5074,1.4194,1.3145,0.0,0.0,0.0,0.0,0.0,0.0,0.0,0.0,0.0,0.0,0.0,0.0,0.0,0.0,0.0,0.0,0.0,0.0,0.0,0.0,0.0,0.0,0.0,0.0,0.0,0.0,0.0,0.0,0.0,0.0,0.0,0.0,1.4014,1.3599,0.0,0.0,0.0,0.0,0.0,0.0,0.0,0.0,0.0,0.0,0.0,0.0,0.0,0.0,1.6308,1.7147,1.7595,1.7636,1.8545,1.8977,1.9031,1.9278,1.9443,1.9511,1.9508,0.0,1.6712,1.6685,0.0,0.0,0.0,0.0,0.0,0.0,0.0,0.0,0.0,0.0,0.0,0.0,0.0,0.0,0.0,0.0,0.0,0.0,0.0,0.0,0.0,0.0,1.5738,1.5978,1.6107,1.5903,0.0,1.3736,1.2597,1.1898,1.1276,0.0,0.0,0.0,0.0,0.0,0.0,0.0,1.3207,1.474,1.584,1.6081,1.6298,1.6461,1.6472,1.6201,1.5896,1.5535,1.4587,1.3823,1.3338,1.2303,0.0,0.0,0.0,0.0,0.0,0.0,0.0,0.0,0.0,0.0,0.0,0.0,0.0,0.0,0.0,0.0,0.0,0.0,0.0,0.0,0.0,0.0,0.0,0.0,0.0,0.0,0.0,0.0,0.0,1.4046,1.429,1.3681,1.4299,1.4402,0.0,0.0,0.0,0.0,0.0,0.0,0.0,0.0,0.0,1.6689,1.681,1.7283,1.811,1.8545,1.8925,1.925,1.9712,2.0033,2.0309,2.0295,2.0435,2.0634,2.0607,2.0068,1.9076,1.8111,1.7121,1.6162,0.0,0.0,0.0,0.0,1.533,1.5438,1.6239,1.6469,0.0,1.6754,0.0,0.0,0.0,0.0,0.0,0.0,0.0,0.0,0.0,0.0,1.7068,1.8101,1.8317,1.8245,1.7934,1.6596,1.4923,0.0,1.2211,1.1525,1.0656,0.0,0.0,0.0,0.0,1.3037,1.3558,1.4928,1.5907,1.6092,1.6331,1.6504,1.6504,1.6406,1.6157,1.5798,1.5124,1.4576,1.4217,1.3152,1.2083,0.0,0.0,0.0,0.0,0.0,0.0,0.0,0.0,0.0,0.0,0.0,0.0,0.0,0.0,0.0,0.0,0.0,0.0,0.0,0.0,0.0,0.0,0.0,0.0,0.0,0.0,0.0,0.0,1.4484,1.4832,1.4046,1.4828,1.4977,0.0,0.0,0.0,0.0,0.0,0.0,1.5943,1.6241,1.6945,1.8096,1.8205,1.8733,1.9735,1.979,2.0033,2.048,2.0508,2.0697,2.1055,2.0987,2.1068,2.1258,2.1163,2.1001,2.0748,1.9345,1.8164,1.7257,1.6863,1.6659,1.6605,1.6727,1.6795,1.6971,1.7962,1.8248,1.8139,1.8164,0.0,1.6971,1.6035,0.0,0.0,0.0,0.0,1.5681,1.7379,1.7871,1.8276,1.9637,1.996,1.9898,1.9726,1.8602,1.6911,0.0,1.3449,1.261,1.1645,0.0,0.0,0.0,0.0,1.3526,1.3917,1.5113,1.5961,1.6092,1.6331,1.6504,1.6504,1.6472,1.633,1.6037,1.5603,1.5222,1.4936,1.4042,1.3269,1.2659,0.0,0.0,0.0,0.0,0.0,0.0,0.0,0.0,0.0,0.0,0.0,0.0,0.0,0.0,0.0,0.0,0.0,0.0,0.0,0.0,0.0,0.0,0.0,0.0,0.0,0.0,0.0,0.0,0.0,1.5027,1.5916,0.0,0.0,0.0,0.0,1.5758,1.6481,1.7066,1.746,1.8219,1.8927,1.9566,1.9834,2.0214,2.0734,2.087,2.0933,2.096,2.1109,2.1177,2.1185,2.132,2.1388,2.1388,2.1388,2.1212,2.0933,2.0282,1.9576,1.8843,1.8503,1.8233,1.8017,1.8002,1.8097,1.8259,1.8776,1.8873,1.8859,1.9566,1.876,1.7527,1.7338,1.6686,0.0,0.0,1.6797,1.7609,1.8286,1.8866,1.9421,1.9952,2.0078,1.9905,1.927,1.8633,1.781,0.0,1.5113,1.3793,1.3116,0.0,1.2765,1.2623,1.3265,1.3928,1.4407,1.529,1.5961,1.6092,1.6331,1.6504,1.6504,1.6395,1.6288,1.6277,1.596,1.5698,1.5557,1.5066,1.4347,1.3359,1.277,0.0,0.0,0.0,0.0,0.0,0.0,0.0,0.0,0.0,0.0,0.0,0.0,0.0,0.0,0.0,0.0,0.0,0.0,0.0,0.0,0.0,0.0,0.0,0.0,0.0,0.0,0.0,0.0,1.5677,1.6931,0.0,0.0,1.6699,1.6902,1.6998,1.7785,1.8492,1.8925,1.9321,1.9783,2.0381,2.0503,2.0702,2.1055,2.1109,2.1158,2.1252,2.1307,2.132,2.1334,2.1516,2.1475,2.128,2.1597,2.1448,2.1001,2.096,2.044,1.9698,1.959,1.9413,1.925,1.9375,1.9413,1.9495,1.9735,1.9752,1.963,1.959,1.9101,1.8409,1.7894,1.7514,1.731,1.7528,1.7962,1.8531,1.9223,1.9698,2.0033,2.0304,2.0345,2.0322,2.0227,1.9517,1.8782,1.8415,1.687,1.5506,1.4998,1.4734,1.4417,1.3936,1.4232,1.462,1.4899,1.5461,1.5883,1.5952,1.6201,1.6364,1.6364,1.632,1.6222,1.605,1.5894,1.5731,1.56,1.536,1.4896,1.4233,1.389,1.282,0.0,0.0,0.0,0.0,0.0,0.0,0.0,0.0,0.0,0.0,0.0,0.0,0.0,0.0,0.0,0.0,0.0,0.0,0.0,0.0,0.0,0.0,0.0,0.0,0.0,0.0,1.7081,1.6685,1.7935,1.8543,1.788,1.8098,1.8329,1.8435,1.9045,1.9603,2.0041,2.0204,2.049,2.0919,2.0951,2.1041,2.1285,2.1285,2.1307,2.1401,2.1456,2.1516,2.1496,2.1699,2.1638,2.1462,2.1706,2.1617,2.1245,2.1435,2.1068,2.0404,2.0404,2.0282,2.0119,2.0336,2.0363,2.0349,2.0431,2.0376,2.0187,1.9817,1.9495,1.9128,1.8655,1.8451,1.8479,1.8708,1.8993,1.9375,1.9888,2.02,2.0386,2.0494,2.0508,2.0548,2.0661,2.0176,1.9683,1.963,1.7975,1.6486,1.6183,1.5713,1.5174,1.4522,1.4747,1.4994,1.5026,1.5483,1.5883,1.5952,1.6201,1.6374,1.6374,1.6188,1.6005,1.5909,1.5581,1.5415,1.5385,1.5168,1.4841,1.4467,1.3885,1.2873,1.1395,0.0,0.0,0.0,0.0,0.0,0.0,0.0,0.0,0.0,0.0,0.0,0.0,0.0,0.0,0.0,0.0,0.0,0.0,0.0,0.0,0.0,0.0,0.0,1.606,1.7392,1.8259,1.8138,1.8909,1.9451,1.9451,1.9223,1.9359,2.0078,2.0254,2.0471,2.0802,2.0933,2.1068,2.1218,2.1218,2.1285,2.1401,2.1401,2.1401,2.1429,2.1597,2.1699,2.1726,2.1862,2.1916,2.1869,2.178,2.1699,2.1685,2.1699,2.1441,2.1001,2.1014,2.0824,2.0548,2.0878,2.0892,2.0802,2.0802,2.0661,2.0494,2.0345,2.0037,1.9715,1.9715,1.9576,1.9451,1.9661,1.9905,2.0132,2.0264,2.0399,2.0508,2.0508,2.0508,2.0508,2.0508,2.0508,2.048,2.0331,1.8454,1.682,1.668,1.5863,1.5055,1.4467,1.4824,0.0,1.4783,1.5418,1.593,1.6081,1.6298,1.6472,1.6472,1.5927,1.5657,1.5896,1.5135,1.4816,1.4997,1.4563,1.4222,1.4037,1.2833,1.2025,1.1655,0.0,0.0,0.0,0.0,0.0,0.0,0.0,0.0,0.0,0.0,0.0,0.0,0.0,0.0,0.0,0.0,0.0,0.0,0.0,0.0,0.0,0.0,1.6632,1.6429,1.7718,1.8778,1.899,1.9925,2.0607,2.0684,2.0553,2.0526,2.0743,2.0783,2.0892,2.1082,2.1123,2.1198,2.1334,2.1334,2.1374,2.1401,2.1543,2.1631,2.1611,2.176,2.1862,2.1862,2.1991,2.1869,2.155,2.1869,2.1692,2.1218,2.1563,2.1495,2.1163,2.1252,2.1068,2.0716,2.0811,2.0743,2.0575,2.0575,2.0548,2.0494,2.0345,2.0241,2.0105,1.9888,1.9861,1.9902,1.9865,2.0037,2.025,2.0277,2.0399,2.0508,2.0508,2.0508,2.0508,2.0508,2.0508,2.0494,2.0453,1.9434,1.8467,1.8058,1.6959,1.6019,1.5667,1.5444,0.0,1.548,1.5687,1.5755,1.5603,1.5753,1.5851,1.5851,1.5516,1.5418,1.5657,1.5211,1.4943,1.5008,1.4831,1.4663,1.45,1.341,1.28,0.0,0.0,0.0,0.0,0.0,0.0,0.0,0.0,0.0,0.0,0.0,0.0,0.0,0.0,0.0,0.0,0.0,0.0,0.0,0.0,0.0,0.0,1.8716,1.9284,1.8319,1.9006,1.9797,2.0196,2.09,2.1421,2.155,2.1462,2.1367,2.1367,2.1367,2.1408,2.1489,2.1489,2.153,2.1611,2.1611,2.1611,2.1611,2.174,2.1794,2.1794,2.193,2.1977,2.1991,2.2127,2.2025,0.0,2.195,2.1774,2.1394,2.1617,2.1489,0.0,0.0,0.0,0.0,0.0,2.0607,2.0508,2.0508,2.0508,2.0494,2.0426,2.0345,2.0264,2.0119,2.0078,2.0105,2.0064,2.0187,2.0318,2.0372,2.044,2.0521,2.0602,2.0562,2.0521,2.0602,2.0562,2.0508,2.0508,1.9849,0.0,1.8861,1.7782,1.6701,1.5779,1.5777,1.5783,1.5587,1.5755,1.5894,1.5787,1.5916,1.5992,1.6027,1.557,0.0,0.0,0.0,1.4563,1.4422,1.4391,0.0,0.0,0.0,0.0,0.0,0.0,0.0,0.0,1.2536,1.2384,0.0,0.0,0.0,0.0,0.0,0.0,0.0,0.0,0.0,0.0,0.0,0.0,0.0,0.0,0.0,0.0,2.232,2.3034,2.1305,2.1265,2.1399,2.1448,2.1747,2.1964,2.2099,2.1977,2.1916,2.1916,2.1916,2.1916,2.1916,0.0,0.0,0.0,0.0,2.1916,2.1916,2.1896,2.193,2.1923,2.2059,2.2127,2.214,2.2241,2.2282,2.2268,2.2018,2.1916,2.1875,2.1753,2.1489,2.1231,2.1177,2.1082,2.0946,2.0616,2.0508,2.0508,2.0508,0.0,0.0,2.0508,2.0426,2.0318,2.0304,2.0241,2.0173,2.0264,2.0318,2.0345,2.048,2.0521,2.0594,2.0775,2.0661,2.0575,2.0775,2.0648,2.0508,2.0508,1.9938,1.9397,1.9242,1.8397,1.7187,1.5572,1.6094,1.6362,1.5531,1.5879,1.6231,1.6265,0.0,0.0,1.6538,1.5833,1.5516,1.5785,1.4831,1.4096,1.3776,1.3787,1.3689,1.3424,1.363,1.3874,1.4157,1.4417,1.4646,1.474,1.3225,1.283,0.0,0.0,0.0,0.0,0.0,0.0,0.0,0.0,0.0,0.0,0.0,0.0,0.0,0.0,0.0,2.1854,2.4921,2.6786,2.4885,2.492,2.4307,2.2057,2.195,2.2072,2.2113,2.1977,2.1916,2.1916,2.1916,2.1916,2.1916,2.1916,0.0,2.1916,2.1916,2.1916,2.1916,2.2004,2.2059,2.2072,0.0,0.0,2.2268,2.2282,2.2241,2.214,2.2099,2.1937,2.174,2.1726,2.157,2.132,2.1001,2.087,2.0816,2.0575,2.0508,2.0508,2.0508,2.0508,2.0508,2.0508,2.0494,2.044,2.0331,2.0345,0.0,2.0318,2.0386,2.048,2.0476,2.0634,2.0743,2.0802,2.0756,2.0743,2.0802,2.0648,2.0508,2.0508,2.0367,2.0065,1.9397,1.8536,1.7782,1.7314,1.7526,1.7474,1.6825,1.6938,1.6786,1.6067,1.5996,1.6061,1.6201,1.5798,1.5646,1.5885,1.5418,1.5008,1.4737,1.4939,1.4928,1.4672,1.4715,1.4802,1.4983,1.5019,1.5135,1.5262,1.4704,1.4504,0.0,0.0,0.0,0.0,0.0,0.0,0.0,0.0,0.0,0.0,0.0,2.0856,0.0,0.0,2.6897,2.6736,2.927,3.0612,2.8752,2.878,2.7338,2.2868,2.2344,2.2425,2.2642,2.2466,2.2392,2.2452,2.2337,2.2256,2.2256,2.214,2.2113,2.2113,2.2113,2.2113,2.2113,2.2181,2.2201,2.2201,2.2268,2.2309,2.2309,2.2309,2.2268,2.2221,2.214,2.2018,2.1882,2.1753,2.1658,2.153,2.1231,2.1055,2.096,2.0824,2.0738,2.0756,2.0689,2.0661,2.0616,2.0521,2.0508,2.0494,2.0426,2.0453,2.0494,2.0426,2.0453,2.0521,2.0634,2.0716,2.0843,2.096,2.0965,2.0919,2.0987,2.0878,2.0738,2.0738,2.0738,2.0628,2.0227,1.9776,1.9145,1.812,1.8275,1.8219,1.732,1.7368,1.7182,1.6351,1.631,1.6397,1.6538,1.6277,1.6103,1.6103,1.582,1.5583,1.5453,1.5548,1.5548,1.5453,1.5518,1.5572,1.5637,1.5722,1.5755,1.5744,1.569,1.5526,0.0,0.0,0.0,0.0,0.0,0.0,0.0,0.0,2.0304,2.4025,2.4096,2.4784,2.8966,3.0319,3.106,3.1779,3.3667,3.4399,3.2545,3.2019,3.0065,2.5209,2.4016,2.3489,2.3221,2.2981,2.2873,2.2995,2.2786,2.2636,2.2636,2.2479,2.239,2.239,2.2363,2.2371,2.2371,2.2323,2.2323,2.2371,2.2371,2.2371,2.2371,2.2371,2.2323,2.2309,2.2235,2.2167,2.2099,2.1875,2.178,2.1726,2.1483,2.1361,2.1285,2.1109,2.1014,2.0987,2.0897,2.0824,2.0816,2.0661,2.0575,2.0562,2.0562,2.0562,2.0562,2.0562,2.0575,2.0629,2.0783,2.087,2.0951,2.1163,2.1136,2.1109,2.119,2.1123,2.1041,2.1001,2.1001,2.1001,2.1001,2.1001,2.047,1.8887,1.912,1.9001,1.7771,1.78,1.7629,1.6776,1.6766,1.6896,1.6994,1.6788,1.6592,1.6396,1.6191,1.6061,1.6028,1.5983,1.5983,1.6019,1.6126,1.6222,1.6244,1.6342,1.6342,1.6244,1.6342,1.6201,1.8608,1.8664,0.0,2.1484,2.2609,2.3597,0.0,0.0,2.5469,2.6636,2.7547,2.8447,2.9354,3.2199,3.4252,3.3722,3.6494,3.7945,3.5782,3.3491,3.1858,3.1289,2.8866,2.6144,2.3463,2.3076,2.2995,2.3008,2.2846,2.2764,2.2764,2.2751,2.2723,2.2723,2.2636,2.2568,2.2568,2.2377,2.2377,2.2568,2.2568,2.2568,2.2568,2.2568,2.2466,2.2309,2.2466,2.2392,2.2113,2.2072,2.1991,2.1862,2.1543,2.1516,2.1617,2.1299,2.1109,2.1001,2.0987,2.0987,2.096,2.0946,2.0865,2.0756,2.0756,2.0756,2.0756,2.0756,2.0838,2.0946,2.096,2.1068,2.1177,2.1185,2.1266,2.132,2.1231,2.119,2.1131,2.1014,2.1001,2.1001,2.1001,2.1001,2.0922,2.0712,2.0744,2.0291,1.8898,1.8752,1.8311,1.7082,1.6973,1.6994,1.7005,1.6973,1.6875,1.6766,1.6701,1.6636,1.6538,1.6506,1.6506,1.6527,1.6538,1.6603,1.6701,1.6755,1.6755,1.6701,1.6755,1.657,2.1673,0.0,0.0,0.0,2.5188,2.6221,2.8834,2.8658,2.8465,3.0411,3.1289,3.1948,3.2568,3.4222,3.5676,0.0,3.7883,3.9032,3.8853,3.7913,3.6712,3.5333,3.3975,3.1298,2.6569,2.4358,2.3271,2.3402,2.3103,2.2927,2.2927,2.2832,2.2813,2.2813,2.2745,2.2731,2.2731,2.2628,2.2628,2.2731,2.2731,2.2731,2.2731,2.2731,2.2656,2.2601,2.2691,2.2628,2.2493,2.2411,2.2235,2.2004,2.1848,2.1706,2.1496,2.1361,2.1266,2.1212,2.1131,2.1123,2.1109,2.1041,2.096,2.0919,2.0919,2.0919,2.0919,2.0919,2.0946,2.1014,2.1109,2.1163,2.1231,2.128,2.1361,2.1388,2.132,2.132,2.1307,2.1225,2.1225,2.1225,2.1225,2.134,2.1353,2.1258,2.0717,1.985,1.843,1.8326,1.8082,1.7323,1.7277,1.7288,1.7245,1.7212,1.7223,1.7169,1.7169,1.7147,1.7124,1.7092,1.706,1.706,1.6918,1.6842,1.694,1.6853,1.6788,1.6788,1.6788,1.6701,2.4242,0.0,0.0,2.748,2.797,2.9071,3.2075,3.164,3.1216,3.3371,3.3992,3.4407,3.5277,3.5808,0.0,3.8152,3.8932,3.9695,4.0731,4.0235,3.9327,3.812,3.5744,3.2849,2.9368,2.6415,2.4391,2.3678,2.328,2.3063,2.3063,2.2954,2.29,2.29,2.2873,2.2846,2.2846,2.284,2.284,2.2846,2.2846,2.2846,2.2846,2.284,2.2813,2.2813,2.2813,2.2813,2.2764,2.2568,2.233,2.2133,2.2045,2.1787,2.1483,2.151,2.1483,2.1388,2.128,2.1252,2.1225,2.1131,2.1082,2.1055,2.1055,2.1055,2.1055,2.1055,2.1082,2.1136,2.1212,2.1299,2.1367,2.1475,2.1537,2.1578,2.157,2.1564,2.1564,2.1516,2.1496,2.1543,2.1483,2.1638,2.1659,2.1303,2.0619,1.9694,1.8385,1.7985,1.7734,1.7453,1.7484,1.7461,1.7418,1.7418,1.7418,1.7418,1.7474,1.7484,1.7504,1.7484,1.7474,1.7418,1.7244,1.7136,1.7103,1.7016,1.6951,1.6918,1.6918,1.6918,0.0,0.0,2.9525,3.0609,3.1835,3.3043,3.3919,3.4084,3.4224,3.4842,3.4963,3.5277,3.6364,3.6775,3.7372,3.8659,3.9777,4.0573,4.0862,3.8621,3.7689,3.9771,3.2437,2.8258,0.0,2.9184,2.6631,2.3637,2.3271,2.3189,2.3189,2.3198,2.3198,2.3198,2.304,2.2973,2.2973,2.2846,2.2859,2.2973,2.2973,2.2973,2.2995,2.2846,2.2813,2.2813,2.2813,2.2813,2.2751,2.2303,2.2194,2.2255,2.1842,2.1699,2.1726,2.1848,2.1692,2.1401,2.1401,2.1368,2.1368,2.1388,2.1307,2.1185,2.1185,2.1185,2.1185,2.1185,2.128,2.1388,2.1368,2.1543,2.1685,2.1699,2.1882,2.2025,2.1896,2.1991,2.2004,2.172,2.1807,2.1828,2.1726,2.1807,2.1632,2.0921,2.0786,2.04,1.9389,1.8182,1.743,1.7493,1.7504,1.7504,1.7504,1.7504,1.7504,1.7504,1.7612,1.7634,1.7504,1.7612,1.7612,1.7504,1.7493,1.7439,1.7376,1.7376,1.7321,1.7179,1.7179,1.7179,0.0,0.0,3.0588,3.2208,3.3465,3.4504,3.5132,3.5543,3.5736,3.5567,3.4842,3.431,3.4668,3.4842,3.5373,3.6871,3.8144,3.9351,4.0476,3.9827,3.947,4.0037,3.7635,0.0,0.0,0.0,0.0,2.3465,2.3271,2.3189,2.3189,2.3189,2.3189,2.3189,2.3171,2.3122,2.3122,2.3103,2.3103,2.3122,2.3122,2.3122,2.3122,2.3103,2.3076,2.3076,2.3076,2.3076,2.3063,2.29,2.2764,2.2628,2.2466,2.2256,2.1964,2.2018,2.1896,2.172,2.1625,2.1597,2.1584,2.1442,2.1475,2.1489,2.1361,2.1435,2.1549,2.1549,2.1625,2.1747,2.1747,2.1774,2.1848,2.1848,2.1916,2.195,2.1896,2.1957,2.1937,2.1862,2.1875,2.1903,2.1848,2.1937,2.1929,2.1691,2.0795,1.9824,1.895,1.8535,1.815,1.7692,1.781,1.7832,1.7645,1.7699,1.7777,1.7777,1.771,1.7743,1.7886,1.7777,1.7678,1.7634,1.7547,1.7493,1.7484,1.7484,1.7451,1.7407,1.7342,1.7332,0.0,3.0708,3.1891,3.3779,3.4769,3.5422,3.5977,3.6298,3.6364,3.6002,3.4644,3.3557,3.375,3.334,3.3561,3.5446,3.6902,3.837,4.0114,4.0355,4.0211,3.9873,3.894,3.7428,0.0,0.0,0.0,2.6344,2.6353,2.588,2.4897,2.4847,2.436,2.3225,2.3244,2.3271,2.3271,2.3271,2.3244,2.3189,2.3189,2.3189,2.3189,2.3189,2.3189,2.3189,2.3135,2.3171,2.3198,2.3049,2.294,2.2846,2.2696,2.2479,2.2276,2.2221,2.2099,2.1937,2.1835,2.178,2.1753,2.1638,2.1665,2.1753,2.1638,2.1665,2.178,2.178,2.1848,2.1916,2.1916,2.1957,2.1964,2.1964,2.2004,2.2045,2.2045,2.2045,2.2018,2.1977,2.2004,2.2018,2.1977,2.2181,2.2357,2.2357,2.1557,2.0592,1.9606,1.9073,1.8639,1.8202,1.8136,1.8016,1.7864,1.7962,1.8027,1.8027,1.7962,1.7973,1.816,1.8027,1.7929,1.7853,1.781,1.7734,1.758,1.758,1.7547,1.7504,1.7451,1.743,3.0684,3.2109,3.3561,3.5349,3.5808,3.5977,3.6467,3.6364,3.6171,3.6122,3.4378,3.3054,0.0,0.0,3.2184,3.4576,3.6122,3.7765,3.9801,4.0124,3.9921,0.0,0.0,0.0,0.0,0.0,0.0,3.2094,0.0,3.0299,2.7688,2.7562,2.6206,2.3297,2.3325,2.342,2.3393,2.3393,2.3325,2.3203,2.3189,2.3189,2.3189,2.3189,2.3189,2.3189,2.3076,2.3068,2.3185,2.2799,2.2764,2.2981,2.2512,2.2452,2.2582,2.2377,2.2214,2.2099,2.195,2.193,2.1896,2.1916,2.1916,2.1896,2.1916,2.1916,2.1896,2.1896,2.193,2.193,2.193,2.2004,2.2092,2.2092,2.2201,2.2309,2.2309,2.2309,2.2268,2.2167,2.2241,2.2282,2.216,2.252,2.284,2.284,2.2927,2.2523,2.1224,1.982,1.8961,1.9007,1.8506,1.8163,1.8128,1.8226,1.8291,1.8291,1.828,1.828,1.828,1.8353,1.8274,1.8106,1.8226,1.8106,1.7734,1.7699,1.7634,1.7515,1.7515,1.7484,3.2353,3.3924,3.5156,3.5416,3.5947,3.6316,3.6074,3.5947,3.5736,3.5132,3.2978,3.1384,0.0,0.0,0.0,3.4044,3.6364,0.0,3.9907,4.0283,0.0,0.0,0.0,3.8504,3.81,3.7114,0.0,0.0,3.0099,2.491,2.4403,2.436,2.4001,2.3225,2.3325,2.3366,2.3244,2.3244,2.3271,2.3366,2.3244,2.3189,2.3189,2.3189,2.3189,2.3189,2.3149,2.3185,2.3198,2.3103,2.3103,2.3122,2.2927,2.2805,2.2745,2.2582,2.2411,2.2241,2.2201,2.214,2.2045,2.1923,2.195,2.2018,2.1923,2.1964,2.2059,2.2059,2.2127,2.2221,2.2221,2.2214,2.2255,2.2255,2.2268,2.2309,2.2309,2.2309,2.2323,2.246,2.2656,2.2837,2.2927,2.3022,2.3117,2.3117,2.3122,2.275,2.1652,2.1179,2.0526,1.9425,1.9143,1.8848,1.8283,1.8193,1.8193,1.8291,1.8128,1.8062,1.8149,1.8182,1.8147,1.8106,1.8138,1.8106,1.7995,1.7908,1.7819,1.781,1.7688,1.7647,3.3561,3.4673,3.5518,3.5832,3.6098,3.6026,3.5247,3.5006,3.4528,3.315,3.1071,0.0,0.0,0.0,0.0,0.0,0.0,0.0,3.9665,4.0259,4.0452,0.0,4.0163,0.0,3.968,3.8847,3.8405,0.0,3.252,2.8295,2.7245,2.594,2.4625,2.3343,2.3433,2.351,2.3415,2.3415,2.3402,2.3311,2.3253,2.3189,2.3189,2.3189,2.3189,2.3189,0.0,2.3189,2.3189,2.3189,2.3189,2.3198,2.3063,2.2995,2.294,2.2759,2.2642,2.2593,2.2479,2.2371,2.2289,2.2127,2.214,2.216,2.2113,2.214,2.2187,2.2187,2.2316,2.2425,2.2425,2.2479,2.2534,2.2534,2.2534,2.2534,2.2534,2.2534,2.2547,2.2677,2.29,2.3122,2.3257,2.3393,2.3483,2.3429,2.347,2.3207,2.2452,2.2027,2.1431,2.0532,1.986,1.9304,1.8822,1.8501,1.8299,1.8291,1.816,1.8128,1.8193,1.8237,1.819,1.8106,1.819,1.8158,1.8005,1.7995,1.7973,1.7973,1.7908,1.7853,3.4576,3.5132,3.5572,3.6388,3.6267,3.5591,3.4334,3.3827,3.2978,3.0877,0.0,2.8391,2.9332,2.8753,2.9332,3.3078,0.0,3.6944,3.9415,4.0187,4.0548,4.0597,4.038,4.0211,4.0259,3.81,3.6789,3.7077,3.6717,3.5304,3.2496,2.9856,2.7102,2.4187,2.424,2.414,2.3778,2.3687,2.3524,2.328,2.3253,2.3217,2.3217,2.3244,2.328,2.328,2.3253,2.3217,2.3217,2.3225,2.3189,2.3198,2.3063,2.3076,2.3135,2.2886,2.2873,2.294,2.2691,2.2623,2.2623,2.2398,2.2323,2.2336,2.2336,2.2336,2.2363,2.2363,2.2479,2.2623,2.2623,2.2731,2.2818,2.2818,2.2832,2.2832,2.2832,2.2908,2.2935,2.2954,2.3185,2.3379,2.3542,2.3809,2.3944,2.3822,2.389,2.3809,2.3366,2.2611,2.2037,2.1824,2.0703,1.9835,1.9528,1.9055,1.8646,1.8378,1.8345,1.8335,1.8324,1.8397,1.8353,1.8125,1.8321,1.8253,1.7973,1.8071,1.8149,1.8138,1.8149,1.806,3.6032,3.6781,3.721,3.6726,3.6533,3.5911,3.373,3.2809,0.0,0.0,0.0,2.8053,2.9742,2.9887,0.0,3.4475,0.0,0.0,0.0,0.0,4.0669,0.0,0.0,0.0,0.0,0.0,0.0,0.0,0.0,3.5754,3.2776,3.2154,3.0582,2.778,2.7632,2.6447,2.4039,2.3636,2.3524,2.3592,2.3433,2.3379,2.3379,2.3537,2.3592,2.3592,2.3433,0.0,2.3366,2.3244,2.3189,2.3198,2.3063,2.3022,2.3022,2.2846,2.2805,2.2805,2.2663,2.2745,2.2873,2.2431,2.2411,2.2555,2.2555,2.2636,2.271,2.271,2.2723,2.2786,2.2786,2.2846,2.2981,2.2981,2.3063,2.3122,2.3122,2.3347,2.3592,2.3836,2.3989,2.4151,2.4351,2.4443,2.4484,2.4457,2.4338,2.4151,2.3962,2.3617,2.3074,2.2263,2.1987,2.1336,2.0158,1.9789,1.9323,1.8763,1.8603,1.8506,1.8372,1.8491,1.8491,1.835,1.8372,1.8372,1.8307,1.8329,1.8332,1.8269,1.8332,1.831,3.6582,3.7065,3.7331,3.7065,3.6582,3.547,3.2788,0.0,0.0,0.0,0.0,2.6968,2.8295,0.0,0.0,0.0,0.0,0.0,0.0,0.0,0.0,0.0,0.0,0.0,0.0,0.0,0.0,0.0,0.0,3.8294,3.5398,3.2273,2.9213,2.6258,2.6163,2.5469,2.3999,2.3782,2.3687,2.3723,2.3605,2.3578,2.3578,2.3646,2.3723,2.3687,2.3605,2.3578,2.3551,2.3483,2.3415,2.3298,2.3244,2.3185,2.3117,2.3049,2.3063,2.3081,2.2954,2.3049,2.3149,2.2783,2.2723,2.2813,2.2731,2.2759,2.2813,2.2813,2.2954,2.3117,2.3022,2.3293,2.3542,2.3483,2.3578,2.3664,2.3664,2.3809,2.3944,2.408,2.4365,2.4596,2.4702,2.4758,2.4772,2.4729,2.4568,2.4392,2.4124,2.4134,2.3887,2.3107,2.2653,2.2105,2.1375,2.0499,1.9822,1.9354,1.8875,1.8524,1.8405,1.8459,1.8462,1.8343,1.8372,1.8372,1.8343,1.8372,1.8405,1.8451,1.847,1.8538,3.7041,3.7306,3.7306,3.7427,3.6726,3.5156,3.2039,3.0902,0.0,0.0,2.5569,2.6003,2.692,0.0,0.0,0.0,0.0,0.0,0.0,0.0,0.0,0.0,0.0,0.0,0.0,0.0,0.0,0.0,0.0,0.0,3.8777,3.2916,2.8857,2.7101,2.5806,2.5113,2.506,2.4328,2.3877,2.3727,2.3727,2.3727,2.3727,2.3768,2.3754,2.375,2.37,0.0,2.3632,2.3592,2.351,2.3366,2.3366,2.3284,2.3189,2.3217,2.3311,2.3393,2.3271,2.3366,2.346,2.3162,2.3076,2.3022,2.29,2.29,2.294,2.299,2.3253,2.3487,2.3402,2.3731,2.4134,2.4053,2.4121,2.4229,2.4219,2.4243,2.4229,2.4297,2.4596,2.484,2.484,2.4989,2.5057,2.4921,2.4758,2.462,2.4392,2.4473,2.4443,2.3958,2.3309,2.2762,2.2436,2.1388,2.0496,1.9898,1.9293,1.8814,1.8491,1.8502,1.8495,1.84,1.8462,1.8495,1.8487,1.856,1.8643,1.8741,1.8763,1.8832,3.7814,3.8281,3.8063,3.7814,3.7137,3.5543,3.1894,0.0,0.0,2.6054,2.5403,2.5813,2.7137,0.0,0.0,0.0,0.0,0.0,0.0,0.0,0.0,0.0,0.0,0.0,0.0,0.0,0.0,0.0,0.0,0.0,4.2085,3.6326,3.4356,3.7162,3.1571,2.8611,2.8707,2.564,2.4012,2.3877,2.3877,2.3877,2.3877,2.4012,2.3999,2.3863,2.3727,0.0,0.0,2.3298,2.3253,2.3203,2.3203,2.3203,2.3203,2.3338,2.3393,2.342,2.3393,2.3569,2.3809,2.346,2.3271,2.3162,2.3185,2.3244,2.3379,2.3551,2.3714,2.3863,2.3836,2.4043,2.4314,2.4511,2.4552,2.4606,2.4704,2.4661,2.4634,2.488,2.4962,2.4964,2.4964,2.5233,2.5369,2.5181,2.5032,2.4977,2.5111,2.4786,2.4634,2.4691,2.4384,2.3779,2.2912,2.261,2.1768,2.0153,2.0109,1.9743,1.8803,1.8901,1.8901,1.8745,1.8745,1.8901,1.9108,1.918,1.9218,1.9229,1.9338,1.9348,3.75,3.8281,3.8377,3.8111,3.7427,3.5905,3.2302,0.0,2.9525,2.6317,2.5641,2.5788,2.6341,2.6606,0.0,0.0,0.0,0.0,0.0,0.0,0.0,0.0,0.0,0.0,0.0,0.0,0.0,0.0,0.0,0.0,4.2888,3.9052,3.6554,3.6026,3.3387,3.2032,3.2269,2.8738,2.6994,2.7077,2.4996,2.4039,2.4039,2.408,2.408,2.4039,2.3958,2.3904,0.0,2.3745,2.366,2.351,2.351,2.3375,2.3203,2.3366,2.3474,2.3569,2.3687,2.3863,2.3999,2.3782,2.365,2.3605,2.3524,2.3537,2.3632,2.3768,2.3904,2.4039,2.4039,2.4243,2.4514,2.4663,2.4704,2.4718,2.4772,2.4813,2.488,2.4964,2.5233,2.5423,2.5423,2.5518,2.5586,2.5518,2.5369,2.5301,2.5355,2.5259,2.5136,2.5057,2.4704,2.4333,2.3977,2.3421,2.2617,2.1364,2.0852,2.0194,1.9261,1.9162,1.9097,1.9054,1.9054,1.9097,1.9195,1.9267,1.9327,1.9441,1.9484,1.9452,3.721,3.8249,3.8595,3.8539,3.7524,3.5736,0.0,3.1046,2.9332,2.651,2.5931,2.5955,2.6027,2.61,2.6365,0.0,0.0,2.8801,0.0,0.0,0.0,0.0,0.0,0.0,0.0,0.0,0.0,0.0,0.0,0.0,4.3418,4.1684,3.9546,3.717,3.4132,3.3126,3.4359,2.9833,2.7625,2.7724,2.5259,2.4083,2.4083,2.4083,2.407,2.4053,2.4053,2.4039,0.0,2.3907,2.3772,2.3605,2.3605,2.3483,2.3271,2.3474,2.365,2.3836,2.3985,2.4121,2.4229,2.4066,2.4053,2.4066,2.3931,2.3822,2.3805,2.3931,2.4066,2.4192,2.4314,2.4514,2.4702,2.4826,2.4867,2.4867,2.4867,2.491,2.5005,2.5032,2.5369,2.5627,2.5627,2.5694,2.5749,2.5694,2.5599,2.5545,2.5625,2.5558,2.545,2.5369,2.5082,2.4797,2.462,2.4101,2.3377,2.234,2.1596,2.0754,1.9774,1.946,1.9282,1.9212,1.9282,1.9315,1.9348,1.9441,1.9549,1.9658,1.9658,1.9647,3.7161,3.837,3.8708,3.9182,3.734,3.4938,0.0,3.0733,2.8464,2.6582,2.6196,2.6268,2.6536,2.6823,2.7089,2.7354,0.0,0.0,0.0,0.0,0.0,0.0,0.0,0.0,0.0,0.0,0.0,0.0,0.0,0.0,4.4083,4.4311,4.4178,4.3611,3.4339,3.0996,3.4455,2.7951,2.4525,2.4351,2.4189,2.4083,2.4083,2.4083,2.4039,2.389,2.389,2.3822,0.0,2.3487,2.342,2.342,2.342,2.342,2.3447,2.3782,2.3985,2.4134,2.426,2.4433,2.4566,2.4341,2.4433,2.4566,2.4341,2.4097,2.3931,2.4066,2.4192,2.4422,2.4856,2.4894,2.4826,2.4989,2.4977,2.4977,2.4977,2.4977,2.5057,2.5154,2.5355,2.5503,2.5503,2.5708,2.5844,2.5708,2.5694,2.5749,2.5884,2.568,2.5558,2.5667,2.5545,2.5259,2.4661,2.4704,2.4186,2.2783,2.2315,2.156,2.0358,1.9789,1.9414,1.9284,1.9441,1.956,1.9691,1.9838,1.993,2.0,2.0,1.9973,3.3461,3.4576,3.4987,3.4764,3.4117,3.2954,3.0877,2.9815,2.8729,2.6872,2.6463,2.651,2.6584,2.6656,2.7233,2.8801,2.9405,0.0,0.0,0.0,0.0,0.0,0.0,0.0,0.0,0.0,0.0,0.0,0.0,0.0,4.3528,4.348,4.2527,4.0658,3.7587,3.5462,3.4493,2.9825,2.7535,2.7597,2.5259,2.4083,2.4083,2.4083,2.408,2.4053,2.4053,2.4012,2.3985,2.3894,2.3799,2.3754,2.3754,2.37,2.3632,2.3822,2.3931,2.3985,2.4134,2.426,2.4392,2.4205,2.4365,2.4606,2.4514,2.4457,2.4403,2.4443,2.446,2.4528,2.4702,2.4826,2.4935,2.488,2.4977,2.5099,2.5043,2.5179,2.5342,2.5408,2.5586,2.5762,2.5762,2.583,2.5884,2.5844,2.5925,2.5966,2.5898,2.5925,2.5871,2.5708,2.5722,2.5599,2.5259,2.5125,2.4669,2.3764,2.3519,2.2757,2.1337,2.0924,2.0432,1.9772,1.9778,1.9778,1.986,1.9892,1.9925,1.993,1.993,1.9897,3.1674,3.2857,3.3368,3.3247,3.2691,3.1747,3.0202,2.9308,2.8415,2.7018,2.6753,2.6753,2.6753,2.6825,2.7354,2.8681,0.0,0.0,0.0,0.0,0.0,0.0,0.0,0.0,0.0,0.0,0.0,0.0,0.0,0.0,4.3274,4.3238,4.1901,3.8998,3.8811,3.7928,3.6141,3.1325,2.8978,2.9075,2.5706,2.4083,2.4083,2.4083,2.4083,2.4083,2.4083,2.4083,0.0,2.4053,2.3985,2.389,2.389,2.3877,2.3863,2.3944,2.4053,2.4161,2.4151,2.4314,2.4449,2.4338,2.4487,2.4783,2.4786,2.4772,2.4718,2.4702,2.4729,2.4758,2.4813,2.4948,2.5045,2.5057,2.5179,2.5301,2.522,2.5369,2.5585,2.5585,2.5749,2.5925,2.5979,2.5993,2.5993,2.5993,2.6034,2.6034,2.5925,2.5993,2.5966,2.5803,2.5844,2.583,2.568,2.5532,2.5214,2.4597,2.4295,2.3666,2.263,2.1843,2.1175,2.0572,2.0205,1.9995,1.9995,1.9995,1.9984,1.993,1.9925,1.9897,0.0,3.2595,3.3078,3.3561,3.2426,3.0998,3.0491,2.9042,0.0,2.7137,2.704,2.704,2.7016,2.7209,2.7402,2.7523,0.0,0.0,0.0,0.0,0.0,0.0,0.0,0.0,0.0,0.0,0.0,0.0,0.0,0.0,4.3286,4.3504,4.2151,3.8818,3.8708,3.8617,3.8468,3.2347,2.9336,2.9282,2.599,2.4405,2.4405,2.4195,2.4083,0.0,2.4083,2.4083,2.4107,2.3958,2.3904,2.3904,2.3931,2.4012,2.4097,2.4097,2.4311,2.4566,2.4368,2.4503,2.4758,2.4674,2.4786,2.5057,2.5154,2.5099,2.5003,2.488,2.4935,2.5032,2.5181,2.5247,2.5262,2.5462,2.5517,2.5544,2.5517,2.5599,2.5708,2.5708,2.5817,2.5952,2.6075,2.6102,2.6102,2.6102,2.6102,2.6061,2.5939,2.5925,2.5925,2.5898,2.5898,2.5898,2.5898,2.5898,2.5722,2.5275,2.4794,2.4358,2.4087,2.2654,2.1786,2.1541,2.0677,2.0184,2.0213,2.0184,2.0119,1.9989,1.993,1.9941,2.8295,0.0,2.8536,2.8657,2.8657,2.856,0.0,2.8149,2.7956,0.0,0.0,0.0,0.0,0.0,0.0,0.0,0.0,0.0,0.0,0.0,0.0,0.0,0.0,0.0,0.0,0.0,0.0,0.0,0.0,4.2985,4.2985,4.3033,4.2707,4.1876,4.184,3.9621,3.4944,3.3275,3.2446,3.2409,2.9218,2.7684,2.761,2.5188,2.4083,2.4083,2.4083,2.4083,2.4083,2.408,2.4066,2.4043,2.4151,2.4219,2.426,2.426,2.43,2.4368,2.4327,2.4436,2.4688,2.484,2.5043,2.5154,2.5181,2.5181,2.5192,2.5287,2.5247,2.522,2.5369,2.5491,2.5572,2.5517,2.568,2.5762,2.5693,2.5749,2.5844,2.5844,2.5966,2.6061,2.6088,2.6237,2.6346,2.6346,2.6346,2.6251,2.6101,2.6034,2.602,2.5925,2.5898,2.5898,2.5898,2.5898,2.5898,2.5885,2.5684,2.527,2.4628,2.4062,2.3153,2.1818,2.0855,2.0267,2.0043,2.0141,2.0115,1.9919,1.9973,1.9978,2.6992,2.7282,2.7571,2.7716,2.8029,2.827,2.786,0.0,0.0,0.0,0.0,0.0,0.0,0.0,0.0,0.0,0.0,0.0,0.0,0.0,0.0,0.0,0.0,0.0,0.0,0.0,0.0,0.0,0.0,4.2888,4.2888,4.2888,4.2888,4.2888,4.2888,4.1287,3.7957,3.6422,3.5652,3.5595,3.0993,2.8778,2.8704,2.5546,2.4083,2.4083,2.4083,2.4083,2.4083,2.4083,2.4161,2.4192,2.4205,2.4327,2.4503,2.4368,2.4395,2.4503,2.4473,2.4541,2.4742,2.491,2.5165,2.5342,2.5342,2.5423,2.5532,2.5517,2.5491,2.5545,2.5572,2.5667,2.5762,2.5694,2.5749,2.5817,2.5884,2.5898,2.5939,2.6115,2.6183,2.6237,2.6237,2.6359,2.6468,2.6414,2.64,2.6346,2.6142,2.6034,2.5993,2.5925,2.5898,2.5898,2.5898,2.5966,2.6006,2.602,2.6006,2.5779,2.5336,2.479,2.3675,2.1951,2.1421,2.0838,2.0173,2.0332,2.0267,2.0039,2.0054,2.0054,2.6753,2.7499,2.8294,2.8343,2.8657,2.8777,2.8222,0.0,0.0,0.0,0.0,0.0,0.0,0.0,0.0,0.0,0.0,0.0,0.0,0.0,0.0,0.0,0.0,0.0,0.0,0.0,0.0,0.0,0.0,4.2888,4.2888,4.2888,4.2888,4.2888,4.2888,4.2888,4.2888,4.0241,3.8659,3.815,3.2299,2.9259,2.8704,2.5546,2.4083,2.4083,0.0,0.0,2.4083,2.4083,2.4165,2.43,2.4229,2.4433,2.4758,2.4476,2.4544,2.4772,2.465,2.4704,2.484,2.5003,2.5233,2.5503,2.553,2.5708,2.5884,2.5639,2.5708,2.5871,2.5762,2.583,2.5939,2.5898,2.583,2.5817,2.6007,2.5993,2.5979,2.6278,2.6346,2.6373,2.6373,2.6454,2.6549,2.6454,2.6414,2.6346,2.6183,2.602,2.5925,2.5898,2.5898,2.5898,2.5898,2.6061,2.6101,2.5925,2.6047,2.602,2.5898,2.5056,2.3883,2.2334,2.2107,2.1529,2.0639,2.0619,2.0474,2.0217,2.0217,2.0141,2.7499,2.8053,2.8319,2.7475,2.7957,2.8464,0.0,0.0,0.0,0.0,0.0,0.0,0.0,0.0,0.0,0.0,0.0,0.0,0.0,0.0,0.0,0.0,0.0,0.0,0.0,0.0,0.0,0.0,0.0,4.2888,4.2888,4.2888,4.2888,4.2888,4.2888,4.2888,4.2888,4.2432,4.0856,3.815,3.4518,3.138,2.8704,2.5546,2.4083,2.4083,0.0,2.4083,2.4083,2.4083,2.4165,2.429,2.446,2.4661,2.4786,2.4745,2.4758,2.4786,2.4797,2.4867,2.5003,2.5126,2.5315,2.5517,2.5627,2.5871,2.602,2.5884,2.5871,2.5898,2.5871,2.5993,2.602,2.5939,2.5993,2.6007,2.5952,2.5925,2.5925,2.5952,2.6074,2.6169,2.6169,2.6291,2.6468,2.6563,2.6468,2.64,2.6373,2.6183,2.6047,2.5925,2.5898,2.5898,2.5898,2.6169,2.6196,2.5925,2.6047,2.602,2.5898,2.5056,2.4455,2.4189,2.2756,2.1883,2.1677,2.0942,2.0517,2.0376,2.0376,2.0311,2.7306,2.786,2.8391,2.8488,2.8874,2.9091,0.0,0.0,0.0,0.0,0.0,0.0,0.0,0.0,0.0,0.0,0.0,0.0,0.0,0.0,0.0,0.0,0.0,0.0,0.0,0.0,0.0,0.0,0.0,0.0,4.2888,4.2888,4.2888,4.2888,4.2888,4.2888,4.2888,4.2888,4.2143,4.0698,3.7547,3.4389,3.125,2.8149,2.5781,2.4083,0.0,2.4151,2.4121,2.4165,2.43,2.4473,2.4541,2.4688,2.4786,2.4786,2.484,2.4921,2.4921,2.5003,2.5099,2.5181,2.5396,2.5599,2.5667,2.583,2.5993,2.5925,2.5952,2.6006,2.5925,2.5952,2.6006,2.602,2.5952,2.5939,2.6115,2.602,2.5952,2.6155,2.6196,2.6251,2.6251,2.6414,2.6549,2.659,2.6563,2.6509,2.6509,2.6346,2.6224,2.6196,2.6074,2.602,2.602,2.6156,2.6224,2.6156,2.6061,2.5966,2.5898,2.5511,2.5096,2.4615,2.3813,2.2945,2.1952,2.1563,2.1055,2.0506,2.0506,2.043,2.7257,2.7716,2.8487,0.0,0.0,0.0,0.0,0.0,0.0,0.0,0.0,0.0,0.0,0.0,0.0,0.0,0.0,0.0,0.0,0.0,0.0,0.0,0.0,0.0,0.0,0.0,0.0,0.0,0.0,0.0,4.2888,4.2888,4.2888,4.2888,4.2888,4.2888,4.2888,4.2888,4.2528,4.1782,3.9415,3.6626,3.3419,3.0457,2.7662,2.5165,2.457,2.4219,2.4097,2.4205,2.4406,2.4606,2.4606,2.4691,2.484,2.488,2.4962,2.5032,2.5111,2.5192,2.5287,2.5315,2.5491,2.5694,2.5722,2.5844,2.5952,2.5925,2.6006,2.6061,2.5939,2.5939,2.5966,2.602,2.5939,2.5884,2.6223,2.6061,2.5993,2.6251,2.6346,2.6332,2.64,2.6495,2.6577,2.6617,2.6617,2.6617,2.6617,2.6522,2.6441,2.64,2.6251,2.6156,2.6197,2.6196,2.6251,2.6441,2.6169,2.5993,2.5952,2.5925,2.5577,2.4909,2.4695,2.3946,2.2655,2.2228,2.1648,2.099,2.0768,2.0561,2.798,2.8149,2.8584,3.0153,0.0,0.0,0.0,0.0,0.0,0.0,0.0,0.0,0.0,0.0,0.0,0.0,0.0,0.0,0.0,0.0,0.0,0.0,0.0,0.0,0.0,0.0,0.0,0.0,0.0,0.0,4.2888,4.2888,4.2888,4.2888,4.2888,4.2888,4.2888,4.2888,4.1421,3.855,3.8548,3.6807,3.3419,3.0631,2.9044,2.8329,2.5508,2.4219,2.4083,2.4097,2.4297,2.4606,2.4606,2.4783,2.4977,2.5138,2.5181,2.5194,2.5408,2.549,2.5503,2.5599,2.5667,2.5708,2.5844,2.5993,2.6074,2.5939,2.6006,2.6061,2.5939,2.6006,2.6074,2.5952,2.6006,2.6061,2.5952,2.5925,2.5952,2.6075,2.6102,2.6156,2.6386,2.64,2.6454,2.659,2.6617,2.6617,2.6617,2.659,2.6549,2.6414,2.6386,2.6441,2.6536,2.6454,2.6454,2.659,2.6454,2.6278,2.6075,2.5979,2.5858,2.5818,2.5016,2.4599,2.4606,2.2828,2.2062,2.2165,2.1244,2.0731,2.7643,2.7812,0.0,0.0,0.0,0.0,0.0,0.0,0.0,0.0,0.0,0.0,0.0,0.0,0.0,0.0,0.0,0.0,0.0,0.0,0.0,0.0,0.0,0.0,0.0,0.0,0.0,0.0,0.0,0.0,4.2888,4.2888,4.2888,4.2888,4.2888,4.2888,4.2888,4.3093,4.2467,4.1132,4.1225,3.9761,3.6902,3.5576,3.2812,2.8994,2.7731,2.6061,2.4219,2.4219,2.4433,2.4704,2.4704,2.4826,2.5016,2.507,2.5126,2.5247,2.5449,2.5532,2.5627,2.5667,2.5749,2.583,2.5884,2.5939,2.5979,2.5925,2.5939,2.5966,2.5925,2.6006,2.6075,2.602,2.6061,2.6102,2.6183,2.6115,2.6101,2.6237,2.6278,2.6332,2.6509,2.6522,2.6577,2.6698,2.6712,2.6712,2.6712,2.6712,2.6698,2.6644,2.6549,2.6522,2.6617,2.6563,2.659,2.6712,2.6522,2.6386,2.6278,2.6129,2.6101,2.6223,2.5765,2.536,2.4963,2.4262,2.336,2.2281,2.19,2.1376,2.7547,2.7643,0.0,0.0,0.0,0.0,0.0,0.0,0.0,0.0,0.0,0.0,0.0,0.0,0.0,0.0,0.0,0.0,0.0,0.0,0.0,0.0,0.0,0.0,0.0,0.0,0.0,0.0,0.0,0.0,0.0,4.2888,4.2888,4.2888,4.2888,4.2888,4.2888,4.3093,4.3105,4.3009,4.2948,4.1971,4.0189,3.9043,3.6141,3.2,3.0957,2.9245,2.714,2.613,2.5339,2.4718,2.4772,2.488,2.5005,2.5125,2.522,2.5342,2.5532,2.5667,2.5762,2.5817,2.5871,2.5925,2.5952,2.5939,2.5898,2.5898,2.5898,2.5898,2.5898,2.5979,2.602,2.602,2.602,2.6101,2.6251,2.6196,2.6183,2.6441,2.6468,2.6509,2.6631,2.6644,2.6685,2.678,2.6807,2.6807,2.6807,2.6807,2.6807,2.6807,2.6712,2.6644,2.6644,2.6644,2.6698,2.6807,2.6645,2.6522,2.6468,2.6291,2.6251,2.64,2.6251,2.5993,2.5568,2.523,2.4444,2.3265,2.2897,2.2194,2.7884,0.0,0.0,0.0,0.0,0.0,0.0,0.0,0.0,0.0,0.0,0.0,0.0,0.0,0.0,0.0,0.0,0.0,0.0,0.0,0.0,0.0,0.0,0.0,0.0,0.0,0.0,0.0,0.0,0.0,0.0,4.2888,4.2888,4.2888,4.2888,4.2888,4.2888,4.2888,4.3045,4.3274,4.3009,4.2924,4.2804,4.0064,3.8565,3.8026,3.499,3.3588,3.3217,3.0071,2.7117,2.462,2.4745,2.488,2.5057,2.5395,2.5503,2.5544,2.5803,2.5898,2.5939,2.6074,2.602,2.5939,2.6074,2.602,2.5898,2.5898,2.5898,2.5898,2.5898,2.5898,2.5898,2.5898,2.5898,2.5952,2.6061,2.6088,2.6224,2.6522,2.6617,2.6631,2.678,2.6807,2.6807,2.6807,2.6807,2.6807,2.6807,2.6807,2.6807,2.6807,2.6807,2.6807,2.6807,2.6807,2.6807,2.6807,2.6807,2.6725,2.6617,2.6468,2.64,2.64,2.64,2.6468,2.6617,2.5609,2.5159,2.5247,2.4149,2.3133,2.7595,0.0,0.0,0.0,0.0,0.0,0.0,0.0,0.0,0.0,0.0,0.0,0.0,0.0,0.0,0.0,0.0,0.0,0.0,0.0,0.0,0.0,0.0,0.0,0.0,0.0,0.0,0.0,0.0,0.0,0.0,4.3021,4.2888,4.2888,4.2888,4.2888,4.2888,4.3081,4.3142,4.3009,4.3142,4.3286,4.3346,3.9937,3.8423,3.8167,3.2648,3.0264,3.0105,2.7194,2.5442,2.462,2.484,2.495,2.5057,2.5395,2.5503,2.5544,2.5803,2.5966,2.6034,2.6075,2.6061,2.6034,2.6075,2.602,2.5925,2.602,2.602,2.6061,2.6196,2.6264,2.621,2.5952,2.6061,2.6278,2.6291,2.6373,2.6508,2.6698,2.6725,2.6753,2.6807,2.6888,2.6929,2.682,2.6888,2.6929,2.682,2.6888,2.6887,2.682,2.6807,2.6807,2.6807,2.6807,2.6807,2.6807,2.6807,2.678,2.6725,2.659,2.659,2.6658,2.6576,2.659,2.6725,2.633,2.5826,2.5146,2.4681,2.3611,0.0,0.0,0.0,0.0,0.0,0.0,0.0,0.0,0.0,0.0,0.0,0.0,0.0,0.0,0.0,0.0,0.0,0.0,0.0,0.0,0.0,0.0,0.0,0.0,0.0,0.0,0.0,0.0,0.0,0.0,0.0,4.3311,4.319,4.3057,4.3057,4.3021,4.2888,4.3057,4.3057,4.2888,4.3057,4.3238,4.3286,4.1182,4.0322,4.0252,3.6273,3.3127,3.0648,2.9002,2.6845,2.4634,2.4894,2.5018,2.5099,2.545,2.5585,2.5625,2.5817,2.5952,2.6047,2.6075,2.6061,2.6047,2.6075,2.602,2.5939,2.6061,2.6088,2.6169,2.6373,2.64,2.6346,2.6129,2.6264,2.6414,2.6468,2.6522,2.6631,2.6766,2.6807,2.6807,2.6807,2.6929,2.6942,2.682,2.6929,2.6942,2.682,2.6901,2.6942,2.682,2.6807,2.6807,2.6807,2.6807,2.6807,2.6807,2.6807,2.6807,2.6807,2.6712,2.6685,2.6712,2.6685,2.6685,2.6712,2.6631,2.6249,2.5625,2.5426,2.4513,0.0,0.0,0.0,0.0,0.0,0.0,0.0,0.0,0.0,0.0,0.0,0.0,0.0,0.0,0.0,0.0,0.0,0.0,0.0,0.0,0.0,0.0,0.0,0.0,0.0,0.0,0.0,0.0,0.0,0.0,0.0,4.3697,4.3576,4.3311,4.3311,4.319,4.2888,4.2888,4.2888,4.2888,4.2888,4.2924,4.2912,4.2863,4.2705,4.245,4.2741,3.9315,3.3567,3.3664,3.0478,2.5508,2.5793,2.581,2.569,2.6033,2.5959,2.5708,2.5844,2.5925,2.5939,2.6074,2.6007,2.5952,2.6061,2.602,2.5939,2.6075,2.6142,2.6183,2.6359,2.6441,2.6441,2.6441,2.6441,2.6454,2.6577,2.659,2.6644,2.6766,2.6807,2.6807,2.6807,2.6901,2.6997,2.6861,2.6956,2.6955,2.682,2.6901,2.6942,2.682,2.6807,2.6807,2.6807,2.6807,2.6807,2.6807,2.6807,2.6807,2.678,2.6807,2.6725,2.6631,2.6712,2.6712,2.6617,2.6577,2.6509,2.6386,2.6183,2.559,0.0,0.0,0.0,0.0,0.0,0.0,0.0,0.0,0.0,0.0,0.0,0.0,0.0,0.0,0.0,0.0,0.0,0.0,0.0,0.0,0.0,0.0,0.0,0.0,0.0,0.0,0.0,0.0,0.0,0.0,4.3998,4.3781,4.3576,4.3311,4.3311,4.319,4.2888,4.2888,4.2888,4.2888,4.2888,4.3021,4.3141,4.0486,3.8067,3.6047,3.8531,3.7387,3.383,3.3945,3.3219,3.213,3.2757,3.1388,2.9087,2.9486,2.7952,2.5708,2.5844,2.5979,2.6061,2.6075,2.6075,2.6061,2.6075,2.602,2.5952,2.6237,2.6346,2.6373,2.6644,2.6712,2.6712,2.6712,2.6645,2.6577,2.6576,2.6658,2.6766,2.6807,2.6807,2.6807,2.6807,2.701,2.7145,2.7118,2.7131,2.7063,2.6834,2.6901,2.6942,2.682,2.6807,2.6807,2.6807,2.6807,2.6807,2.6807,2.6807,2.6753,2.6672,2.6725,2.678,2.6753,2.6658,2.6645,2.6617,2.6346,2.6196,2.6142,2.602,2.547,0.0,0.0,0.0,0.0,0.0,0.0,0.0,0.0,0.0,0.0,0.0,0.0,0.0,0.0,0.0,0.0,0.0,0.0,0.0,0.0,0.0,0.0,0.0,0.0,0.0,0.0,0.0,0.0,0.0,4.4156,4.4287,4.4059,4.3769,4.3504,4.3383,4.319,4.2888,4.2888,4.2888,4.2888,4.2888,4.3045,4.3238,4.1589,4.0079,3.8875,4.0389,3.9277,3.6339,3.6625,3.5846,3.4568,3.5232,3.4394,3.2839,3.3137,3.2116,3.0632,3.0705,2.9725,2.8456,2.8456,2.7347,2.598,2.598,2.598,2.6061,2.6332,2.6454,2.6522,2.6753,2.6807,2.6807,2.6807,2.6753,2.6726,2.6726,2.6753,2.682,2.6888,2.6848,2.682,2.686,2.7024,2.7145,2.7336,2.7253,2.7118,2.6901,2.6983,2.6942,2.682,2.6807,2.6807,2.6807,2.6807,2.6807,2.6807,2.6807,2.6766,2.6726,2.6766,2.6725,2.659,2.6617,2.6508,2.6359,2.6196,2.6061,2.598,2.5939,2.5658,0.0,0.0,0.0,0.0,0.0,0.0,0.0,0.0,0.0,0.0,0.0,0.0,0.0,0.0,0.0,0.0,0.0,0.0,0.0,0.0,0.0,0.0,0.0,0.0,0.0,0.0,0.0,0.0,0.0,4.4469,4.4445,4.4215,4.3962,4.3649,4.3407,4.319,4.2888,4.2888,4.2888,4.2888,4.2948,4.3117,4.3383,4.36,4.3842,4.4035,4.3866,4.2251,3.9844,4.0253,3.8906,3.6601,3.7256,3.7184,3.6658,3.6832,3.6123,3.5138,3.5138,3.2942,3.014,3.014,2.8203,2.5898,2.5898,2.6006,2.6129,2.6332,2.6509,2.6645,2.6766,2.6807,2.6807,2.6807,2.6807,2.6807,2.6807,2.6807,2.6834,2.6956,2.6902,2.6888,2.7036,2.7105,2.7187,2.7404,2.7336,2.7145,2.6969,2.6955,2.6901,2.682,2.6807,2.6807,2.6807,2.6807,2.6807,2.6807,2.6807,2.6807,2.6807,2.6807,2.6658,2.64,2.6522,2.64,2.6088,2.6101,2.602,2.5898,2.5898,2.5898,0.0,0.0,0.0,0.0,0.0,0.0,0.0,0.0,0.0,0.0,0.0,0.0,0.0,0.0,0.0,0.0,0.0,0.0,0.0,0.0,0.0,0.0,0.0,0.0,0.0,0.0,0.0,0.0,4.4518,4.4421,4.418,4.4118,4.3853,4.3383,4.3298,4.319,4.2888,4.2888,4.2888,4.2888,4.3142,4.3407,4.3649,4.366,4.3721,4.3769,4.3962,4.368,4.312,4.3607,4.3596,4.3292,4.409,4.2592,4.0062,4.0334,3.6713,3.1674,3.1674,2.9439,2.6565,2.6565,2.6258,2.5898,2.5898,2.6006,2.6129,2.6332,2.6509,2.6645,2.6766,2.6807,2.6807,2.6807,2.6807,2.6807,2.6807,2.6807,2.6807,2.6834,2.6929,2.7078,2.7363,2.7417,2.739,2.7253,2.7212,2.709,2.6875,2.6834,2.682,2.6807,2.6807,2.6807,2.6807,2.6807,2.6807,2.6807,2.6807,2.6807,2.6807,2.6807,2.6658,2.64,2.6427,2.6305,2.6088,2.5993,2.5925,2.5898,2.5898,2.5898,0.0,0.0,0.0,0.0,0.0,0.0,0.0,0.0,0.0,0.0,0.0,0.0,0.0,0.0,0.0,0.0,0.0,0.0,0.0,0.0,0.0,0.0,0.0,0.0,0.0,0.0,0.0,4.4469,4.4518,4.4373,4.4131,4.4094,4.3866,4.3298,4.3311,4.319,4.2888,4.2888,4.2888,4.2888,4.3009,4.3311,4.3697,4.3866,4.4035,4.4156,4.4131,4.4131,4.418,4.4735,4.488,4.4807,4.5459,4.4794,4.3293,4.1505,3.9083,3.6398,3.4467,3.1595,2.8746,2.8746,2.7444,2.5898,2.5898,2.6061,2.6278,2.6386,2.6563,2.6712,2.678,2.6807,2.6807,2.6807,2.6807,2.682,2.6902,2.6861,2.6807,2.6807,2.6955,2.7145,2.7309,2.7417,2.7458,2.7377,2.7253,2.7131,2.6956,2.6861,2.6807,2.6807,2.6807,2.6807,2.6807,2.6807,2.6807,2.6807,2.6807,2.6807,2.6807,2.6807,2.6658,2.64,2.64,2.6278,2.6006,2.5939,2.5898,2.5898,2.5898,2.5898,0.0,0.0,0.0,0.0,0.0,0.0,0.0,0.0,0.0,0.0,0.0,0.0,0.0,0.0,0.0,0.0,0.0,0.0,0.0,0.0,0.0,0.0,0.0,0.0,4.4022,4.3987,4.4046,4.4469,4.4566,4.4445,4.4035,4.3998,4.3769,4.3214,4.3214,4.3117,4.2888,4.2816,4.2792,4.2792,4.2792,4.3117,4.3697,4.3938,4.418,4.448,4.4336,4.4349,4.4445,4.5073,4.5121,4.4928,4.5435,4.5652,4.5418,4.2885,4.1605,4.0732,3.8186,3.5098,3.211,3.1277,2.9265,2.7045,2.6178,2.6115,2.64,2.64,2.6576,2.6807,2.6807,2.6807,2.6807,2.6807,2.6834,2.6888,2.6969,2.6956,2.6929,2.6956,2.716,2.7267,2.7307,2.7458,2.7512,2.7417,2.7309,2.7131,2.6955,2.6875,2.6807,2.6807,2.6807,2.6807,2.6807,2.6807,2.6807,2.6807,2.6807,2.6807,2.6807,2.6807,2.6658,2.64,2.64,2.625,2.5898,2.5898,2.5898,2.5898,2.5898,2.5898,0.0,0.0,0.0,0.0,0.0,0.0,0.0,0.0,0.0,0.0,0.0,0.0,0.0,0.0,0.0,0.0,0.0,0.0,0.0,0.0,0.0,0.0,4.3431,4.3504,4.4059,4.4325,4.4469,4.4518,4.4735,4.4542,4.3769,4.3721,4.348,4.2948,4.2912,4.2924,4.2888,4.2659,4.2526,4.2526,4.2526,4.2912,4.3697,4.3697,4.4035,4.4518,4.4746,4.459,4.418,4.4976,4.5121,4.4928,4.5194,4.5483,4.5662,4.5509,4.3608,4.1083,4.0888,3.8598,3.5217,3.2031,3.088,3.014,2.6899,2.6115,2.64,2.64,2.6576,2.6807,2.6807,2.6807,2.6807,2.6807,2.6902,2.6969,2.6982,2.709,2.7255,2.7446,2.7458,2.7512,2.7648,2.7689,2.7594,2.7253,2.7199,2.709,2.6848,2.6807,2.6807,2.6807,2.6807,2.6807,2.6807,2.6807,2.6807,2.6807,2.6807,2.6807,2.6807,2.6807,2.6658,2.64,2.64,2.625,2.5898,2.5898,2.5898,2.5898,2.5898,2.5898,0.0,0.0,0.0,0.0,0.0,0.0,0.0,0.0,0.0,0.0,0.0,0.0,0.0,0.0,0.0,0.0,0.0,0.0,0.0,4.3733,4.3733,4.3925,4.3721,4.3842,4.4542,4.4542,4.459,4.4735,4.4832,4.4542,4.3745,4.4035,4.389,4.319,4.3504,4.3491,4.3154,4.2719,4.2599,4.2744,4.2744,4.3081,4.3697,4.389,4.4156,4.4518,4.477,4.4711,4.4384,4.4842,4.4904,4.4711,4.5121,4.5363,4.5192,4.3225,4.192,4.081,3.8598,3.7164,3.6075,3.4846,3.2996,3.1034,2.9878,2.809,2.6427,2.6509,2.6644,2.6807,2.6807,2.6807,2.6807,2.6807,2.6887,2.7009,2.7118,2.7158,2.7212,2.7267,2.7404,2.7528,2.7539,2.7634,2.7431,2.6603,2.6901,2.6914,2.6183,2.6508,2.6807,2.6807,2.6807,2.6807,2.6807,2.6807,2.6807,2.6807,2.6807,2.6807,2.6807,2.6807,2.6712,2.6549,2.6454,2.625,2.5898,2.5898,2.5898,2.5898,2.5898,2.5898,2.8536,0.0,0.0,0.0,0.0,0.0,0.0,0.0,0.0,0.0,0.0,0.0,0.0,0.0,0.0,0.0,4.395,4.3998,4.4094,4.4035,4.4022,4.4228,4.4083,4.4228,4.4832,4.4904,4.4904,4.4904,4.4904,0.0,4.3853,4.4083,4.3962,4.3298,4.3673,4.3564,4.3045,4.2683,4.2623,4.2888,4.2888,4.319,4.3697,4.3987,4.4191,4.4373,4.4638,4.4711,4.4638,4.4832,4.4807,4.4687,4.4928,4.5121,4.5024,4.3011,4.2473,4.247,4.0269,3.8879,3.7873,3.68,3.4186,3.1228,3.0145,2.8288,2.6495,2.6577,2.6726,2.682,2.6875,2.6875,2.6875,2.6875,2.6956,2.7023,2.7158,2.7239,2.7309,2.7309,2.7404,2.7514,2.7514,2.7512,2.7267,2.6562,2.6847,2.686,2.6169,2.6508,2.6807,2.6807,2.6807,2.6807,2.6807,2.6807,2.6807,2.6807,2.6807,2.6807,2.6807,2.6807,2.6725,2.6617,2.6522,2.6291,2.5979,2.5925,2.5898,2.5898,2.5898,2.5898,0.0,0.0,0.0,0.0,0.0,0.0,3.6388,0.0,3.9382,4.1562,4.2647,4.3335,4.3649,4.4156,4.4311,4.3842,4.3745,4.3842,4.4094,4.389,4.3938,4.4445,4.4518,4.4601,4.4904,4.5387,4.5483,4.4976,4.4904,4.4687,4.4131,4.3842,4.3576,4.3298,4.3311,4.3057,4.2526,4.2526,4.2647,4.2912,4.2912,4.3214,4.3721,4.3987,4.4131,4.4118,4.4384,4.4625,4.4904,4.4904,4.4904,4.488,4.4614,4.4832,4.529,4.529,4.5652,4.6135,4.6401,4.4323,4.098,3.7911,3.4582,3.1107,2.7866,2.6822,2.6741,2.6741,2.6781,2.6834,2.6955,2.6982,2.6982,2.6982,2.6982,2.7023,2.7158,2.735,2.7501,2.7472,2.7472,2.7472,2.7472,2.735,2.7185,2.7158,2.7036,2.6901,2.678,2.6766,2.678,2.6807,2.6807,2.6807,2.6807,2.6807,2.6807,2.6807,2.6807,2.6807,2.6807,2.6807,2.6725,2.659,2.6617,2.6427,2.6088,2.5993,2.5898,2.5898,2.5898,2.5898,2.6124,0.0,0.0,0.0,0.0,0.0,0.0,0.0,0.0,3.9189,4.0741,4.2007,4.3431,4.4156,4.4518,4.4566,4.459,4.4577,4.4687,4.4445,4.4311,4.4469,4.4687,4.4904,4.5169,4.5469,4.5556,0.0,4.5,4.459,4.3866,4.3576,4.348,4.36,4.36,4.3528,4.3383,4.3383,4.3407,4.348,4.366,4.3866,4.3998,4.4276,4.4384,4.4384,4.4469,4.4625,4.4866,4.4711,4.4614,4.4601,4.4735,4.5,4.5314,4.5532,4.5942,4.6401,4.6473,4.6134,4.551,4.4626,4.2013,3.9088,3.8279,3.4469,3.039,3.0612,2.887,2.6942,2.6969,2.6943,2.6875,2.6875,2.6875,2.6902,2.7051,2.7119,2.7187,2.7282,2.7267,2.7267,2.7267,2.7239,2.6969,2.6332,2.6237,2.6169,2.6006,2.5993,2.6196,2.6753,2.6807,2.6807,2.6807,2.6807,2.6807,2.6807,2.6807,2.6807,2.6807,2.6807,2.678,2.6725,2.6672,2.6522,2.6332,2.6142,2.6006,2.5898,2.5898,2.5898,2.6051,0.0,0.0,0.0,0.0,0.0,3.1795,3.3465,0.0,0.0,3.997,4.1248,4.3045,4.3528,4.3925,4.4783,4.4904,4.4904,4.4904,4.4687,4.4542,4.4625,4.4904,4.5121,4.529,4.5556,4.5556,4.5169,4.4866,4.4469,4.389,4.3842,4.3853,4.4035,4.3938,4.3866,4.3866,4.3769,4.3769,4.3866,4.4022,4.4094,4.4131,4.4373,4.4445,4.4349,4.4432,4.4577,4.4735,4.4711,4.4687,4.4687,4.4832,4.5073,4.5377,4.5749,4.6135,4.6521,4.6763,4.612,4.5145,4.5278,4.2954,4.0136,4.0259,3.7361,3.4125,3.4379,3.1982,2.931,2.9263,2.8067,2.6888,2.682,2.6807,2.682,2.6902,2.6901,2.6983,2.7077,2.7118,2.7118,2.7118,2.7063,2.686,2.6454,2.6318,2.6251,2.6169,2.6156,2.6332,2.6753,2.6807,2.6807,2.6807,2.6807,2.6807,2.6807,2.6807,2.6807,2.6807,2.6807,2.6807,2.6807,2.6712,2.6631,2.6495,2.6237,2.602,2.5898,2.5898,2.5898,2.6027,2.6439,0.0,0.0,0.0,0.0,3.1942,3.344,3.4909,0.0,3.9222,4.0283,4.1934,4.2116,4.249,4.389,4.4373,4.4687,4.4976,4.4711,4.4614,4.488,4.5097,4.5266,4.5266,4.5483,4.5459,4.4928,4.4614,4.4287,4.4022,4.4252,4.4373,4.4421,4.4228,4.4094,4.4094,4.389,4.3938,4.4156,4.4156,4.4156,4.4143,4.4408,4.4421,4.4191,4.4469,4.4577,4.4614,4.4832,4.4928,4.4904,4.4928,4.5097,4.5387,4.5918,4.6304,4.6618,4.7125,4.5305,4.2769,4.3005,4.0928,3.8392,3.8392,3.8107,3.776,3.7621,3.5433,3.3061,3.2506,2.9983,2.7415,2.6917,2.6807,2.6807,2.6807,2.6807,2.6834,2.6942,2.6969,2.6969,2.6969,2.6888,2.6848,2.6983,2.682,2.6712,2.678,2.6725,2.6712,2.678,2.6807,2.6807,2.6807,2.6807,2.6807,2.6807,2.6807,2.6807,2.6807,2.6807,2.6807,2.6807,2.678,2.6712,2.6617,2.6278,2.602,2.5925,2.5898,2.5898,2.6463,2.6872,2.7306,0.0,0.0,0.0,0.0,2.9695,3.1264,0.0,3.4571,3.6002,3.7814,3.8635,3.907,3.9167,4.1138,4.3298,4.5252,4.4939,4.4614,4.488,4.4928,4.4976,4.4976,4.5218,4.528,4.4928,4.4252,4.3745,4.348,4.3504,4.3624,4.3866,4.4035,4.4094,4.4094,4.4239,4.4373,4.4408,4.4408,4.4408,4.4445,4.4711,4.4807,4.4783,4.5025,4.5121,4.5121,4.5194,4.5097,4.4928,4.5121,4.5387,4.5638,4.5966,4.6401,4.6859,4.7173,4.6977,4.6648,4.6655,4.6237,4.5652,4.5652,4.3698,4.0889,3.8277,3.7188,3.6162,3.3045,3.1615,3.0308,2.747,2.6807,2.6807,2.6807,2.6807,2.682,2.6834,2.6848,2.6848,2.6848,2.682,2.682,2.6834,2.6305,2.6129,2.6725,2.6278,2.6129,2.6725,2.6807,2.6807,2.6807,2.6807,2.6807,2.6807,2.6807,2.6807,2.6807,2.6807,2.6807,2.6807,2.6685,2.6645,2.6617,2.6278,2.6075,2.6074,2.5952,2.5898,2.6794,2.6873,2.7233,2.7354,0.0,0.0,0.0,0.0,3.0419,3.1891,3.2712,3.3779,3.5633,3.6002,3.6364,3.7427,3.968,4.1803,4.3311,4.4191,4.4807,4.5073,4.4976,4.4832,4.4711,4.4928,4.4928,4.4542,4.4118,4.3829,4.3684,4.3697,4.389,4.4276,4.4325,4.4445,4.4711,4.459,4.4638,4.4904,4.4783,4.4783,4.4904,4.5025,4.5097,4.5097,4.5218,4.529,4.529,4.5459,4.5435,4.5314,4.5459,4.558,4.5773,4.6304,4.6594,4.6802,4.7318,4.7511,4.7535,4.7656,4.7704,4.7704,4.7704,4.6572,4.4949,4.3236,4.0361,3.7334,3.5409,3.2161,2.8972,2.7208,2.6807,2.6807,2.6807,2.6807,2.6807,2.6807,2.6807,2.6807,2.6807,2.6807,2.6807,2.6807,2.6481,2.6373,2.6753,2.6481,2.64,2.6766,2.6807,2.6807,2.6807,2.6807,2.6807,2.6807,2.6807,2.6807,2.6807,2.6807,2.6807,2.6807,2.6725,2.6726,2.6726,2.6468,2.6305,2.6237,2.6101,2.6006,0.0,0.0,0.0,0.0,0.0,2.7716,0.0,0.0,0.0,0.0,0.0,0.0,0.0,0.0,0.0,3.5615,3.7847,3.9535,4.0027,4.2176,4.3962,4.4735,4.4735,4.459,4.4373,4.4445,4.4373,4.4059,4.3829,4.3793,4.3925,4.3998,4.4252,4.4735,4.4577,4.4711,4.5121,4.4783,4.4807,4.5218,4.5073,4.5097,4.529,4.5363,4.5387,4.5387,4.5435,4.5459,4.5459,4.5676,4.5773,4.5773,4.5773,4.5821,4.5942,4.6618,4.6787,4.6763,4.7463,4.756,4.7415,4.7632,4.7704,4.7704,4.7704,4.7898,4.8091,4.8018,4.3967,3.9298,3.7908,3.32,2.8435,2.7125,2.6807,2.6807,2.6834,2.682,2.6807,2.6834,2.682,2.6807,2.6807,2.6807,2.6807,2.6807,2.6807,2.6807,2.6807,2.6807,2.6807,2.6807,2.6807,2.6807,2.6807,2.6807,2.6807,2.6807,2.6807,2.6807,2.6807,2.6807,2.6807,2.6807,2.6807,2.6807,2.6807,2.6685,2.6577,2.6441,2.6251,2.6129,0.0,0.0,0.0,0.0,2.8656,0.0,0.0,0.0,0.0,0.0,0.0,0.0,0.0,0.0,0.0,0.0,0.0,3.5373,3.5688,3.779,4.0254,4.2876,4.3576,4.3842,4.3793,4.3407,4.3311,4.3684,4.284,4.2623,4.3347,4.3624,4.389,4.418,4.4384,4.4542,4.4577,4.4783,4.4904,4.4928,4.5169,4.5266,4.529,4.5556,4.5638,4.5676,4.5918,4.6014,4.6014,4.6039,4.6024,4.6024,4.6024,4.6208,4.6425,4.6802,4.7028,4.727,4.7608,4.7656,4.7656,4.7704,4.7704,4.7704,4.7704,4.7898,4.8067,4.7801,4.7334,4.5409,3.8918,3.6641,3.4475,2.8269,2.6807,2.6834,2.6942,2.6888,2.6834,2.6942,2.6888,2.6807,2.6807,2.6807,2.6807,2.6807,2.6807,2.6807,2.6807,2.6807,2.6807,2.6807,2.6807,2.6807,2.6807,2.6807,2.6807,2.6807,2.6807,2.6807,2.6807,2.6807,2.6807,2.6807,2.6807,2.6807,2.6807,2.678,2.6698,2.6577,2.6441,2.6251,0.0,0.0,0.0,0.0,0.0,0.0,0.0,0.0,2.7957,0.0,0.0,0.0,0.0,0.0,0.0,0.0,3.1894,0.0,3.3827,3.6026,3.8345,4.0206,4.0327,4.0399,4.0645,4.1152,4.1693,4.2044,4.1948,4.2248,4.3009,4.3298,4.3673,4.4094,4.4336,4.459,4.4735,4.4832,4.5073,4.5349,4.5483,4.5676,4.6014,4.6111,4.6232,4.6401,4.6352,4.6425,4.657,4.6401,4.6328,4.6328,4.6497,4.6521,4.6521,4.6787,4.6956,4.7125,4.7535,4.7608,4.7511,4.7632,4.7704,4.7704,4.7704,4.7753,4.7825,4.7729,4.6308,4.4132,4.105,3.8758,3.5947,3.0978,2.9899,2.9368,2.7428,2.7009,2.7051,2.6982,2.7009,2.7024,2.6943,2.6861,2.6807,2.6807,2.6807,2.6807,2.6807,2.6807,2.6807,2.6807,2.6807,2.6807,2.6807,2.6807,2.6807,2.6807,2.6888,2.6901,2.6901,2.6901,2.6888,2.6807,2.6807,2.6807,2.6807,2.6807,2.6766,2.6698,2.659,2.6454,3.1466,0.0,0.0,0.0,0.0,0.0,0.0,0.0,0.0,0.0,0.0,0.0,0.0,0.0,0.0,0.0,0.0,3.235,3.2423,3.4064,0.0,0.0,3.7693,3.791,3.8482,3.9086,3.9777,4.0621,4.0645,4.1234,4.2635,4.3021,4.3431,4.395,4.4311,4.4577,4.4807,4.4928,4.5194,4.5566,4.5821,4.6072,4.6401,4.6473,4.6594,4.6802,4.6594,4.6594,4.6802,4.6666,4.657,4.6521,4.6787,4.6811,4.6763,4.6932,4.7053,4.7173,4.756,4.756,4.7439,4.7632,4.7704,4.7704,4.7704,4.7704,4.7704,4.7704,4.5876,4.3698,4.2748,4.0604,3.7782,3.4271,3.3563,3.2722,2.9266,2.8614,2.8392,2.7328,2.7158,2.7158,2.7063,2.6956,2.6833,2.6833,2.6834,2.6807,2.6807,2.6807,2.6807,2.6807,2.6807,2.6807,2.6807,2.6807,2.682,2.6861,2.6942,2.6982,2.6982,2.6955,2.6902,2.6807,2.6807,2.6807,2.6807,2.6807,2.6807,2.6807,2.6698,2.6645,0.0,0.0,0.0,3.1737,0.0,0.0,0.0,0.0,2.9646,0.0,0.0,0.0,0.0,0.0,0.0,0.0,0.0,0.0,0.0,0.0,0.0,0.0,0.0,0.0,3.8514,3.7459,3.7661,3.9955,3.8756,3.9158,4.1972,4.2623,4.3154,4.3697,4.4228,4.4518,4.4518,4.5025,4.529,4.5314,4.6111,4.6328,4.6135,4.6377,4.6497,4.6497,4.6497,4.6497,4.6521,4.6787,4.6715,4.6521,4.6787,4.7053,4.727,4.727,4.7463,4.7656,4.7704,4.7704,4.7704,4.7704,4.7704,4.7704,4.7704,4.7704,4.7704,4.7704,4.76,4.6759,4.3375,4.2425,4.1414,3.7884,3.724,3.6499,3.3044,3.2384,3.1443,2.8138,2.735,2.7199,2.7199,2.7077,2.6982,2.6982,2.6888,2.6807,2.6807,2.6807,2.6807,2.6807,2.6807,2.6807,2.6807,2.6807,2.6875,2.6969,2.6982,2.6982,2.6982,2.6888,2.6807,2.6807,2.6807,2.6807,2.6807,2.6807,2.6807,2.6807,2.6807,2.6712,0.0,0.0,3.6595,3.429,0.0,0.0,0.0,0.0,0.0,0.0,0.0,0.0,0.0,0.0,0.0,0.0,0.0,0.0,0.0,0.0,0.0,0.0,0.0,0.0,0.0,3.5253,3.614,3.6937,3.7016,3.8023,4.038,4.1031,4.1948,4.3407,4.3962,4.4311,4.4518,4.5025,4.529,4.529,4.6111,4.6473,4.6377,4.6811,4.7053,4.7053,4.7053,4.7149,4.727,4.7222,4.7004,4.6787,4.7246,4.727,4.7053,4.7246,4.7463,4.7704,4.7704,4.7704,4.7704,4.7704,4.7704,4.7704,4.7704,4.7704,4.7704,4.7704,4.7704,4.7424,4.6237,4.5933,4.5049,4.1515,4.085,4.0074,3.6802,3.6158,3.522,3.1758,3.1075,3.0314,2.7841,2.735,2.7255,2.7023,2.6983,2.6887,2.682,2.6807,2.6807,2.6807,2.6807,2.6807,2.6807,2.6888,2.6942,2.6982,2.7077,2.709,2.6982,2.6983,2.6902,2.6807,2.6807,2.6807,2.6807,2.6807,2.6807,2.6807,2.6807,2.6766,4.1078,4.0501,0.0,3.7762,3.6184,0.0,3.2591,0.0,0.0,0.0,0.0,0.0,0.0,0.0,0.0,0.0,0.0,0.0,0.0,2.9501,0.0,0.0,0.0,0.0,0.0,0.0,3.4334,3.518,3.5373,3.6412,3.8627,3.9873,4.1127,4.2526,4.3673,4.4311,4.4518,4.5025,4.529,4.529,4.6208,4.6594,4.6521,4.7053,4.7318,4.7318,4.7318,4.7415,4.756,4.7463,4.727,4.7077,4.7535,4.7463,4.7222,4.7366,4.756,4.7704,4.7704,4.7704,4.7704,4.7704,4.7704,4.7704,4.7704,4.7704,4.7704,4.7704,4.7704,4.7704,4.7704,4.7704,4.712,4.4865,4.4504,4.3708,4.0339,3.9815,3.8971,3.5416,3.3861,3.2333,2.9936,2.8433,2.7458,2.7118,2.7023,2.6942,2.682,2.6807,2.6807,2.6807,2.6807,2.6807,2.6807,2.6901,2.6982,2.6982,2.7077,2.7077,2.6982,2.6942,2.6902,2.6807,2.6807,2.6807,2.6807,2.6807,2.6807,2.6807,2.6807,2.6807]}]]